<?xml version="1.0" encoding="UTF-8" standalone="no" ?>
<gpx xmlns="http://www.topografix.com/GPX/1/1" xmlns:xsi="http://www.w3.org/2001/XMLSchema-instance" xsi:schemaLocation="http://www.topografix.com/GPX/1/1 http://www.topografix.com/GPX/1/1/gpx.xsd" version="1.1" creator="VisuGPX - https://www.visugpx.com">
  <metadata>
    <name>Pedraforca (Talibans)</name>
  </metadata>
  <trk>
    <name><![CDATA[2024-11-02 Pedraforca (Talibans)]]></name>
    <trkseg>
      <trkpt lat="42.22977" lon="1.72471">
        <ele>1341.37</ele>
        <time>2024-11-02T06:21:29Z</time>
      </trkpt>
      <trkpt lat="42.22973" lon="1.72465">
        <ele>1344.84</ele>
        <time>2024-11-02T06:21:34Z</time>
      </trkpt>
      <trkpt lat="42.2297" lon="1.72459">
        <ele>1348.43</ele>
        <time>2024-11-02T06:21:38Z</time>
      </trkpt>
      <trkpt lat="42.22969" lon="1.72456">
        <ele>1349.49</ele>
        <time>2024-11-02T06:21:40Z</time>
      </trkpt>
      <trkpt lat="42.22967" lon="1.72451">
        <ele>1352.5</ele>
        <time>2024-11-02T06:21:44Z</time>
      </trkpt>
      <trkpt lat="42.22966" lon="1.7245">
        <ele>1352.7</ele>
        <time>2024-11-02T06:21:45Z</time>
      </trkpt>
      <trkpt lat="42.22964" lon="1.72446">
        <ele>1354.47</ele>
        <time>2024-11-02T06:21:48Z</time>
      </trkpt>
      <trkpt lat="42.2296" lon="1.72437">
        <ele>1357.54</ele>
        <time>2024-11-02T06:21:54Z</time>
      </trkpt>
      <trkpt lat="42.2296" lon="1.72433">
        <ele>1359.12</ele>
        <time>2024-11-02T06:21:57Z</time>
      </trkpt>
      <trkpt lat="42.22953" lon="1.7242">
        <ele>1362.55</ele>
        <time>2024-11-02T06:22:07Z</time>
      </trkpt>
      <trkpt lat="42.22951" lon="1.72418">
        <ele>1362.75</ele>
        <time>2024-11-02T06:22:09Z</time>
      </trkpt>
      <trkpt lat="42.22947" lon="1.72412">
        <ele>1365.16</ele>
        <time>2024-11-02T06:22:15Z</time>
      </trkpt>
      <trkpt lat="42.22934" lon="1.72405">
        <ele>1368.81</ele>
        <time>2024-11-02T06:22:28Z</time>
      </trkpt>
      <trkpt lat="42.22923" lon="1.72393">
        <ele>1371.16</ele>
        <time>2024-11-02T06:22:40Z</time>
      </trkpt>
      <trkpt lat="42.22913" lon="1.72378">
        <ele>1373.46</ele>
        <time>2024-11-02T06:22:52Z</time>
      </trkpt>
      <trkpt lat="42.229" lon="1.72351">
        <ele>1375.25</ele>
        <time>2024-11-02T06:23:11Z</time>
      </trkpt>
      <trkpt lat="42.22883" lon="1.72322">
        <ele>1376.5</ele>
        <time>2024-11-02T06:23:34Z</time>
      </trkpt>
      <trkpt lat="42.22869" lon="1.72299">
        <ele>1378.21</ele>
        <time>2024-11-02T06:23:53Z</time>
      </trkpt>
      <trkpt lat="42.22856" lon="1.72275">
        <ele>1380.21</ele>
        <time>2024-11-02T06:24:12Z</time>
      </trkpt>
      <trkpt lat="42.22845" lon="1.72257">
        <ele>1381.87</ele>
        <time>2024-11-02T06:24:28Z</time>
      </trkpt>
      <trkpt lat="42.2283" lon="1.7224">
        <ele>1383.86</ele>
        <time>2024-11-02T06:24:48Z</time>
      </trkpt>
      <trkpt lat="42.22812" lon="1.72225">
        <ele>1385.61</ele>
        <time>2024-11-02T06:25:06Z</time>
      </trkpt>
      <trkpt lat="42.228" lon="1.72214">
        <ele>1388.63</ele>
        <time>2024-11-02T06:25:22Z</time>
      </trkpt>
      <trkpt lat="42.2279" lon="1.72205">
        <ele>1391.21</ele>
        <time>2024-11-02T06:25:35Z</time>
      </trkpt>
      <trkpt lat="42.22781" lon="1.72189">
        <ele>1394.65</ele>
        <time>2024-11-02T06:25:52Z</time>
      </trkpt>
      <trkpt lat="42.22775" lon="1.7217">
        <ele>1397.24</ele>
        <time>2024-11-02T06:26:10Z</time>
      </trkpt>
      <trkpt lat="42.22774" lon="1.72168">
        <ele>1396.92</ele>
        <time>2024-11-02T06:26:12Z</time>
      </trkpt>
      <trkpt lat="42.22768" lon="1.72155">
        <ele>1399.09</ele>
        <time>2024-11-02T06:26:25Z</time>
      </trkpt>
      <trkpt lat="42.22763" lon="1.72133">
        <ele>1402.27</ele>
        <time>2024-11-02T06:26:44Z</time>
      </trkpt>
      <trkpt lat="42.22759" lon="1.7211">
        <ele>1404.86</ele>
        <time>2024-11-02T06:27:06Z</time>
      </trkpt>
      <trkpt lat="42.22756" lon="1.72094">
        <ele>1407.91</ele>
        <time>2024-11-02T06:27:23Z</time>
      </trkpt>
      <trkpt lat="42.22753" lon="1.72075">
        <ele>1411.16</ele>
        <time>2024-11-02T06:27:44Z</time>
      </trkpt>
      <trkpt lat="42.22751" lon="1.72058">
        <ele>1414.35</ele>
        <time>2024-11-02T06:28:03Z</time>
      </trkpt>
      <trkpt lat="42.2275" lon="1.72043">
        <ele>1416.73</ele>
        <time>2024-11-02T06:28:18Z</time>
      </trkpt>
      <trkpt lat="42.22746" lon="1.72026">
        <ele>1419.21</ele>
        <time>2024-11-02T06:28:37Z</time>
      </trkpt>
      <trkpt lat="42.22741" lon="1.72008">
        <ele>1422.21</ele>
        <time>2024-11-02T06:28:53Z</time>
      </trkpt>
      <trkpt lat="42.2274" lon="1.72">
        <ele>1423.62</ele>
        <time>2024-11-02T06:29:02Z</time>
      </trkpt>
      <trkpt lat="42.22734" lon="1.7198">
        <ele>1425.53</ele>
        <time>2024-11-02T06:29:20Z</time>
      </trkpt>
      <trkpt lat="42.22731" lon="1.71964">
        <ele>1428.93</ele>
        <time>2024-11-02T06:29:36Z</time>
      </trkpt>
      <trkpt lat="42.22728" lon="1.71945">
        <ele>1430.73</ele>
        <time>2024-11-02T06:29:54Z</time>
      </trkpt>
      <trkpt lat="42.22728" lon="1.71943">
        <ele>1431.56</ele>
        <time>2024-11-02T06:29:56Z</time>
      </trkpt>
      <trkpt lat="42.22727" lon="1.71935">
        <ele>1432.36</ele>
        <time>2024-11-02T06:30:02Z</time>
      </trkpt>
      <trkpt lat="42.22727" lon="1.71934">
        <ele>1432.51</ele>
        <time>2024-11-02T06:30:03Z</time>
      </trkpt>
      <trkpt lat="42.22728" lon="1.71915">
        <ele>1434.3</ele>
        <time>2024-11-02T06:30:19Z</time>
      </trkpt>
      <trkpt lat="42.22728" lon="1.71895">
        <ele>1436.82</ele>
        <time>2024-11-02T06:30:37Z</time>
      </trkpt>
      <trkpt lat="42.22728" lon="1.71882">
        <ele>1439.24</ele>
        <time>2024-11-02T06:30:49Z</time>
      </trkpt>
      <trkpt lat="42.22727" lon="1.71864">
        <ele>1440.64</ele>
        <time>2024-11-02T06:31:03Z</time>
      </trkpt>
      <trkpt lat="42.22727" lon="1.71847">
        <ele>1442.23</ele>
        <time>2024-11-02T06:31:16Z</time>
      </trkpt>
      <trkpt lat="42.22726" lon="1.71831">
        <ele>1443.83</ele>
        <time>2024-11-02T06:31:29Z</time>
      </trkpt>
      <trkpt lat="42.22723" lon="1.71811">
        <ele>1446.42</ele>
        <time>2024-11-02T06:31:45Z</time>
      </trkpt>
      <trkpt lat="42.22719" lon="1.71793">
        <ele>1447.85</ele>
        <time>2024-11-02T06:31:59Z</time>
      </trkpt>
      <trkpt lat="42.2271" lon="1.71769">
        <ele>1449.68</ele>
        <time>2024-11-02T06:32:17Z</time>
      </trkpt>
      <trkpt lat="42.227" lon="1.71747">
        <ele>1452.46</ele>
        <time>2024-11-02T06:32:36Z</time>
      </trkpt>
      <trkpt lat="42.22692" lon="1.71729">
        <ele>1454.61</ele>
        <time>2024-11-02T06:32:51Z</time>
      </trkpt>
      <trkpt lat="42.2268" lon="1.71709">
        <ele>1456.96</ele>
        <time>2024-11-02T06:33:11Z</time>
      </trkpt>
      <trkpt lat="42.22673" lon="1.71692">
        <ele>1460.41</ele>
        <time>2024-11-02T06:33:28Z</time>
      </trkpt>
      <trkpt lat="42.22669" lon="1.71685">
        <ele>1460.62</ele>
        <time>2024-11-02T06:33:36Z</time>
      </trkpt>
      <trkpt lat="42.2266" lon="1.71664">
        <ele>1461.17</ele>
        <time>2024-11-02T06:33:52Z</time>
      </trkpt>
      <trkpt lat="42.22655" lon="1.71653">
        <ele>1462.05</ele>
        <time>2024-11-02T06:34:01Z</time>
      </trkpt>
      <trkpt lat="42.22647" lon="1.71633">
        <ele>1463.01</ele>
        <time>2024-11-02T06:34:16Z</time>
      </trkpt>
      <trkpt lat="42.22644" lon="1.71624">
        <ele>1463.72</ele>
        <time>2024-11-02T06:34:23Z</time>
      </trkpt>
      <trkpt lat="42.22645" lon="1.71618">
        <ele>1464.48</ele>
        <time>2024-11-02T06:34:28Z</time>
      </trkpt>
      <trkpt lat="42.22653" lon="1.71621">
        <ele>1464.42</ele>
        <time>2024-11-02T06:34:35Z</time>
      </trkpt>
      <trkpt lat="42.22671" lon="1.71636">
        <ele>1464.74</ele>
        <time>2024-11-02T06:34:58Z</time>
      </trkpt>
      <trkpt lat="42.22679" lon="1.71643">
        <ele>1464.45</ele>
        <time>2024-11-02T06:35:06Z</time>
      </trkpt>
      <trkpt lat="42.22693" lon="1.71655">
        <ele>1462.92</ele>
        <time>2024-11-02T06:35:26Z</time>
      </trkpt>
      <trkpt lat="42.22693" lon="1.71655">
        <ele>1464.34</ele>
        <time>2024-11-02T06:35:29Z</time>
      </trkpt>
      <trkpt lat="42.22692" lon="1.71653">
        <ele>1463.69</ele>
        <time>2024-11-02T06:35:50Z</time>
      </trkpt>
      <trkpt lat="42.22693" lon="1.71653">
        <ele>1463.28</ele>
        <time>2024-11-02T06:35:59Z</time>
      </trkpt>
      <trkpt lat="42.22692" lon="1.71653">
        <ele>1463.57</ele>
        <time>2024-11-02T06:36:22Z</time>
      </trkpt>
      <trkpt lat="42.22692" lon="1.71654">
        <ele>1464.34</ele>
        <time>2024-11-02T06:36:36Z</time>
      </trkpt>
      <trkpt lat="42.22694" lon="1.71654">
        <ele>1464.2</ele>
        <time>2024-11-02T06:37:03Z</time>
      </trkpt>
      <trkpt lat="42.22697" lon="1.71657">
        <ele>1465.09</ele>
        <time>2024-11-02T06:37:21Z</time>
      </trkpt>
      <trkpt lat="42.22701" lon="1.71655">
        <ele>1468.47</ele>
        <time>2024-11-02T06:37:38Z</time>
      </trkpt>
      <trkpt lat="42.22704" lon="1.71647">
        <ele>1470.44</ele>
        <time>2024-11-02T06:37:53Z</time>
      </trkpt>
      <trkpt lat="42.22706" lon="1.71642">
        <ele>1473.11</ele>
        <time>2024-11-02T06:38:12Z</time>
      </trkpt>
      <trkpt lat="42.22708" lon="1.71638">
        <ele>1476.54</ele>
        <time>2024-11-02T06:38:29Z</time>
      </trkpt>
      <trkpt lat="42.22713" lon="1.71633">
        <ele>1479.06</ele>
        <time>2024-11-02T06:38:49Z</time>
      </trkpt>
      <trkpt lat="42.22716" lon="1.71627">
        <ele>1481.62</ele>
        <time>2024-11-02T06:39:07Z</time>
      </trkpt>
      <trkpt lat="42.22716" lon="1.7162">
        <ele>1481.56</ele>
        <time>2024-11-02T06:39:21Z</time>
      </trkpt>
      <trkpt lat="42.22713" lon="1.71612">
        <ele>1482.5</ele>
        <time>2024-11-02T06:39:35Z</time>
      </trkpt>
      <trkpt lat="42.22714" lon="1.71605">
        <ele>1485.33</ele>
        <time>2024-11-02T06:39:51Z</time>
      </trkpt>
      <trkpt lat="42.22718" lon="1.71602">
        <ele>1487.39</ele>
        <time>2024-11-02T06:40:07Z</time>
      </trkpt>
      <trkpt lat="42.22723" lon="1.71594">
        <ele>1490.23</ele>
        <time>2024-11-02T06:40:26Z</time>
      </trkpt>
      <trkpt lat="42.22723" lon="1.71593">
        <ele>1491.37</ele>
        <time>2024-11-02T06:40:43Z</time>
      </trkpt>
      <trkpt lat="42.22724" lon="1.71589">
        <ele>1494.46</ele>
        <time>2024-11-02T06:40:55Z</time>
      </trkpt>
      <trkpt lat="42.22734" lon="1.71583">
        <ele>1496.09</ele>
        <time>2024-11-02T06:41:12Z</time>
      </trkpt>
      <trkpt lat="42.22739" lon="1.71579">
        <ele>1498.69</ele>
        <time>2024-11-02T06:41:30Z</time>
      </trkpt>
      <trkpt lat="42.22741" lon="1.71576">
        <ele>1500.09</ele>
        <time>2024-11-02T06:41:45Z</time>
      </trkpt>
      <trkpt lat="42.22744" lon="1.71575">
        <ele>1501.87</ele>
        <time>2024-11-02T06:41:59Z</time>
      </trkpt>
      <trkpt lat="42.22748" lon="1.71573">
        <ele>1505.16</ele>
        <time>2024-11-02T06:42:14Z</time>
      </trkpt>
      <trkpt lat="42.22755" lon="1.71569">
        <ele>1506.9</ele>
        <time>2024-11-02T06:42:26Z</time>
      </trkpt>
      <trkpt lat="42.22767" lon="1.71575">
        <ele>1507.99</ele>
        <time>2024-11-02T06:42:42Z</time>
      </trkpt>
      <trkpt lat="42.22777" lon="1.71583">
        <ele>1509.23</ele>
        <time>2024-11-02T06:42:59Z</time>
      </trkpt>
      <trkpt lat="42.22778" lon="1.71584">
        <ele>1509.48</ele>
        <time>2024-11-02T06:43:21Z</time>
      </trkpt>
      <trkpt lat="42.22778" lon="1.71584">
        <ele>1509.2</ele>
        <time>2024-11-02T06:43:46Z</time>
      </trkpt>
      <trkpt lat="42.22779" lon="1.71586">
        <ele>1509.31</ele>
        <time>2024-11-02T06:44:00Z</time>
      </trkpt>
      <trkpt lat="42.22785" lon="1.71588">
        <ele>1509.83</ele>
        <time>2024-11-02T06:44:06Z</time>
      </trkpt>
      <trkpt lat="42.22801" lon="1.71597">
        <ele>1511.75</ele>
        <time>2024-11-02T06:44:22Z</time>
      </trkpt>
      <trkpt lat="42.22805" lon="1.71597">
        <ele>1512.42</ele>
        <time>2024-11-02T06:44:26Z</time>
      </trkpt>
      <trkpt lat="42.22807" lon="1.71598">
        <ele>1512.91</ele>
        <time>2024-11-02T06:44:28Z</time>
      </trkpt>
      <trkpt lat="42.22809" lon="1.71598">
        <ele>1512.8</ele>
        <time>2024-11-02T06:44:30Z</time>
      </trkpt>
      <trkpt lat="42.22815" lon="1.71589">
        <ele>1513.69</ele>
        <time>2024-11-02T06:44:46Z</time>
      </trkpt>
      <trkpt lat="42.22816" lon="1.71588">
        <ele>1515.41</ele>
        <time>2024-11-02T06:45:06Z</time>
      </trkpt>
      <trkpt lat="42.22818" lon="1.71587">
        <ele>1516.3</ele>
        <time>2024-11-02T06:45:25Z</time>
      </trkpt>
      <trkpt lat="42.22818" lon="1.71585">
        <ele>1518.75</ele>
        <time>2024-11-02T06:45:43Z</time>
      </trkpt>
      <trkpt lat="42.22824" lon="1.71587">
        <ele>1520.25</ele>
        <time>2024-11-02T06:45:58Z</time>
      </trkpt>
      <trkpt lat="42.22827" lon="1.71586">
        <ele>1519.95</ele>
        <time>2024-11-02T06:46:13Z</time>
      </trkpt>
      <trkpt lat="42.2283" lon="1.71582">
        <ele>1520.94</ele>
        <time>2024-11-02T06:46:27Z</time>
      </trkpt>
      <trkpt lat="42.22832" lon="1.71582">
        <ele>1520.82</ele>
        <time>2024-11-02T06:46:46Z</time>
      </trkpt>
      <trkpt lat="42.22835" lon="1.71584">
        <ele>1522.3</ele>
        <time>2024-11-02T06:47:04Z</time>
      </trkpt>
      <trkpt lat="42.22839" lon="1.7159">
        <ele>1525.36</ele>
        <time>2024-11-02T06:47:17Z</time>
      </trkpt>
      <trkpt lat="42.22844" lon="1.71599">
        <ele>1526.18</ele>
        <time>2024-11-02T06:47:32Z</time>
      </trkpt>
      <trkpt lat="42.22852" lon="1.7161">
        <ele>1525.96</ele>
        <time>2024-11-02T06:47:49Z</time>
      </trkpt>
      <trkpt lat="42.22853" lon="1.71612">
        <ele>1525.62</ele>
        <time>2024-11-02T06:47:52Z</time>
      </trkpt>
      <trkpt lat="42.22856" lon="1.71617">
        <ele>1524.43</ele>
        <time>2024-11-02T06:47:56Z</time>
      </trkpt>
      <trkpt lat="42.22862" lon="1.71633">
        <ele>1523.05</ele>
        <time>2024-11-02T06:48:08Z</time>
      </trkpt>
      <trkpt lat="42.2287" lon="1.71627">
        <ele>1524.93</ele>
        <time>2024-11-02T06:48:22Z</time>
      </trkpt>
      <trkpt lat="42.22874" lon="1.71614">
        <ele>1528.21</ele>
        <time>2024-11-02T06:48:39Z</time>
      </trkpt>
      <trkpt lat="42.22872" lon="1.71595">
        <ele>1530.78</ele>
        <time>2024-11-02T06:48:56Z</time>
      </trkpt>
      <trkpt lat="42.22871" lon="1.71577">
        <ele>1533.38</ele>
        <time>2024-11-02T06:49:12Z</time>
      </trkpt>
      <trkpt lat="42.22869" lon="1.71557">
        <ele>1535.1</ele>
        <time>2024-11-02T06:49:29Z</time>
      </trkpt>
      <trkpt lat="42.22862" lon="1.71533">
        <ele>1536.36</ele>
        <time>2024-11-02T06:49:47Z</time>
      </trkpt>
      <trkpt lat="42.22861" lon="1.71531">
        <ele>1536.92</ele>
        <time>2024-11-02T06:49:49Z</time>
      </trkpt>
      <trkpt lat="42.22857" lon="1.7151">
        <ele>1537.59</ele>
        <time>2024-11-02T06:50:05Z</time>
      </trkpt>
      <trkpt lat="42.22853" lon="1.7149">
        <ele>1539.5</ele>
        <time>2024-11-02T06:50:24Z</time>
      </trkpt>
      <trkpt lat="42.22856" lon="1.71477">
        <ele>1540.82</ele>
        <time>2024-11-02T06:50:41Z</time>
      </trkpt>
      <trkpt lat="42.22858" lon="1.71466">
        <ele>1541.79</ele>
        <time>2024-11-02T06:50:58Z</time>
      </trkpt>
      <trkpt lat="42.22858" lon="1.71458">
        <ele>1544.48</ele>
        <time>2024-11-02T06:51:15Z</time>
      </trkpt>
      <trkpt lat="42.22858" lon="1.7145">
        <ele>1547.73</ele>
        <time>2024-11-02T06:51:33Z</time>
      </trkpt>
      <trkpt lat="42.22861" lon="1.7144">
        <ele>1550.63</ele>
        <time>2024-11-02T06:51:51Z</time>
      </trkpt>
      <trkpt lat="42.22862" lon="1.71437">
        <ele>1551.77</ele>
        <time>2024-11-02T06:51:56Z</time>
      </trkpt>
      <trkpt lat="42.2287" lon="1.71428">
        <ele>1552.97</ele>
        <time>2024-11-02T06:52:12Z</time>
      </trkpt>
      <trkpt lat="42.22876" lon="1.71419">
        <ele>1556.33</ele>
        <time>2024-11-02T06:52:30Z</time>
      </trkpt>
      <trkpt lat="42.22885" lon="1.7141">
        <ele>1558.41</ele>
        <time>2024-11-02T06:52:50Z</time>
      </trkpt>
      <trkpt lat="42.22895" lon="1.714">
        <ele>1561.22</ele>
        <time>2024-11-02T06:53:10Z</time>
      </trkpt>
      <trkpt lat="42.22899" lon="1.71391">
        <ele>1564.09</ele>
        <time>2024-11-02T06:53:31Z</time>
      </trkpt>
      <trkpt lat="42.22901" lon="1.71382">
        <ele>1567.18</ele>
        <time>2024-11-02T06:53:49Z</time>
      </trkpt>
      <trkpt lat="42.22903" lon="1.71373">
        <ele>1570.31</ele>
        <time>2024-11-02T06:54:11Z</time>
      </trkpt>
      <trkpt lat="42.22905" lon="1.71365">
        <ele>1573.41</ele>
        <time>2024-11-02T06:54:30Z</time>
      </trkpt>
      <trkpt lat="42.22908" lon="1.71359">
        <ele>1576.42</ele>
        <time>2024-11-02T06:54:50Z</time>
      </trkpt>
      <trkpt lat="42.22912" lon="1.71355">
        <ele>1579.47</ele>
        <time>2024-11-02T06:55:09Z</time>
      </trkpt>
      <trkpt lat="42.22918" lon="1.71352">
        <ele>1581.94</ele>
        <time>2024-11-02T06:55:28Z</time>
      </trkpt>
      <trkpt lat="42.2292" lon="1.71341">
        <ele>1584.81</ele>
        <time>2024-11-02T06:55:47Z</time>
      </trkpt>
      <trkpt lat="42.22922" lon="1.71333">
        <ele>1586.78</ele>
        <time>2024-11-02T06:56:03Z</time>
      </trkpt>
      <trkpt lat="42.22923" lon="1.71324">
        <ele>1589.94</ele>
        <time>2024-11-02T06:56:19Z</time>
      </trkpt>
      <trkpt lat="42.22927" lon="1.71315">
        <ele>1591.52</ele>
        <time>2024-11-02T06:56:39Z</time>
      </trkpt>
      <trkpt lat="42.22931" lon="1.71312">
        <ele>1594.7</ele>
        <time>2024-11-02T06:56:54Z</time>
      </trkpt>
      <trkpt lat="42.22935" lon="1.71304">
        <ele>1597.72</ele>
        <time>2024-11-02T06:57:13Z</time>
      </trkpt>
      <trkpt lat="42.22936" lon="1.71294">
        <ele>1600.54</ele>
        <time>2024-11-02T06:57:31Z</time>
      </trkpt>
      <trkpt lat="42.22937" lon="1.71285">
        <ele>1603.59</ele>
        <time>2024-11-02T06:57:50Z</time>
      </trkpt>
      <trkpt lat="42.22937" lon="1.71276">
        <ele>1606.99</ele>
        <time>2024-11-02T06:58:11Z</time>
      </trkpt>
      <trkpt lat="42.22937" lon="1.71267">
        <ele>1609.92</ele>
        <time>2024-11-02T06:58:32Z</time>
      </trkpt>
      <trkpt lat="42.22941" lon="1.71263">
        <ele>1612.43</ele>
        <time>2024-11-02T06:58:52Z</time>
      </trkpt>
      <trkpt lat="42.22942" lon="1.71257">
        <ele>1615.6</ele>
        <time>2024-11-02T06:59:08Z</time>
      </trkpt>
      <trkpt lat="42.22946" lon="1.71251">
        <ele>1617.69</ele>
        <time>2024-11-02T06:59:28Z</time>
      </trkpt>
      <trkpt lat="42.22949" lon="1.71246">
        <ele>1620.34</ele>
        <time>2024-11-02T06:59:44Z</time>
      </trkpt>
      <trkpt lat="42.22951" lon="1.71237">
        <ele>1623.59</ele>
        <time>2024-11-02T07:00:02Z</time>
      </trkpt>
      <trkpt lat="42.22954" lon="1.71231">
        <ele>1626.13</ele>
        <time>2024-11-02T07:00:20Z</time>
      </trkpt>
      <trkpt lat="42.22958" lon="1.71225">
        <ele>1629.25</ele>
        <time>2024-11-02T07:00:39Z</time>
      </trkpt>
      <trkpt lat="42.22965" lon="1.71218">
        <ele>1632.67</ele>
        <time>2024-11-02T07:00:59Z</time>
      </trkpt>
      <trkpt lat="42.22967" lon="1.71214">
        <ele>1635.47</ele>
        <time>2024-11-02T07:01:19Z</time>
      </trkpt>
      <trkpt lat="42.22969" lon="1.7121">
        <ele>1638.21</ele>
        <time>2024-11-02T07:01:36Z</time>
      </trkpt>
      <trkpt lat="42.22969" lon="1.712">
        <ele>1640.63</ele>
        <time>2024-11-02T07:01:56Z</time>
      </trkpt>
      <trkpt lat="42.22969" lon="1.71194">
        <ele>1643.66</ele>
        <time>2024-11-02T07:02:11Z</time>
      </trkpt>
      <trkpt lat="42.22968" lon="1.71185">
        <ele>1645.51</ele>
        <time>2024-11-02T07:02:27Z</time>
      </trkpt>
      <trkpt lat="42.2297" lon="1.71179">
        <ele>1648.59</ele>
        <time>2024-11-02T07:02:46Z</time>
      </trkpt>
      <trkpt lat="42.22969" lon="1.71177">
        <ele>1650.85</ele>
        <time>2024-11-02T07:03:03Z</time>
      </trkpt>
      <trkpt lat="42.22974" lon="1.71173">
        <ele>1652.69</ele>
        <time>2024-11-02T07:03:25Z</time>
      </trkpt>
      <trkpt lat="42.22977" lon="1.7117">
        <ele>1654.09</ele>
        <time>2024-11-02T07:03:44Z</time>
      </trkpt>
      <trkpt lat="42.22978" lon="1.71166">
        <ele>1657.26</ele>
        <time>2024-11-02T07:04:00Z</time>
      </trkpt>
      <trkpt lat="42.22982" lon="1.71161">
        <ele>1660.99</ele>
        <time>2024-11-02T07:04:20Z</time>
      </trkpt>
      <trkpt lat="42.22984" lon="1.71158">
        <ele>1663.4</ele>
        <time>2024-11-02T07:04:40Z</time>
      </trkpt>
      <trkpt lat="42.22984" lon="1.7115">
        <ele>1665.37</ele>
        <time>2024-11-02T07:04:57Z</time>
      </trkpt>
      <trkpt lat="42.2299" lon="1.71152">
        <ele>1668.16</ele>
        <time>2024-11-02T07:05:18Z</time>
      </trkpt>
      <trkpt lat="42.22993" lon="1.71151">
        <ele>1671.34</ele>
        <time>2024-11-02T07:05:36Z</time>
      </trkpt>
      <trkpt lat="42.22997" lon="1.71151">
        <ele>1673.68</ele>
        <time>2024-11-02T07:05:53Z</time>
      </trkpt>
      <trkpt lat="42.22997" lon="1.71144">
        <ele>1675.98</ele>
        <time>2024-11-02T07:06:12Z</time>
      </trkpt>
      <trkpt lat="42.22997" lon="1.71139">
        <ele>1677.51</ele>
        <time>2024-11-02T07:06:19Z</time>
      </trkpt>
      <trkpt lat="42.22997" lon="1.7113">
        <ele>1679.73</ele>
        <time>2024-11-02T07:06:37Z</time>
      </trkpt>
      <trkpt lat="42.23001" lon="1.71126">
        <ele>1682.84</ele>
        <time>2024-11-02T07:06:55Z</time>
      </trkpt>
      <trkpt lat="42.23004" lon="1.71123">
        <ele>1685</ele>
        <time>2024-11-02T07:07:15Z</time>
      </trkpt>
      <trkpt lat="42.23011" lon="1.71123">
        <ele>1688.35</ele>
        <time>2024-11-02T07:07:31Z</time>
      </trkpt>
      <trkpt lat="42.23016" lon="1.71124">
        <ele>1689.81</ele>
        <time>2024-11-02T07:07:49Z</time>
      </trkpt>
      <trkpt lat="42.23017" lon="1.71125">
        <ele>1689.65</ele>
        <time>2024-11-02T07:08:07Z</time>
      </trkpt>
      <trkpt lat="42.23017" lon="1.71127">
        <ele>1689.99</ele>
        <time>2024-11-02T07:08:28Z</time>
      </trkpt>
      <trkpt lat="42.23016" lon="1.71128">
        <ele>1689.57</ele>
        <time>2024-11-02T07:08:50Z</time>
      </trkpt>
      <trkpt lat="42.23015" lon="1.71128">
        <ele>1689.46</ele>
        <time>2024-11-02T07:09:10Z</time>
      </trkpt>
      <trkpt lat="42.23015" lon="1.71128">
        <ele>1690.45</ele>
        <time>2024-11-02T07:09:32Z</time>
      </trkpt>
      <trkpt lat="42.23016" lon="1.71128">
        <ele>1690.56</ele>
        <time>2024-11-02T07:09:52Z</time>
      </trkpt>
      <trkpt lat="42.23016" lon="1.71128">
        <ele>1690.25</ele>
        <time>2024-11-02T07:10:11Z</time>
      </trkpt>
      <trkpt lat="42.23016" lon="1.71129">
        <ele>1692.24</ele>
        <time>2024-11-02T07:10:31Z</time>
      </trkpt>
      <trkpt lat="42.23016" lon="1.71128">
        <ele>1692.19</ele>
        <time>2024-11-02T07:10:51Z</time>
      </trkpt>
      <trkpt lat="42.23016" lon="1.71129">
        <ele>1692.35</ele>
        <time>2024-11-02T07:11:29Z</time>
      </trkpt>
      <trkpt lat="42.23016" lon="1.7113">
        <ele>1692.45</ele>
        <time>2024-11-02T07:11:50Z</time>
      </trkpt>
      <trkpt lat="42.23016" lon="1.7113">
        <ele>1692.54</ele>
        <time>2024-11-02T07:12:07Z</time>
      </trkpt>
      <trkpt lat="42.23013" lon="1.71129">
        <ele>1692.83</ele>
        <time>2024-11-02T07:12:26Z</time>
      </trkpt>
      <trkpt lat="42.23013" lon="1.71128">
        <ele>1692.67</ele>
        <time>2024-11-02T07:12:41Z</time>
      </trkpt>
      <trkpt lat="42.23014" lon="1.71127">
        <ele>1693.34</ele>
        <time>2024-11-02T07:12:59Z</time>
      </trkpt>
      <trkpt lat="42.23016" lon="1.71131">
        <ele>1693.26</ele>
        <time>2024-11-02T07:13:18Z</time>
      </trkpt>
      <trkpt lat="42.23015" lon="1.71128">
        <ele>1693.46</ele>
        <time>2024-11-02T07:13:35Z</time>
      </trkpt>
      <trkpt lat="42.23011" lon="1.71123">
        <ele>1693.95</ele>
        <time>2024-11-02T07:13:56Z</time>
      </trkpt>
      <trkpt lat="42.2301" lon="1.71121">
        <ele>1693.89</ele>
        <time>2024-11-02T07:14:14Z</time>
      </trkpt>
      <trkpt lat="42.23011" lon="1.71122">
        <ele>1694.52</ele>
        <time>2024-11-02T07:14:32Z</time>
      </trkpt>
      <trkpt lat="42.23012" lon="1.71124">
        <ele>1694.86</ele>
        <time>2024-11-02T07:14:48Z</time>
      </trkpt>
      <trkpt lat="42.23012" lon="1.71125">
        <ele>1694.77</ele>
        <time>2024-11-02T07:15:05Z</time>
      </trkpt>
      <trkpt lat="42.23013" lon="1.71124">
        <ele>1694.6</ele>
        <time>2024-11-02T07:15:25Z</time>
      </trkpt>
      <trkpt lat="42.23019" lon="1.71115">
        <ele>1697.61</ele>
        <time>2024-11-02T07:15:42Z</time>
      </trkpt>
      <trkpt lat="42.23025" lon="1.71116">
        <ele>1700.14</ele>
        <time>2024-11-02T07:16:00Z</time>
      </trkpt>
      <trkpt lat="42.23032" lon="1.71112">
        <ele>1703.21</ele>
        <time>2024-11-02T07:16:20Z</time>
      </trkpt>
      <trkpt lat="42.23037" lon="1.7111">
        <ele>1706.37</ele>
        <time>2024-11-02T07:16:41Z</time>
      </trkpt>
      <trkpt lat="42.23043" lon="1.71107">
        <ele>1709.47</ele>
        <time>2024-11-02T07:17:01Z</time>
      </trkpt>
      <trkpt lat="42.23043" lon="1.71102">
        <ele>1711.35</ele>
        <time>2024-11-02T07:17:20Z</time>
      </trkpt>
      <trkpt lat="42.23046" lon="1.71102">
        <ele>1711.07</ele>
        <time>2024-11-02T07:17:46Z</time>
      </trkpt>
      <trkpt lat="42.23051" lon="1.71104">
        <ele>1714.31</ele>
        <time>2024-11-02T07:18:03Z</time>
      </trkpt>
      <trkpt lat="42.2305" lon="1.71097">
        <ele>1716.04</ele>
        <time>2024-11-02T07:18:20Z</time>
      </trkpt>
      <trkpt lat="42.23055" lon="1.71098">
        <ele>1719.05</ele>
        <time>2024-11-02T07:18:37Z</time>
      </trkpt>
      <trkpt lat="42.2306" lon="1.711">
        <ele>1721.23</ele>
        <time>2024-11-02T07:18:57Z</time>
      </trkpt>
      <trkpt lat="42.23064" lon="1.71104">
        <ele>1723.38</ele>
        <time>2024-11-02T07:19:15Z</time>
      </trkpt>
      <trkpt lat="42.23064" lon="1.71105">
        <ele>1724</ele>
        <time>2024-11-02T07:19:36Z</time>
      </trkpt>
      <trkpt lat="42.23065" lon="1.71106">
        <ele>1724.63</ele>
        <time>2024-11-02T07:19:56Z</time>
      </trkpt>
      <trkpt lat="42.23066" lon="1.71104">
        <ele>1726.05</ele>
        <time>2024-11-02T07:20:17Z</time>
      </trkpt>
      <trkpt lat="42.23067" lon="1.71104">
        <ele>1727.39</ele>
        <time>2024-11-02T07:20:40Z</time>
      </trkpt>
      <trkpt lat="42.23071" lon="1.71105">
        <ele>1727.85</ele>
        <time>2024-11-02T07:21:05Z</time>
      </trkpt>
      <trkpt lat="42.23072" lon="1.71102">
        <ele>1729.79</ele>
        <time>2024-11-02T07:21:26Z</time>
      </trkpt>
      <trkpt lat="42.23076" lon="1.71106">
        <ele>1731.62</ele>
        <time>2024-11-02T07:21:48Z</time>
      </trkpt>
      <trkpt lat="42.2308" lon="1.71105">
        <ele>1733.66</ele>
        <time>2024-11-02T07:22:05Z</time>
      </trkpt>
      <trkpt lat="42.23084" lon="1.71105">
        <ele>1734.5</ele>
        <time>2024-11-02T07:22:26Z</time>
      </trkpt>
      <trkpt lat="42.23083" lon="1.71101">
        <ele>1734.41</ele>
        <time>2024-11-02T07:22:43Z</time>
      </trkpt>
      <trkpt lat="42.23082" lon="1.711">
        <ele>1736.33</ele>
        <time>2024-11-02T07:23:03Z</time>
      </trkpt>
      <trkpt lat="42.23084" lon="1.71099">
        <ele>1737.38</ele>
        <time>2024-11-02T07:23:22Z</time>
      </trkpt>
      <trkpt lat="42.23086" lon="1.71098">
        <ele>1738.53</ele>
        <time>2024-11-02T07:23:43Z</time>
      </trkpt>
      <trkpt lat="42.23088" lon="1.71098">
        <ele>1740.46</ele>
        <time>2024-11-02T07:24:01Z</time>
      </trkpt>
      <trkpt lat="42.23091" lon="1.71097">
        <ele>1742</ele>
        <time>2024-11-02T07:24:20Z</time>
      </trkpt>
      <trkpt lat="42.23095" lon="1.71097">
        <ele>1743.33</ele>
        <time>2024-11-02T07:24:39Z</time>
      </trkpt>
      <trkpt lat="42.23096" lon="1.71101">
        <ele>1742.7</ele>
        <time>2024-11-02T07:24:57Z</time>
      </trkpt>
      <trkpt lat="42.23097" lon="1.71103">
        <ele>1742.58</ele>
        <time>2024-11-02T07:25:15Z</time>
      </trkpt>
      <trkpt lat="42.23097" lon="1.71103">
        <ele>1742.21</ele>
        <time>2024-11-02T07:25:36Z</time>
      </trkpt>
      <trkpt lat="42.23097" lon="1.71104">
        <ele>1742.66</ele>
        <time>2024-11-02T07:26:00Z</time>
      </trkpt>
      <trkpt lat="42.23097" lon="1.71102">
        <ele>1742.53</ele>
        <time>2024-11-02T07:26:23Z</time>
      </trkpt>
      <trkpt lat="42.23097" lon="1.71104">
        <ele>1742.01</ele>
        <time>2024-11-02T07:26:41Z</time>
      </trkpt>
      <trkpt lat="42.23097" lon="1.71104">
        <ele>1741.74</ele>
        <time>2024-11-02T07:26:58Z</time>
      </trkpt>
      <trkpt lat="42.23096" lon="1.71104">
        <ele>1741.84</ele>
        <time>2024-11-02T07:27:15Z</time>
      </trkpt>
      <trkpt lat="42.23096" lon="1.71104">
        <ele>1741.42</ele>
        <time>2024-11-02T07:27:31Z</time>
      </trkpt>
      <trkpt lat="42.23096" lon="1.71103">
        <ele>1741.88</ele>
        <time>2024-11-02T07:27:47Z</time>
      </trkpt>
      <trkpt lat="42.23094" lon="1.711">
        <ele>1741.8</ele>
        <time>2024-11-02T07:28:02Z</time>
      </trkpt>
      <trkpt lat="42.2309" lon="1.71094">
        <ele>1741.63</ele>
        <time>2024-11-02T07:28:24Z</time>
      </trkpt>
      <trkpt lat="42.23088" lon="1.71089">
        <ele>1742.57</ele>
        <time>2024-11-02T07:28:46Z</time>
      </trkpt>
      <trkpt lat="42.23086" lon="1.71086">
        <ele>1742.46</ele>
        <time>2024-11-02T07:29:06Z</time>
      </trkpt>
      <trkpt lat="42.23088" lon="1.71091">
        <ele>1741.79</ele>
        <time>2024-11-02T07:29:25Z</time>
      </trkpt>
      <trkpt lat="42.23087" lon="1.71088">
        <ele>1742.53</ele>
        <time>2024-11-02T07:29:42Z</time>
      </trkpt>
      <trkpt lat="42.23088" lon="1.71091">
        <ele>1742.84</ele>
        <time>2024-11-02T07:30:02Z</time>
      </trkpt>
      <trkpt lat="42.2309" lon="1.71095">
        <ele>1743.03</ele>
        <time>2024-11-02T07:30:25Z</time>
      </trkpt>
      <trkpt lat="42.23086" lon="1.71094">
        <ele>1743.07</ele>
        <time>2024-11-02T07:30:39Z</time>
      </trkpt>
      <trkpt lat="42.23087" lon="1.71095">
        <ele>1742.71</ele>
        <time>2024-11-02T07:30:57Z</time>
      </trkpt>
      <trkpt lat="42.23087" lon="1.71095">
        <ele>1743.01</ele>
        <time>2024-11-02T07:31:15Z</time>
      </trkpt>
      <trkpt lat="42.23087" lon="1.71095">
        <ele>1742.96</ele>
        <time>2024-11-02T07:31:35Z</time>
      </trkpt>
      <trkpt lat="42.23086" lon="1.71093">
        <ele>1743.04</ele>
        <time>2024-11-02T07:31:52Z</time>
      </trkpt>
      <trkpt lat="42.23083" lon="1.71088">
        <ele>1743.63</ele>
        <time>2024-11-02T07:32:27Z</time>
      </trkpt>
      <trkpt lat="42.23085" lon="1.71091">
        <ele>1744.13</ele>
        <time>2024-11-02T07:33:00Z</time>
      </trkpt>
      <trkpt lat="42.23083" lon="1.71091">
        <ele>1744.12</ele>
        <time>2024-11-02T07:33:32Z</time>
      </trkpt>
      <trkpt lat="42.23083" lon="1.71086">
        <ele>1744.49</ele>
        <time>2024-11-02T07:33:59Z</time>
      </trkpt>
      <trkpt lat="42.23084" lon="1.71089">
        <ele>1744.85</ele>
        <time>2024-11-02T07:34:19Z</time>
      </trkpt>
      <trkpt lat="42.23084" lon="1.7109">
        <ele>1745.37</ele>
        <time>2024-11-02T07:34:41Z</time>
      </trkpt>
      <trkpt lat="42.23082" lon="1.71089">
        <ele>1745.34</ele>
        <time>2024-11-02T07:35:03Z</time>
      </trkpt>
      <trkpt lat="42.23085" lon="1.71088">
        <ele>1748.35</ele>
        <time>2024-11-02T07:35:23Z</time>
      </trkpt>
      <trkpt lat="42.23087" lon="1.71091">
        <ele>1748.18</ele>
        <time>2024-11-02T07:35:53Z</time>
      </trkpt>
      <trkpt lat="42.23087" lon="1.71093">
        <ele>1747.92</ele>
        <time>2024-11-02T07:36:22Z</time>
      </trkpt>
      <trkpt lat="42.23087" lon="1.71095">
        <ele>1748.76</ele>
        <time>2024-11-02T07:36:44Z</time>
      </trkpt>
      <trkpt lat="42.23087" lon="1.71094">
        <ele>1748.24</ele>
        <time>2024-11-02T07:37:08Z</time>
      </trkpt>
      <trkpt lat="42.23087" lon="1.71093">
        <ele>1748.7</ele>
        <time>2024-11-02T07:37:37Z</time>
      </trkpt>
      <trkpt lat="42.23088" lon="1.71093">
        <ele>1747.71</ele>
        <time>2024-11-02T07:37:57Z</time>
      </trkpt>
      <trkpt lat="42.23087" lon="1.71094">
        <ele>1748.12</ele>
        <time>2024-11-02T07:38:18Z</time>
      </trkpt>
      <trkpt lat="42.23084" lon="1.71091">
        <ele>1747.94</ele>
        <time>2024-11-02T07:38:40Z</time>
      </trkpt>
      <trkpt lat="42.23083" lon="1.71092">
        <ele>1748.28</ele>
        <time>2024-11-02T07:38:59Z</time>
      </trkpt>
      <trkpt lat="42.23081" lon="1.7109">
        <ele>1748.37</ele>
        <time>2024-11-02T07:39:17Z</time>
      </trkpt>
      <trkpt lat="42.23079" lon="1.71087">
        <ele>1748.21</ele>
        <time>2024-11-02T07:39:43Z</time>
      </trkpt>
      <trkpt lat="42.23078" lon="1.71086">
        <ele>1748.44</ele>
        <time>2024-11-02T07:39:59Z</time>
      </trkpt>
      <trkpt lat="42.23078" lon="1.71086">
        <ele>1748.62</ele>
        <time>2024-11-02T07:40:31Z</time>
      </trkpt>
      <trkpt lat="42.23079" lon="1.71085">
        <ele>1748.86</ele>
        <time>2024-11-02T07:41:00Z</time>
      </trkpt>
      <trkpt lat="42.2308" lon="1.71088">
        <ele>1748.43</ele>
        <time>2024-11-02T07:41:34Z</time>
      </trkpt>
      <trkpt lat="42.23081" lon="1.71087">
        <ele>1749.08</ele>
        <time>2024-11-02T07:42:05Z</time>
      </trkpt>
      <trkpt lat="42.2308" lon="1.71086">
        <ele>1748.7</ele>
        <time>2024-11-02T07:42:32Z</time>
      </trkpt>
      <trkpt lat="42.23081" lon="1.71086">
        <ele>1749.66</ele>
        <time>2024-11-02T07:43:05Z</time>
      </trkpt>
      <trkpt lat="42.23081" lon="1.71084">
        <ele>1751.6</ele>
        <time>2024-11-02T07:43:27Z</time>
      </trkpt>
      <trkpt lat="42.23083" lon="1.71083">
        <ele>1753.13</ele>
        <time>2024-11-02T07:43:51Z</time>
      </trkpt>
      <trkpt lat="42.23084" lon="1.71083">
        <ele>1755.1</ele>
        <time>2024-11-02T07:44:22Z</time>
      </trkpt>
      <trkpt lat="42.23086" lon="1.71081">
        <ele>1755.63</ele>
        <time>2024-11-02T07:44:45Z</time>
      </trkpt>
      <trkpt lat="42.23089" lon="1.71083">
        <ele>1755.26</ele>
        <time>2024-11-02T07:45:23Z</time>
      </trkpt>
      <trkpt lat="42.23087" lon="1.71083">
        <ele>1756.11</ele>
        <time>2024-11-02T07:46:08Z</time>
      </trkpt>
      <trkpt lat="42.23088" lon="1.71083">
        <ele>1757.53</ele>
        <time>2024-11-02T07:46:40Z</time>
      </trkpt>
      <trkpt lat="42.23089" lon="1.7108">
        <ele>1759.01</ele>
        <time>2024-11-02T07:47:04Z</time>
      </trkpt>
      <trkpt lat="42.23092" lon="1.71079">
        <ele>1761.95</ele>
        <time>2024-11-02T07:47:26Z</time>
      </trkpt>
      <trkpt lat="42.23094" lon="1.71077">
        <ele>1762.98</ele>
        <time>2024-11-02T07:47:50Z</time>
      </trkpt>
      <trkpt lat="42.23096" lon="1.71074">
        <ele>1765.37</ele>
        <time>2024-11-02T07:48:12Z</time>
      </trkpt>
      <trkpt lat="42.23098" lon="1.71074">
        <ele>1767.19</ele>
        <time>2024-11-02T07:48:32Z</time>
      </trkpt>
      <trkpt lat="42.231" lon="1.71074">
        <ele>1768.91</ele>
        <time>2024-11-02T07:48:52Z</time>
      </trkpt>
      <trkpt lat="42.23101" lon="1.71077">
        <ele>1770.85</ele>
        <time>2024-11-02T07:49:15Z</time>
      </trkpt>
      <trkpt lat="42.23101" lon="1.71077">
        <ele>1773.3</ele>
        <time>2024-11-02T07:49:40Z</time>
      </trkpt>
      <trkpt lat="42.23103" lon="1.71076">
        <ele>1774.69</ele>
        <time>2024-11-02T07:50:01Z</time>
      </trkpt>
      <trkpt lat="42.23106" lon="1.71074">
        <ele>1776.08</ele>
        <time>2024-11-02T07:50:25Z</time>
      </trkpt>
      <trkpt lat="42.23107" lon="1.71075">
        <ele>1777.87</ele>
        <time>2024-11-02T07:50:45Z</time>
      </trkpt>
      <trkpt lat="42.23107" lon="1.71075">
        <ele>1778.98</ele>
        <time>2024-11-02T07:50:55Z</time>
      </trkpt>
      <trkpt lat="42.23106" lon="1.71073">
        <ele>1779.44</ele>
        <time>2024-11-02T07:51:14Z</time>
      </trkpt>
      <trkpt lat="42.23106" lon="1.71071">
        <ele>1780.03</ele>
        <time>2024-11-02T07:51:35Z</time>
      </trkpt>
      <trkpt lat="42.23108" lon="1.7107">
        <ele>1783.04</ele>
        <time>2024-11-02T07:51:51Z</time>
      </trkpt>
      <trkpt lat="42.2311" lon="1.71069">
        <ele>1783.22</ele>
        <time>2024-11-02T07:52:06Z</time>
      </trkpt>
      <trkpt lat="42.23109" lon="1.71068">
        <ele>1784.3</ele>
        <time>2024-11-02T07:52:26Z</time>
      </trkpt>
      <trkpt lat="42.2311" lon="1.71067">
        <ele>1786.43</ele>
        <time>2024-11-02T07:52:44Z</time>
      </trkpt>
      <trkpt lat="42.23114" lon="1.71066">
        <ele>1788.45</ele>
        <time>2024-11-02T07:53:04Z</time>
      </trkpt>
      <trkpt lat="42.23114" lon="1.71064">
        <ele>1789.19</ele>
        <time>2024-11-02T07:53:21Z</time>
      </trkpt>
      <trkpt lat="42.23116" lon="1.71061">
        <ele>1792.83</ele>
        <time>2024-11-02T07:53:37Z</time>
      </trkpt>
      <trkpt lat="42.23116" lon="1.71061">
        <ele>1792.87</ele>
        <time>2024-11-02T07:53:38Z</time>
      </trkpt>
      <trkpt lat="42.23118" lon="1.71063">
        <ele>1793.98</ele>
        <time>2024-11-02T07:53:58Z</time>
      </trkpt>
      <trkpt lat="42.23118" lon="1.71063">
        <ele>1795.03</ele>
        <time>2024-11-02T07:54:20Z</time>
      </trkpt>
      <trkpt lat="42.23119" lon="1.71064">
        <ele>1794.99</ele>
        <time>2024-11-02T07:54:49Z</time>
      </trkpt>
      <trkpt lat="42.23118" lon="1.71065">
        <ele>1795.02</ele>
        <time>2024-11-02T07:55:17Z</time>
      </trkpt>
      <trkpt lat="42.23116" lon="1.71065">
        <ele>1794.73</ele>
        <time>2024-11-02T07:55:37Z</time>
      </trkpt>
      <trkpt lat="42.23117" lon="1.71065">
        <ele>1796.09</ele>
        <time>2024-11-02T07:56:05Z</time>
      </trkpt>
      <trkpt lat="42.23117" lon="1.71065">
        <ele>1798.5</ele>
        <time>2024-11-02T07:56:28Z</time>
      </trkpt>
      <trkpt lat="42.23119" lon="1.71067">
        <ele>1800.04</ele>
        <time>2024-11-02T07:56:50Z</time>
      </trkpt>
      <trkpt lat="42.23122" lon="1.71065">
        <ele>1801.79</ele>
        <time>2024-11-02T07:57:12Z</time>
      </trkpt>
      <trkpt lat="42.23119" lon="1.71062">
        <ele>1801.95</ele>
        <time>2024-11-02T07:57:36Z</time>
      </trkpt>
      <trkpt lat="42.23121" lon="1.71067">
        <ele>1801.47</ele>
        <time>2024-11-02T07:58:01Z</time>
      </trkpt>
      <trkpt lat="42.23123" lon="1.71071">
        <ele>1801.74</ele>
        <time>2024-11-02T07:58:24Z</time>
      </trkpt>
      <trkpt lat="42.23122" lon="1.71068">
        <ele>1802.12</ele>
        <time>2024-11-02T07:58:48Z</time>
      </trkpt>
      <trkpt lat="42.23123" lon="1.71068">
        <ele>1802.96</ele>
        <time>2024-11-02T07:59:08Z</time>
      </trkpt>
      <trkpt lat="42.23122" lon="1.71067">
        <ele>1801.41</ele>
        <time>2024-11-02T07:59:28Z</time>
      </trkpt>
      <trkpt lat="42.2312" lon="1.71065">
        <ele>1802.06</ele>
        <time>2024-11-02T07:59:50Z</time>
      </trkpt>
      <trkpt lat="42.2312" lon="1.71065">
        <ele>1802.04</ele>
        <time>2024-11-02T08:00:17Z</time>
      </trkpt>
      <trkpt lat="42.2312" lon="1.71065">
        <ele>1802.4</ele>
        <time>2024-11-02T08:00:51Z</time>
      </trkpt>
      <trkpt lat="42.23118" lon="1.71064">
        <ele>1801.97</ele>
        <time>2024-11-02T08:01:14Z</time>
      </trkpt>
      <trkpt lat="42.23116" lon="1.71063">
        <ele>1802.37</ele>
        <time>2024-11-02T08:01:37Z</time>
      </trkpt>
      <trkpt lat="42.23117" lon="1.71062">
        <ele>1803.12</ele>
        <time>2024-11-02T08:02:02Z</time>
      </trkpt>
      <trkpt lat="42.23118" lon="1.71063">
        <ele>1804.34</ele>
        <time>2024-11-02T08:02:18Z</time>
      </trkpt>
      <trkpt lat="42.23119" lon="1.71062">
        <ele>1805.57</ele>
        <time>2024-11-02T08:02:38Z</time>
      </trkpt>
      <trkpt lat="42.23122" lon="1.71063">
        <ele>1807.43</ele>
        <time>2024-11-02T08:03:00Z</time>
      </trkpt>
      <trkpt lat="42.23124" lon="1.71063">
        <ele>1809.11</ele>
        <time>2024-11-02T08:03:20Z</time>
      </trkpt>
      <trkpt lat="42.23125" lon="1.71062">
        <ele>1810.12</ele>
        <time>2024-11-02T08:03:39Z</time>
      </trkpt>
      <trkpt lat="42.23125" lon="1.71064">
        <ele>1810.02</ele>
        <time>2024-11-02T08:04:00Z</time>
      </trkpt>
      <trkpt lat="42.23126" lon="1.71063">
        <ele>1811.97</ele>
        <time>2024-11-02T08:04:23Z</time>
      </trkpt>
      <trkpt lat="42.23127" lon="1.7106">
        <ele>1812.66</ele>
        <time>2024-11-02T08:04:44Z</time>
      </trkpt>
      <trkpt lat="42.23126" lon="1.71059">
        <ele>1812.18</ele>
        <time>2024-11-02T08:05:04Z</time>
      </trkpt>
      <trkpt lat="42.23127" lon="1.71058">
        <ele>1814.98</ele>
        <time>2024-11-02T08:05:28Z</time>
      </trkpt>
      <trkpt lat="42.23127" lon="1.71058">
        <ele>1815.56</ele>
        <time>2024-11-02T08:05:56Z</time>
      </trkpt>
      <trkpt lat="42.23127" lon="1.71059">
        <ele>1815.6</ele>
        <time>2024-11-02T08:06:28Z</time>
      </trkpt>
      <trkpt lat="42.23127" lon="1.71059">
        <ele>1815.41</ele>
        <time>2024-11-02T08:06:56Z</time>
      </trkpt>
      <trkpt lat="42.23127" lon="1.71059">
        <ele>1816.09</ele>
        <time>2024-11-02T08:07:30Z</time>
      </trkpt>
      <trkpt lat="42.23129" lon="1.71058">
        <ele>1817.77</ele>
        <time>2024-11-02T08:07:56Z</time>
      </trkpt>
      <trkpt lat="42.23131" lon="1.71058">
        <ele>1820.06</ele>
        <time>2024-11-02T08:08:14Z</time>
      </trkpt>
      <trkpt lat="42.23133" lon="1.71057">
        <ele>1820.54</ele>
        <time>2024-11-02T08:08:36Z</time>
      </trkpt>
      <trkpt lat="42.23136" lon="1.71059">
        <ele>1823.43</ele>
        <time>2024-11-02T08:08:58Z</time>
      </trkpt>
      <trkpt lat="42.23138" lon="1.71059">
        <ele>1826.54</ele>
        <time>2024-11-02T08:09:15Z</time>
      </trkpt>
      <trkpt lat="42.23141" lon="1.71057">
        <ele>1827.95</ele>
        <time>2024-11-02T08:09:36Z</time>
      </trkpt>
      <trkpt lat="42.23142" lon="1.71055">
        <ele>1829.6</ele>
        <time>2024-11-02T08:09:56Z</time>
      </trkpt>
      <trkpt lat="42.23141" lon="1.71052">
        <ele>1831.22</ele>
        <time>2024-11-02T08:10:18Z</time>
      </trkpt>
      <trkpt lat="42.23143" lon="1.71052">
        <ele>1832.94</ele>
        <time>2024-11-02T08:10:41Z</time>
      </trkpt>
      <trkpt lat="42.23145" lon="1.71053">
        <ele>1833.47</ele>
        <time>2024-11-02T08:11:01Z</time>
      </trkpt>
      <trkpt lat="42.23145" lon="1.71055">
        <ele>1833.7</ele>
        <time>2024-11-02T08:11:22Z</time>
      </trkpt>
      <trkpt lat="42.23146" lon="1.71055">
        <ele>1835.86</ele>
        <time>2024-11-02T08:11:43Z</time>
      </trkpt>
      <trkpt lat="42.23148" lon="1.71057">
        <ele>1837.04</ele>
        <time>2024-11-02T08:12:05Z</time>
      </trkpt>
      <trkpt lat="42.23149" lon="1.71059">
        <ele>1839.35</ele>
        <time>2024-11-02T08:12:25Z</time>
      </trkpt>
      <trkpt lat="42.2315" lon="1.71056">
        <ele>1839.92</ele>
        <time>2024-11-02T08:12:49Z</time>
      </trkpt>
      <trkpt lat="42.23153" lon="1.71053">
        <ele>1841.57</ele>
        <time>2024-11-02T08:13:09Z</time>
      </trkpt>
      <trkpt lat="42.23154" lon="1.71052">
        <ele>1844.13</ele>
        <time>2024-11-02T08:13:29Z</time>
      </trkpt>
      <trkpt lat="42.23152" lon="1.71051">
        <ele>1843.68</ele>
        <time>2024-11-02T08:13:49Z</time>
      </trkpt>
      <trkpt lat="42.23155" lon="1.71053">
        <ele>1845.71</ele>
        <time>2024-11-02T08:14:12Z</time>
      </trkpt>
      <trkpt lat="42.23156" lon="1.71052">
        <ele>1846.41</ele>
        <time>2024-11-02T08:14:35Z</time>
      </trkpt>
      <trkpt lat="42.23157" lon="1.7105">
        <ele>1848.59</ele>
        <time>2024-11-02T08:14:53Z</time>
      </trkpt>
      <trkpt lat="42.23157" lon="1.71048">
        <ele>1851.44</ele>
        <time>2024-11-02T08:15:17Z</time>
      </trkpt>
      <trkpt lat="42.23158" lon="1.71048">
        <ele>1852.09</ele>
        <time>2024-11-02T08:15:39Z</time>
      </trkpt>
      <trkpt lat="42.23157" lon="1.71047">
        <ele>1851.48</ele>
        <time>2024-11-02T08:15:58Z</time>
      </trkpt>
      <trkpt lat="42.23156" lon="1.71046">
        <ele>1851.76</ele>
        <time>2024-11-02T08:16:17Z</time>
      </trkpt>
      <trkpt lat="42.23157" lon="1.71046">
        <ele>1853.03</ele>
        <time>2024-11-02T08:16:20Z</time>
      </trkpt>
      <trkpt lat="42.23158" lon="1.71048">
        <ele>1853.61</ele>
        <time>2024-11-02T08:16:44Z</time>
      </trkpt>
      <trkpt lat="42.2316" lon="1.71047">
        <ele>1855.78</ele>
        <time>2024-11-02T08:17:07Z</time>
      </trkpt>
      <trkpt lat="42.23163" lon="1.71046">
        <ele>1857.41</ele>
        <time>2024-11-02T08:17:24Z</time>
      </trkpt>
      <trkpt lat="42.23166" lon="1.71046">
        <ele>1859.4</ele>
        <time>2024-11-02T08:17:45Z</time>
      </trkpt>
      <trkpt lat="42.23167" lon="1.71048">
        <ele>1861.36</ele>
        <time>2024-11-02T08:18:02Z</time>
      </trkpt>
      <trkpt lat="42.23168" lon="1.71048">
        <ele>1860.04</ele>
        <time>2024-11-02T08:18:30Z</time>
      </trkpt>
      <trkpt lat="42.23166" lon="1.71048">
        <ele>1860.07</ele>
        <time>2024-11-02T08:18:59Z</time>
      </trkpt>
      <trkpt lat="42.23164" lon="1.71049">
        <ele>1860.71</ele>
        <time>2024-11-02T08:19:29Z</time>
      </trkpt>
      <trkpt lat="42.23165" lon="1.71047">
        <ele>1861.26</ele>
        <time>2024-11-02T08:20:03Z</time>
      </trkpt>
      <trkpt lat="42.23165" lon="1.71047">
        <ele>1861.22</ele>
        <time>2024-11-02T08:20:34Z</time>
      </trkpt>
      <trkpt lat="42.23165" lon="1.71048">
        <ele>1861.66</ele>
        <time>2024-11-02T08:20:58Z</time>
      </trkpt>
      <trkpt lat="42.23165" lon="1.71047">
        <ele>1861.64</ele>
        <time>2024-11-02T08:21:34Z</time>
      </trkpt>
      <trkpt lat="42.23167" lon="1.71048">
        <ele>1862.1</ele>
        <time>2024-11-02T08:22:02Z</time>
      </trkpt>
      <trkpt lat="42.23169" lon="1.71048">
        <ele>1865.23</ele>
        <time>2024-11-02T08:22:12Z</time>
      </trkpt>
      <trkpt lat="42.2317" lon="1.71048">
        <ele>1865.98</ele>
        <time>2024-11-02T08:22:17Z</time>
      </trkpt>
      <trkpt lat="42.23171" lon="1.71049">
        <ele>1866.68</ele>
        <time>2024-11-02T08:22:39Z</time>
      </trkpt>
      <trkpt lat="42.23171" lon="1.71048">
        <ele>1866.62</ele>
        <time>2024-11-02T08:22:40Z</time>
      </trkpt>
      <trkpt lat="42.23171" lon="1.71047">
        <ele>1866.73</ele>
        <time>2024-11-02T08:23:15Z</time>
      </trkpt>
      <trkpt lat="42.23172" lon="1.71046">
        <ele>1866.24</ele>
        <time>2024-11-02T08:23:53Z</time>
      </trkpt>
      <trkpt lat="42.23172" lon="1.71045">
        <ele>1866.76</ele>
        <time>2024-11-02T08:24:28Z</time>
      </trkpt>
      <trkpt lat="42.23173" lon="1.71045">
        <ele>1867.89</ele>
        <time>2024-11-02T08:24:49Z</time>
      </trkpt>
      <trkpt lat="42.23173" lon="1.71042">
        <ele>1868.12</ele>
        <time>2024-11-02T08:25:18Z</time>
      </trkpt>
      <trkpt lat="42.23175" lon="1.71037">
        <ele>1870.6</ele>
        <time>2024-11-02T08:25:34Z</time>
      </trkpt>
      <trkpt lat="42.23179" lon="1.7103">
        <ele>1873.04</ele>
        <time>2024-11-02T08:25:53Z</time>
      </trkpt>
      <trkpt lat="42.23183" lon="1.71035">
        <ele>1875.72</ele>
        <time>2024-11-02T08:26:10Z</time>
      </trkpt>
      <trkpt lat="42.23185" lon="1.71038">
        <ele>1877.62</ele>
        <time>2024-11-02T08:26:34Z</time>
      </trkpt>
      <trkpt lat="42.23189" lon="1.71041">
        <ele>1879.34</ele>
        <time>2024-11-02T08:26:54Z</time>
      </trkpt>
      <trkpt lat="42.23191" lon="1.71037">
        <ele>1880.45</ele>
        <time>2024-11-02T08:27:13Z</time>
      </trkpt>
      <trkpt lat="42.23194" lon="1.71036">
        <ele>1881.47</ele>
        <time>2024-11-02T08:27:22Z</time>
      </trkpt>
      <trkpt lat="42.23196" lon="1.71035">
        <ele>1882.67</ele>
        <time>2024-11-02T08:27:37Z</time>
      </trkpt>
      <trkpt lat="42.23199" lon="1.71039">
        <ele>1884.91</ele>
        <time>2024-11-02T08:27:56Z</time>
      </trkpt>
      <trkpt lat="42.23204" lon="1.71043">
        <ele>1888.02</ele>
        <time>2024-11-02T08:28:16Z</time>
      </trkpt>
      <trkpt lat="42.23205" lon="1.71043">
        <ele>1889.43</ele>
        <time>2024-11-02T08:28:36Z</time>
      </trkpt>
      <trkpt lat="42.23207" lon="1.71043">
        <ele>1889.73</ele>
        <time>2024-11-02T08:29:00Z</time>
      </trkpt>
      <trkpt lat="42.23207" lon="1.7104">
        <ele>1890.82</ele>
        <time>2024-11-02T08:29:24Z</time>
      </trkpt>
      <trkpt lat="42.23209" lon="1.71037">
        <ele>1891.8</ele>
        <time>2024-11-02T08:29:50Z</time>
      </trkpt>
      <trkpt lat="42.23213" lon="1.71036">
        <ele>1894.45</ele>
        <time>2024-11-02T08:30:13Z</time>
      </trkpt>
      <trkpt lat="42.23215" lon="1.71039">
        <ele>1896.4</ele>
        <time>2024-11-02T08:30:32Z</time>
      </trkpt>
      <trkpt lat="42.23216" lon="1.71045">
        <ele>1898.91</ele>
        <time>2024-11-02T08:30:52Z</time>
      </trkpt>
      <trkpt lat="42.23219" lon="1.71047">
        <ele>1900.56</ele>
        <time>2024-11-02T08:31:02Z</time>
      </trkpt>
      <trkpt lat="42.23227" lon="1.7105">
        <ele>1901.7</ele>
        <time>2024-11-02T08:31:23Z</time>
      </trkpt>
      <trkpt lat="42.23234" lon="1.7105">
        <ele>1903.59</ele>
        <time>2024-11-02T08:31:44Z</time>
      </trkpt>
      <trkpt lat="42.23237" lon="1.71048">
        <ele>1904.31</ele>
        <time>2024-11-02T08:32:03Z</time>
      </trkpt>
      <trkpt lat="42.23238" lon="1.71049">
        <ele>1905.07</ele>
        <time>2024-11-02T08:32:27Z</time>
      </trkpt>
      <trkpt lat="42.2324" lon="1.71053">
        <ele>1904.99</ele>
        <time>2024-11-02T08:32:47Z</time>
      </trkpt>
      <trkpt lat="42.23238" lon="1.71054">
        <ele>1904.94</ele>
        <time>2024-11-02T08:33:12Z</time>
      </trkpt>
      <trkpt lat="42.23239" lon="1.71055">
        <ele>1905.06</ele>
        <time>2024-11-02T08:33:38Z</time>
      </trkpt>
      <trkpt lat="42.23239" lon="1.71056">
        <ele>1905.28</ele>
        <time>2024-11-02T08:33:42Z</time>
      </trkpt>
      <trkpt lat="42.23238" lon="1.71055">
        <ele>1904.79</ele>
        <time>2024-11-02T08:34:02Z</time>
      </trkpt>
      <trkpt lat="42.23238" lon="1.71052">
        <ele>1905.02</ele>
        <time>2024-11-02T08:34:25Z</time>
      </trkpt>
      <trkpt lat="42.2324" lon="1.71051">
        <ele>1905.39</ele>
        <time>2024-11-02T08:34:52Z</time>
      </trkpt>
      <trkpt lat="42.23243" lon="1.71052">
        <ele>1904.93</ele>
        <time>2024-11-02T08:35:13Z</time>
      </trkpt>
      <trkpt lat="42.23244" lon="1.71051">
        <ele>1905.93</ele>
        <time>2024-11-02T08:35:33Z</time>
      </trkpt>
      <trkpt lat="42.23242" lon="1.71048">
        <ele>1904.8</ele>
        <time>2024-11-02T08:35:57Z</time>
      </trkpt>
      <trkpt lat="42.23237" lon="1.71046">
        <ele>1905.82</ele>
        <time>2024-11-02T08:36:23Z</time>
      </trkpt>
      <trkpt lat="42.2324" lon="1.71047">
        <ele>1907.14</ele>
        <time>2024-11-02T08:36:46Z</time>
      </trkpt>
      <trkpt lat="42.23243" lon="1.71047">
        <ele>1907.04</ele>
        <time>2024-11-02T08:37:14Z</time>
      </trkpt>
      <trkpt lat="42.23241" lon="1.71048">
        <ele>1906.98</ele>
        <time>2024-11-02T08:37:48Z</time>
      </trkpt>
      <trkpt lat="42.23239" lon="1.71047">
        <ele>1907.23</ele>
        <time>2024-11-02T08:38:24Z</time>
      </trkpt>
      <trkpt lat="42.2324" lon="1.71045">
        <ele>1906.81</ele>
        <time>2024-11-02T08:38:55Z</time>
      </trkpt>
      <trkpt lat="42.2324" lon="1.71047">
        <ele>1907.32</ele>
        <time>2024-11-02T08:39:15Z</time>
      </trkpt>
      <trkpt lat="42.2324" lon="1.71043">
        <ele>1908.36</ele>
        <time>2024-11-02T08:39:37Z</time>
      </trkpt>
      <trkpt lat="42.23238" lon="1.71043">
        <ele>1909.19</ele>
        <time>2024-11-02T08:40:00Z</time>
      </trkpt>
      <trkpt lat="42.2324" lon="1.71044">
        <ele>1911.1</ele>
        <time>2024-11-02T08:40:21Z</time>
      </trkpt>
      <trkpt lat="42.23243" lon="1.71042">
        <ele>1913.85</ele>
        <time>2024-11-02T08:40:41Z</time>
      </trkpt>
      <trkpt lat="42.2324" lon="1.71041">
        <ele>1914.29</ele>
        <time>2024-11-02T08:41:04Z</time>
      </trkpt>
      <trkpt lat="42.23243" lon="1.71041">
        <ele>1914.63</ele>
        <time>2024-11-02T08:41:29Z</time>
      </trkpt>
      <trkpt lat="42.23242" lon="1.71038">
        <ele>1915.18</ele>
        <time>2024-11-02T08:41:51Z</time>
      </trkpt>
      <trkpt lat="42.23241" lon="1.71039">
        <ele>1915.13</ele>
        <time>2024-11-02T08:42:11Z</time>
      </trkpt>
      <trkpt lat="42.23239" lon="1.71041">
        <ele>1915.31</ele>
        <time>2024-11-02T08:42:35Z</time>
      </trkpt>
      <trkpt lat="42.23236" lon="1.71042">
        <ele>1915.82</ele>
        <time>2024-11-02T08:43:01Z</time>
      </trkpt>
      <trkpt lat="42.23239" lon="1.71041">
        <ele>1915.14</ele>
        <time>2024-11-02T08:43:24Z</time>
      </trkpt>
      <trkpt lat="42.23234" lon="1.71045">
        <ele>1915.5</ele>
        <time>2024-11-02T08:43:52Z</time>
      </trkpt>
      <trkpt lat="42.23231" lon="1.71042">
        <ele>1916.14</ele>
        <time>2024-11-02T08:44:21Z</time>
      </trkpt>
      <trkpt lat="42.23231" lon="1.71042">
        <ele>1916.24</ele>
        <time>2024-11-02T08:44:34Z</time>
      </trkpt>
      <trkpt lat="42.23229" lon="1.71039">
        <ele>1917.57</ele>
        <time>2024-11-02T08:44:52Z</time>
      </trkpt>
      <trkpt lat="42.23231" lon="1.71038">
        <ele>1918.64</ele>
        <time>2024-11-02T08:45:12Z</time>
      </trkpt>
      <trkpt lat="42.23232" lon="1.71038">
        <ele>1918.71</ele>
        <time>2024-11-02T08:45:14Z</time>
      </trkpt>
      <trkpt lat="42.23234" lon="1.71037">
        <ele>1917.88</ele>
        <time>2024-11-02T08:45:18Z</time>
      </trkpt>
      <trkpt lat="42.23235" lon="1.71037">
        <ele>1919.36</ele>
        <time>2024-11-02T08:45:20Z</time>
      </trkpt>
      <trkpt lat="42.23236" lon="1.71038">
        <ele>1919.75</ele>
        <time>2024-11-02T08:45:28Z</time>
      </trkpt>
      <trkpt lat="42.23241" lon="1.71037">
        <ele>1920.92</ele>
        <time>2024-11-02T08:45:49Z</time>
      </trkpt>
      <trkpt lat="42.23244" lon="1.71037">
        <ele>1922.64</ele>
        <time>2024-11-02T08:46:06Z</time>
      </trkpt>
      <trkpt lat="42.23241" lon="1.71032">
        <ele>1923.57</ele>
        <time>2024-11-02T08:46:28Z</time>
      </trkpt>
      <trkpt lat="42.23238" lon="1.7103">
        <ele>1923.13</ele>
        <time>2024-11-02T08:46:52Z</time>
      </trkpt>
      <trkpt lat="42.2324" lon="1.71032">
        <ele>1923.75</ele>
        <time>2024-11-02T08:47:15Z</time>
      </trkpt>
      <trkpt lat="42.2324" lon="1.71032">
        <ele>1923.8</ele>
        <time>2024-11-02T08:47:16Z</time>
      </trkpt>
      <trkpt lat="42.23245" lon="1.71031">
        <ele>1925.19</ele>
        <time>2024-11-02T08:47:33Z</time>
      </trkpt>
      <trkpt lat="42.23248" lon="1.71034">
        <ele>1924.57</ele>
        <time>2024-11-02T08:47:52Z</time>
      </trkpt>
      <trkpt lat="42.23251" lon="1.71035">
        <ele>1925.39</ele>
        <time>2024-11-02T08:48:27Z</time>
      </trkpt>
      <trkpt lat="42.23244" lon="1.71023">
        <ele>1925.68</ele>
        <time>2024-11-02T08:48:53Z</time>
      </trkpt>
      <trkpt lat="42.23245" lon="1.71022">
        <ele>1926.71</ele>
        <time>2024-11-02T08:48:55Z</time>
      </trkpt>
      <trkpt lat="42.23247" lon="1.71026">
        <ele>1925.89</ele>
        <time>2024-11-02T08:49:22Z</time>
      </trkpt>
      <trkpt lat="42.23255" lon="1.71032">
        <ele>1926.58</ele>
        <time>2024-11-02T08:49:56Z</time>
      </trkpt>
      <trkpt lat="42.2325" lon="1.71031">
        <ele>1927.06</ele>
        <time>2024-11-02T08:50:21Z</time>
      </trkpt>
      <trkpt lat="42.23252" lon="1.71033">
        <ele>1928.59</ele>
        <time>2024-11-02T08:50:38Z</time>
      </trkpt>
      <trkpt lat="42.23254" lon="1.71032">
        <ele>1928.13</ele>
        <time>2024-11-02T08:50:48Z</time>
      </trkpt>
      <trkpt lat="42.23245" lon="1.71029">
        <ele>1927.32</ele>
        <time>2024-11-02T08:51:15Z</time>
      </trkpt>
      <trkpt lat="42.23249" lon="1.71031">
        <ele>1927.01</ele>
        <time>2024-11-02T08:51:32Z</time>
      </trkpt>
      <trkpt lat="42.23241" lon="1.7103">
        <ele>1927.89</ele>
        <time>2024-11-02T08:51:57Z</time>
      </trkpt>
      <trkpt lat="42.23247" lon="1.71028">
        <ele>1928.62</ele>
        <time>2024-11-02T08:52:28Z</time>
      </trkpt>
      <trkpt lat="42.2325" lon="1.71019">
        <ele>1928.98</ele>
        <time>2024-11-02T08:53:38Z</time>
      </trkpt>
      <trkpt lat="42.23244" lon="1.7102">
        <ele>1930.93</ele>
        <time>2024-11-02T08:54:07Z</time>
      </trkpt>
      <trkpt lat="42.23248" lon="1.71039">
        <ele>1934.5</ele>
        <time>2024-11-02T08:54:53Z</time>
      </trkpt>
      <trkpt lat="42.23262" lon="1.71042">
        <ele>1935.39</ele>
        <time>2024-11-02T08:54:57Z</time>
      </trkpt>
      <trkpt lat="42.23277" lon="1.7104">
        <ele>1935.87</ele>
        <time>2024-11-02T08:55:07Z</time>
      </trkpt>
      <trkpt lat="42.23281" lon="1.71041">
        <ele>1936.75</ele>
        <time>2024-11-02T08:55:10Z</time>
      </trkpt>
      <trkpt lat="42.23288" lon="1.71037">
        <ele>1934.2</ele>
        <time>2024-11-02T08:55:23Z</time>
      </trkpt>
      <trkpt lat="42.23288" lon="1.71042">
        <ele>1936.43</ele>
        <time>2024-11-02T08:56:08Z</time>
      </trkpt>
      <trkpt lat="42.23289" lon="1.71044">
        <ele>1933.78</ele>
        <time>2024-11-02T08:56:35Z</time>
      </trkpt>
      <trkpt lat="42.23287" lon="1.71036">
        <ele>1934.15</ele>
        <time>2024-11-02T08:56:58Z</time>
      </trkpt>
      <trkpt lat="42.23291" lon="1.71042">
        <ele>1937.09</ele>
        <time>2024-11-02T08:57:19Z</time>
      </trkpt>
      <trkpt lat="42.23291" lon="1.71043">
        <ele>1937.28</ele>
        <time>2024-11-02T08:57:21Z</time>
      </trkpt>
      <trkpt lat="42.23271" lon="1.71055">
        <ele>1935.5</ele>
        <time>2024-11-02T08:58:04Z</time>
      </trkpt>
      <trkpt lat="42.2327" lon="1.71052">
        <ele>1936.17</ele>
        <time>2024-11-02T08:58:09Z</time>
      </trkpt>
      <trkpt lat="42.2327" lon="1.71047">
        <ele>1934.98</ele>
        <time>2024-11-02T08:58:17Z</time>
      </trkpt>
      <trkpt lat="42.23256" lon="1.7107">
        <ele>1936.78</ele>
        <time>2024-11-02T08:59:31Z</time>
      </trkpt>
      <trkpt lat="42.23264" lon="1.7107">
        <ele>1939.97</ele>
        <time>2024-11-02T08:59:53Z</time>
      </trkpt>
      <trkpt lat="42.23266" lon="1.71065">
        <ele>1940.05</ele>
        <time>2024-11-02T09:00:04Z</time>
      </trkpt>
      <trkpt lat="42.23263" lon="1.71067">
        <ele>1939.29</ele>
        <time>2024-11-02T09:00:22Z</time>
      </trkpt>
      <trkpt lat="42.23262" lon="1.71061">
        <ele>1939.12</ele>
        <time>2024-11-02T09:00:39Z</time>
      </trkpt>
      <trkpt lat="42.23264" lon="1.71051">
        <ele>1940.31</ele>
        <time>2024-11-02T09:01:16Z</time>
      </trkpt>
      <trkpt lat="42.23267" lon="1.7105">
        <ele>1938.54</ele>
        <time>2024-11-02T09:01:40Z</time>
      </trkpt>
      <trkpt lat="42.23266" lon="1.71041">
        <ele>1939.22</ele>
        <time>2024-11-02T09:02:04Z</time>
      </trkpt>
      <trkpt lat="42.23273" lon="1.71036">
        <ele>1942.44</ele>
        <time>2024-11-02T09:02:23Z</time>
      </trkpt>
      <trkpt lat="42.23273" lon="1.71038">
        <ele>1943.24</ele>
        <time>2024-11-02T09:02:25Z</time>
      </trkpt>
      <trkpt lat="42.23272" lon="1.7104">
        <ele>1946.51</ele>
        <time>2024-11-02T09:02:42Z</time>
      </trkpt>
      <trkpt lat="42.23275" lon="1.71044">
        <ele>1949.14</ele>
        <time>2024-11-02T09:03:05Z</time>
      </trkpt>
      <trkpt lat="42.23279" lon="1.71046">
        <ele>1948.73</ele>
        <time>2024-11-02T09:03:31Z</time>
      </trkpt>
      <trkpt lat="42.23282" lon="1.71043">
        <ele>1951.05</ele>
        <time>2024-11-02T09:03:47Z</time>
      </trkpt>
      <trkpt lat="42.23281" lon="1.71045">
        <ele>1950.82</ele>
        <time>2024-11-02T09:04:12Z</time>
      </trkpt>
      <trkpt lat="42.23284" lon="1.71042">
        <ele>1951.53</ele>
        <time>2024-11-02T09:04:36Z</time>
      </trkpt>
      <trkpt lat="42.23284" lon="1.71047">
        <ele>1952.12</ele>
        <time>2024-11-02T09:05:05Z</time>
      </trkpt>
      <trkpt lat="42.23282" lon="1.71046">
        <ele>1952.12</ele>
        <time>2024-11-02T09:05:32Z</time>
      </trkpt>
      <trkpt lat="42.23282" lon="1.71046">
        <ele>1951.01</ele>
        <time>2024-11-02T09:05:34Z</time>
      </trkpt>
      <trkpt lat="42.23281" lon="1.71046">
        <ele>1951.03</ele>
        <time>2024-11-02T09:05:39Z</time>
      </trkpt>
      <trkpt lat="42.23282" lon="1.71046">
        <ele>1950.29</ele>
        <time>2024-11-02T09:06:01Z</time>
      </trkpt>
      <trkpt lat="42.2328" lon="1.71044">
        <ele>1950.59</ele>
        <time>2024-11-02T09:06:24Z</time>
      </trkpt>
      <trkpt lat="42.23287" lon="1.71044">
        <ele>1950.18</ele>
        <time>2024-11-02T09:06:51Z</time>
      </trkpt>
      <trkpt lat="42.23285" lon="1.71043">
        <ele>1949.42</ele>
        <time>2024-11-02T09:07:14Z</time>
      </trkpt>
      <trkpt lat="42.23284" lon="1.71041">
        <ele>1949.68</ele>
        <time>2024-11-02T09:07:25Z</time>
      </trkpt>
      <trkpt lat="42.23285" lon="1.71045">
        <ele>1952.9</ele>
        <time>2024-11-02T09:09:09Z</time>
      </trkpt>
      <trkpt lat="42.23279" lon="1.71045">
        <ele>1954.42</ele>
        <time>2024-11-02T09:09:27Z</time>
      </trkpt>
      <trkpt lat="42.23278" lon="1.71047">
        <ele>1952.27</ele>
        <time>2024-11-02T09:09:35Z</time>
      </trkpt>
      <trkpt lat="42.23273" lon="1.71045">
        <ele>1950.43</ele>
        <time>2024-11-02T09:09:53Z</time>
      </trkpt>
      <trkpt lat="42.23278" lon="1.71048">
        <ele>1949.87</ele>
        <time>2024-11-02T09:10:01Z</time>
      </trkpt>
      <trkpt lat="42.23274" lon="1.71047">
        <ele>1949.61</ele>
        <time>2024-11-02T09:10:08Z</time>
      </trkpt>
      <trkpt lat="42.23271" lon="1.71047">
        <ele>1950.36</ele>
        <time>2024-11-02T09:10:34Z</time>
      </trkpt>
      <trkpt lat="42.23269" lon="1.71045">
        <ele>1950.21</ele>
        <time>2024-11-02T09:10:41Z</time>
      </trkpt>
      <trkpt lat="42.23265" lon="1.71042">
        <ele>1949.7</ele>
        <time>2024-11-02T09:11:09Z</time>
      </trkpt>
      <trkpt lat="42.23276" lon="1.71043">
        <ele>1950.97</ele>
        <time>2024-11-02T09:11:28Z</time>
      </trkpt>
      <trkpt lat="42.23277" lon="1.71043">
        <ele>1950.08</ele>
        <time>2024-11-02T09:11:31Z</time>
      </trkpt>
      <trkpt lat="42.23286" lon="1.71044">
        <ele>1950.14</ele>
        <time>2024-11-02T09:11:41Z</time>
      </trkpt>
      <trkpt lat="42.23287" lon="1.71042">
        <ele>1949.89</ele>
        <time>2024-11-02T09:11:45Z</time>
      </trkpt>
      <trkpt lat="42.23286" lon="1.71043">
        <ele>1952.29</ele>
        <time>2024-11-02T09:11:52Z</time>
      </trkpt>
      <trkpt lat="42.23285" lon="1.71048">
        <ele>1952.86</ele>
        <time>2024-11-02T09:12:13Z</time>
      </trkpt>
      <trkpt lat="42.23284" lon="1.71048">
        <ele>1954.71</ele>
        <time>2024-11-02T09:12:15Z</time>
      </trkpt>
      <trkpt lat="42.23287" lon="1.71052">
        <ele>1954.64</ele>
        <time>2024-11-02T09:12:23Z</time>
      </trkpt>
      <trkpt lat="42.23279" lon="1.71054">
        <ele>1954.18</ele>
        <time>2024-11-02T09:12:41Z</time>
      </trkpt>
      <trkpt lat="42.23279" lon="1.71054">
        <ele>1953.22</ele>
        <time>2024-11-02T09:12:43Z</time>
      </trkpt>
      <trkpt lat="42.23276" lon="1.71054">
        <ele>1952.48</ele>
        <time>2024-11-02T09:13:06Z</time>
      </trkpt>
      <trkpt lat="42.23272" lon="1.7106">
        <ele>1955.05</ele>
        <time>2024-11-02T09:13:27Z</time>
      </trkpt>
      <trkpt lat="42.23268" lon="1.71064">
        <ele>1956.15</ele>
        <time>2024-11-02T09:13:42Z</time>
      </trkpt>
      <trkpt lat="42.23266" lon="1.71068">
        <ele>1955.61</ele>
        <time>2024-11-02T09:14:00Z</time>
      </trkpt>
      <trkpt lat="42.2326" lon="1.71076">
        <ele>1953.78</ele>
        <time>2024-11-02T09:14:21Z</time>
      </trkpt>
      <trkpt lat="42.23257" lon="1.71076">
        <ele>1953.17</ele>
        <time>2024-11-02T09:14:47Z</time>
      </trkpt>
      <trkpt lat="42.23256" lon="1.71077">
        <ele>1953.75</ele>
        <time>2024-11-02T09:15:07Z</time>
      </trkpt>
      <trkpt lat="42.23255" lon="1.71077">
        <ele>1954.19</ele>
        <time>2024-11-02T09:15:30Z</time>
      </trkpt>
      <trkpt lat="42.23253" lon="1.71075">
        <ele>1953.77</ele>
        <time>2024-11-02T09:15:57Z</time>
      </trkpt>
      <trkpt lat="42.23254" lon="1.71076">
        <ele>1953.81</ele>
        <time>2024-11-02T09:16:14Z</time>
      </trkpt>
      <trkpt lat="42.23252" lon="1.71076">
        <ele>1954.01</ele>
        <time>2024-11-02T09:16:22Z</time>
      </trkpt>
      <trkpt lat="42.23253" lon="1.71076">
        <ele>1954.02</ele>
        <time>2024-11-02T09:16:34Z</time>
      </trkpt>
      <trkpt lat="42.23255" lon="1.71074">
        <ele>1952.99</ele>
        <time>2024-11-02T09:16:58Z</time>
      </trkpt>
      <trkpt lat="42.23254" lon="1.71073">
        <ele>1952.99</ele>
        <time>2024-11-02T09:17:29Z</time>
      </trkpt>
      <trkpt lat="42.23257" lon="1.71074">
        <ele>1953.69</ele>
        <time>2024-11-02T09:18:01Z</time>
      </trkpt>
      <trkpt lat="42.23257" lon="1.71076">
        <ele>1952.77</ele>
        <time>2024-11-02T09:18:32Z</time>
      </trkpt>
      <trkpt lat="42.23252" lon="1.71075">
        <ele>1952.81</ele>
        <time>2024-11-02T09:18:58Z</time>
      </trkpt>
      <trkpt lat="42.23253" lon="1.7108">
        <ele>1950.33</ele>
        <time>2024-11-02T09:19:20Z</time>
      </trkpt>
      <trkpt lat="42.23254" lon="1.71082">
        <ele>1950.16</ele>
        <time>2024-11-02T09:19:44Z</time>
      </trkpt>
      <trkpt lat="42.23255" lon="1.71086">
        <ele>1949.31</ele>
        <time>2024-11-02T09:20:06Z</time>
      </trkpt>
      <trkpt lat="42.23253" lon="1.71089">
        <ele>1948.65</ele>
        <time>2024-11-02T09:20:28Z</time>
      </trkpt>
      <trkpt lat="42.23256" lon="1.71092">
        <ele>1948.5</ele>
        <time>2024-11-02T09:20:44Z</time>
      </trkpt>
      <trkpt lat="42.2326" lon="1.71094">
        <ele>1951.13</ele>
        <time>2024-11-02T09:21:05Z</time>
      </trkpt>
      <trkpt lat="42.23264" lon="1.71094">
        <ele>1954.27</ele>
        <time>2024-11-02T09:21:15Z</time>
      </trkpt>
      <trkpt lat="42.23266" lon="1.71091">
        <ele>1952.36</ele>
        <time>2024-11-02T09:21:28Z</time>
      </trkpt>
      <trkpt lat="42.23266" lon="1.71096">
        <ele>1954.3</ele>
        <time>2024-11-02T09:21:35Z</time>
      </trkpt>
      <trkpt lat="42.23267" lon="1.71096">
        <ele>1958.16</ele>
        <time>2024-11-02T09:21:42Z</time>
      </trkpt>
      <trkpt lat="42.23268" lon="1.71096">
        <ele>1958.42</ele>
        <time>2024-11-02T09:21:43Z</time>
      </trkpt>
      <trkpt lat="42.23271" lon="1.71098">
        <ele>1958.74</ele>
        <time>2024-11-02T09:22:01Z</time>
      </trkpt>
      <trkpt lat="42.23278" lon="1.71099">
        <ele>1957.85</ele>
        <time>2024-11-02T09:22:36Z</time>
      </trkpt>
      <trkpt lat="42.2328" lon="1.7112">
        <ele>1980.24</ele>
        <time>2024-11-02T09:33:42Z</time>
      </trkpt>
      <trkpt lat="42.2328" lon="1.71114">
        <ele>2006.72</ele>
        <time>2024-11-02T09:39:09Z</time>
      </trkpt>
      <trkpt lat="42.2328" lon="1.71113">
        <ele>2005.79</ele>
        <time>2024-11-02T09:40:45Z</time>
      </trkpt>
      <trkpt lat="42.2328" lon="1.71116">
        <ele>2006.62</ele>
        <time>2024-11-02T09:41:21Z</time>
      </trkpt>
      <trkpt lat="42.23281" lon="1.71117">
        <ele>2009.12</ele>
        <time>2024-11-02T09:41:47Z</time>
      </trkpt>
      <trkpt lat="42.23281" lon="1.71118">
        <ele>2008.1</ele>
        <time>2024-11-02T09:42:15Z</time>
      </trkpt>
      <trkpt lat="42.2328" lon="1.71119">
        <ele>2007.69</ele>
        <time>2024-11-02T09:42:46Z</time>
      </trkpt>
      <trkpt lat="42.23281" lon="1.71119">
        <ele>2008.85</ele>
        <time>2024-11-02T09:43:18Z</time>
      </trkpt>
      <trkpt lat="42.23281" lon="1.7112">
        <ele>2009.76</ele>
        <time>2024-11-02T09:43:47Z</time>
      </trkpt>
      <trkpt lat="42.23282" lon="1.71122">
        <ele>2010.26</ele>
        <time>2024-11-02T09:44:10Z</time>
      </trkpt>
      <trkpt lat="42.23282" lon="1.71122">
        <ele>2011.17</ele>
        <time>2024-11-02T09:44:33Z</time>
      </trkpt>
      <trkpt lat="42.23282" lon="1.71123">
        <ele>2010.4</ele>
        <time>2024-11-02T09:44:54Z</time>
      </trkpt>
      <trkpt lat="42.23281" lon="1.71123">
        <ele>2010.23</ele>
        <time>2024-11-02T09:45:25Z</time>
      </trkpt>
      <trkpt lat="42.23281" lon="1.71125">
        <ele>2012.18</ele>
        <time>2024-11-02T09:45:51Z</time>
      </trkpt>
      <trkpt lat="42.23282" lon="1.71129">
        <ele>2012.43</ele>
        <time>2024-11-02T09:46:09Z</time>
      </trkpt>
      <trkpt lat="42.23283" lon="1.71134">
        <ele>2015.11</ele>
        <time>2024-11-02T09:46:28Z</time>
      </trkpt>
      <trkpt lat="42.23283" lon="1.71136">
        <ele>2015.45</ele>
        <time>2024-11-02T09:46:47Z</time>
      </trkpt>
      <trkpt lat="42.23285" lon="1.71142">
        <ele>2016.85</ele>
        <time>2024-11-02T09:47:08Z</time>
      </trkpt>
      <trkpt lat="42.23284" lon="1.71147">
        <ele>2017.91</ele>
        <time>2024-11-02T09:47:26Z</time>
      </trkpt>
      <trkpt lat="42.23286" lon="1.71148">
        <ele>2018.55</ele>
        <time>2024-11-02T09:47:48Z</time>
      </trkpt>
      <trkpt lat="42.23288" lon="1.71146">
        <ele>2020.77</ele>
        <time>2024-11-02T09:48:04Z</time>
      </trkpt>
      <trkpt lat="42.2329" lon="1.71148">
        <ele>2022.53</ele>
        <time>2024-11-02T09:48:30Z</time>
      </trkpt>
      <trkpt lat="42.23293" lon="1.7115">
        <ele>2025.42</ele>
        <time>2024-11-02T09:48:51Z</time>
      </trkpt>
      <trkpt lat="42.23296" lon="1.71145">
        <ele>2026.99</ele>
        <time>2024-11-02T09:49:06Z</time>
      </trkpt>
      <trkpt lat="42.23299" lon="1.71145">
        <ele>2029.19</ele>
        <time>2024-11-02T09:49:22Z</time>
      </trkpt>
      <trkpt lat="42.23301" lon="1.71146">
        <ele>2030.75</ele>
        <time>2024-11-02T09:49:29Z</time>
      </trkpt>
      <trkpt lat="42.23305" lon="1.71139">
        <ele>2032.62</ele>
        <time>2024-11-02T09:49:44Z</time>
      </trkpt>
      <trkpt lat="42.23306" lon="1.71132">
        <ele>2034.18</ele>
        <time>2024-11-02T09:49:59Z</time>
      </trkpt>
      <trkpt lat="42.23305" lon="1.71125">
        <ele>2035.49</ele>
        <time>2024-11-02T09:50:18Z</time>
      </trkpt>
      <trkpt lat="42.23305" lon="1.71119">
        <ele>2035.92</ele>
        <time>2024-11-02T09:50:32Z</time>
      </trkpt>
      <trkpt lat="42.23304" lon="1.71109">
        <ele>2038.24</ele>
        <time>2024-11-02T09:50:48Z</time>
      </trkpt>
      <trkpt lat="42.23304" lon="1.71105">
        <ele>2037.1</ele>
        <time>2024-11-02T09:50:55Z</time>
      </trkpt>
      <trkpt lat="42.23301" lon="1.71096">
        <ele>2038.11</ele>
        <time>2024-11-02T09:51:12Z</time>
      </trkpt>
      <trkpt lat="42.23298" lon="1.7109">
        <ele>2037.19</ele>
        <time>2024-11-02T09:51:27Z</time>
      </trkpt>
      <trkpt lat="42.23298" lon="1.71085">
        <ele>2039.24</ele>
        <time>2024-11-02T09:51:35Z</time>
      </trkpt>
      <trkpt lat="42.23299" lon="1.71079">
        <ele>2040.85</ele>
        <time>2024-11-02T09:51:50Z</time>
      </trkpt>
      <trkpt lat="42.23303" lon="1.71081">
        <ele>2043.86</ele>
        <time>2024-11-02T09:52:05Z</time>
      </trkpt>
      <trkpt lat="42.23304" lon="1.71075">
        <ele>2044.67</ele>
        <time>2024-11-02T09:52:19Z</time>
      </trkpt>
      <trkpt lat="42.23305" lon="1.71068">
        <ele>2047.34</ele>
        <time>2024-11-02T09:52:36Z</time>
      </trkpt>
      <trkpt lat="42.23306" lon="1.71059">
        <ele>2047.45</ele>
        <time>2024-11-02T09:52:51Z</time>
      </trkpt>
      <trkpt lat="42.2331" lon="1.71049">
        <ele>2048.05</ele>
        <time>2024-11-02T09:53:05Z</time>
      </trkpt>
      <trkpt lat="42.2331" lon="1.71036">
        <ele>2047.75</ele>
        <time>2024-11-02T09:53:21Z</time>
      </trkpt>
      <trkpt lat="42.2331" lon="1.7102">
        <ele>2048.31</ele>
        <time>2024-11-02T09:53:38Z</time>
      </trkpt>
      <trkpt lat="42.2331" lon="1.71006">
        <ele>2050.29</ele>
        <time>2024-11-02T09:53:56Z</time>
      </trkpt>
      <trkpt lat="42.23311" lon="1.70989">
        <ele>2049.86</ele>
        <time>2024-11-02T09:54:12Z</time>
      </trkpt>
      <trkpt lat="42.2331" lon="1.70978">
        <ele>2051.12</ele>
        <time>2024-11-02T09:54:26Z</time>
      </trkpt>
      <trkpt lat="42.23311" lon="1.70965">
        <ele>2053.69</ele>
        <time>2024-11-02T09:54:44Z</time>
      </trkpt>
      <trkpt lat="42.23311" lon="1.70962">
        <ele>2055.54</ele>
        <time>2024-11-02T09:54:48Z</time>
      </trkpt>
      <trkpt lat="42.23312" lon="1.70948">
        <ele>2057.39</ele>
        <time>2024-11-02T09:55:06Z</time>
      </trkpt>
      <trkpt lat="42.23314" lon="1.70937">
        <ele>2057.48</ele>
        <time>2024-11-02T09:55:22Z</time>
      </trkpt>
      <trkpt lat="42.23314" lon="1.70931">
        <ele>2058.06</ele>
        <time>2024-11-02T09:55:27Z</time>
      </trkpt>
      <trkpt lat="42.23314" lon="1.70913">
        <ele>2058.09</ele>
        <time>2024-11-02T09:55:44Z</time>
      </trkpt>
      <trkpt lat="42.23314" lon="1.70901">
        <ele>2061.49</ele>
        <time>2024-11-02T09:55:55Z</time>
      </trkpt>
      <trkpt lat="42.23314" lon="1.709">
        <ele>2061.43</ele>
        <time>2024-11-02T09:55:56Z</time>
      </trkpt>
      <trkpt lat="42.23315" lon="1.70896">
        <ele>2060.98</ele>
        <time>2024-11-02T09:55:59Z</time>
      </trkpt>
      <trkpt lat="42.23318" lon="1.70882">
        <ele>2061.65</ele>
        <time>2024-11-02T09:56:14Z</time>
      </trkpt>
      <trkpt lat="42.23318" lon="1.70865">
        <ele>2059.87</ele>
        <time>2024-11-02T09:56:29Z</time>
      </trkpt>
      <trkpt lat="42.23319" lon="1.70841">
        <ele>2058.93</ele>
        <time>2024-11-02T09:56:48Z</time>
      </trkpt>
      <trkpt lat="42.23318" lon="1.70834">
        <ele>2059.72</ele>
        <time>2024-11-02T09:56:54Z</time>
      </trkpt>
      <trkpt lat="42.23313" lon="1.70814">
        <ele>2059.97</ele>
        <time>2024-11-02T09:57:11Z</time>
      </trkpt>
      <trkpt lat="42.23313" lon="1.70813">
        <ele>2060.03</ele>
        <time>2024-11-02T09:57:12Z</time>
      </trkpt>
      <trkpt lat="42.23313" lon="1.70804">
        <ele>2059.88</ele>
        <time>2024-11-02T09:57:23Z</time>
      </trkpt>
      <trkpt lat="42.23317" lon="1.70792">
        <ele>2058.42</ele>
        <time>2024-11-02T09:57:38Z</time>
      </trkpt>
      <trkpt lat="42.23318" lon="1.70786">
        <ele>2056.86</ele>
        <time>2024-11-02T09:57:47Z</time>
      </trkpt>
      <trkpt lat="42.23317" lon="1.70782">
        <ele>2056.32</ele>
        <time>2024-11-02T09:58:00Z</time>
      </trkpt>
      <trkpt lat="42.23318" lon="1.70781">
        <ele>2054.26</ele>
        <time>2024-11-02T09:58:09Z</time>
      </trkpt>
      <trkpt lat="42.2332" lon="1.70773">
        <ele>2054.4</ele>
        <time>2024-11-02T09:58:22Z</time>
      </trkpt>
      <trkpt lat="42.23321" lon="1.70772">
        <ele>2054.62</ele>
        <time>2024-11-02T09:58:45Z</time>
      </trkpt>
      <trkpt lat="42.23322" lon="1.70771">
        <ele>2055.13</ele>
        <time>2024-11-02T09:59:04Z</time>
      </trkpt>
      <trkpt lat="42.23321" lon="1.7077">
        <ele>2054.86</ele>
        <time>2024-11-02T09:59:30Z</time>
      </trkpt>
      <trkpt lat="42.23321" lon="1.70771">
        <ele>2054.36</ele>
        <time>2024-11-02T09:59:55Z</time>
      </trkpt>
      <trkpt lat="42.23321" lon="1.70771">
        <ele>2054.94</ele>
        <time>2024-11-02T10:00:21Z</time>
      </trkpt>
      <trkpt lat="42.23321" lon="1.7077">
        <ele>2055.28</ele>
        <time>2024-11-02T10:00:57Z</time>
      </trkpt>
      <trkpt lat="42.2332" lon="1.70771">
        <ele>2055.08</ele>
        <time>2024-11-02T10:01:26Z</time>
      </trkpt>
      <trkpt lat="42.2332" lon="1.70772">
        <ele>2055.13</ele>
        <time>2024-11-02T10:01:59Z</time>
      </trkpt>
      <trkpt lat="42.23321" lon="1.70773">
        <ele>2055.06</ele>
        <time>2024-11-02T10:02:22Z</time>
      </trkpt>
      <trkpt lat="42.23321" lon="1.70772">
        <ele>2053.77</ele>
        <time>2024-11-02T10:02:46Z</time>
      </trkpt>
      <trkpt lat="42.23321" lon="1.70771">
        <ele>2053.64</ele>
        <time>2024-11-02T10:03:15Z</time>
      </trkpt>
      <trkpt lat="42.23322" lon="1.70771">
        <ele>2054.87</ele>
        <time>2024-11-02T10:03:41Z</time>
      </trkpt>
      <trkpt lat="42.23323" lon="1.70771">
        <ele>2054.27</ele>
        <time>2024-11-02T10:04:23Z</time>
      </trkpt>
      <trkpt lat="42.23322" lon="1.70771">
        <ele>2054.29</ele>
        <time>2024-11-02T10:05:10Z</time>
      </trkpt>
      <trkpt lat="42.23322" lon="1.7077">
        <ele>2054.73</ele>
        <time>2024-11-02T10:05:37Z</time>
      </trkpt>
      <trkpt lat="42.23322" lon="1.7077">
        <ele>2054.76</ele>
        <time>2024-11-02T10:06:01Z</time>
      </trkpt>
      <trkpt lat="42.23322" lon="1.7077">
        <ele>2055.66</ele>
        <time>2024-11-02T10:06:29Z</time>
      </trkpt>
      <trkpt lat="42.23324" lon="1.7077">
        <ele>2054.99</ele>
        <time>2024-11-02T10:07:00Z</time>
      </trkpt>
      <trkpt lat="42.23322" lon="1.70772">
        <ele>2055.97</ele>
        <time>2024-11-02T10:07:21Z</time>
      </trkpt>
      <trkpt lat="42.23321" lon="1.70771">
        <ele>2055.65</ele>
        <time>2024-11-02T10:07:50Z</time>
      </trkpt>
      <trkpt lat="42.2332" lon="1.70772">
        <ele>2055.61</ele>
        <time>2024-11-02T10:08:07Z</time>
      </trkpt>
      <trkpt lat="42.2332" lon="1.70773">
        <ele>2055.8</ele>
        <time>2024-11-02T10:08:39Z</time>
      </trkpt>
      <trkpt lat="42.23319" lon="1.70777">
        <ele>2055.72</ele>
        <time>2024-11-02T10:09:04Z</time>
      </trkpt>
      <trkpt lat="42.23318" lon="1.70784">
        <ele>2057.86</ele>
        <time>2024-11-02T10:09:20Z</time>
      </trkpt>
      <trkpt lat="42.23318" lon="1.70792">
        <ele>2060.4</ele>
        <time>2024-11-02T10:09:36Z</time>
      </trkpt>
      <trkpt lat="42.23315" lon="1.70806">
        <ele>2059.42</ele>
        <time>2024-11-02T10:09:51Z</time>
      </trkpt>
      <trkpt lat="42.23316" lon="1.70821">
        <ele>2061.19</ele>
        <time>2024-11-02T10:10:07Z</time>
      </trkpt>
      <trkpt lat="42.23316" lon="1.70822">
        <ele>2059.67</ele>
        <time>2024-11-02T10:10:29Z</time>
      </trkpt>
      <trkpt lat="42.23316" lon="1.70822">
        <ele>2060.83</ele>
        <time>2024-11-02T10:10:56Z</time>
      </trkpt>
      <trkpt lat="42.23316" lon="1.70822">
        <ele>2059.85</ele>
        <time>2024-11-02T10:11:29Z</time>
      </trkpt>
      <trkpt lat="42.23313" lon="1.70811">
        <ele>2059.85</ele>
        <time>2024-11-02T10:11:50Z</time>
      </trkpt>
      <trkpt lat="42.23314" lon="1.70798">
        <ele>2060.44</ele>
        <time>2024-11-02T10:12:05Z</time>
      </trkpt>
      <trkpt lat="42.23315" lon="1.70791">
        <ele>2059.14</ele>
        <time>2024-11-02T10:12:22Z</time>
      </trkpt>
      <trkpt lat="42.23316" lon="1.70787">
        <ele>2059.87</ele>
        <time>2024-11-02T10:12:45Z</time>
      </trkpt>
      <trkpt lat="42.23318" lon="1.70784">
        <ele>2058.99</ele>
        <time>2024-11-02T10:13:05Z</time>
      </trkpt>
      <trkpt lat="42.23322" lon="1.70777">
        <ele>2059.71</ele>
        <time>2024-11-02T10:13:21Z</time>
      </trkpt>
      <trkpt lat="42.23325" lon="1.7077">
        <ele>2059.64</ele>
        <time>2024-11-02T10:13:38Z</time>
      </trkpt>
      <trkpt lat="42.23325" lon="1.70764">
        <ele>2059.67</ele>
        <time>2024-11-02T10:13:57Z</time>
      </trkpt>
      <trkpt lat="42.23329" lon="1.7076">
        <ele>2061.85</ele>
        <time>2024-11-02T10:14:18Z</time>
      </trkpt>
      <trkpt lat="42.23329" lon="1.70759">
        <ele>2063.04</ele>
        <time>2024-11-02T10:14:20Z</time>
      </trkpt>
      <trkpt lat="42.23334" lon="1.70756">
        <ele>2065.08</ele>
        <time>2024-11-02T10:14:40Z</time>
      </trkpt>
      <trkpt lat="42.23335" lon="1.70755">
        <ele>2066.42</ele>
        <time>2024-11-02T10:15:01Z</time>
      </trkpt>
      <trkpt lat="42.23335" lon="1.70752">
        <ele>2067.76</ele>
        <time>2024-11-02T10:15:18Z</time>
      </trkpt>
      <trkpt lat="42.23336" lon="1.70748">
        <ele>2071.36</ele>
        <time>2024-11-02T10:15:38Z</time>
      </trkpt>
      <trkpt lat="42.23337" lon="1.70748">
        <ele>2071.61</ele>
        <time>2024-11-02T10:15:39Z</time>
      </trkpt>
      <trkpt lat="42.23339" lon="1.70745">
        <ele>2074.48</ele>
        <time>2024-11-02T10:15:56Z</time>
      </trkpt>
      <trkpt lat="42.2334" lon="1.70745">
        <ele>2074.96</ele>
        <time>2024-11-02T10:16:01Z</time>
      </trkpt>
      <trkpt lat="42.23339" lon="1.70744">
        <ele>2075.08</ele>
        <time>2024-11-02T10:16:29Z</time>
      </trkpt>
      <trkpt lat="42.2334" lon="1.70744">
        <ele>2073.75</ele>
        <time>2024-11-02T10:17:02Z</time>
      </trkpt>
      <trkpt lat="42.2334" lon="1.70744">
        <ele>2074.29</ele>
        <time>2024-11-02T10:17:38Z</time>
      </trkpt>
      <trkpt lat="42.23341" lon="1.70743">
        <ele>2075.29</ele>
        <time>2024-11-02T10:17:58Z</time>
      </trkpt>
      <trkpt lat="42.23341" lon="1.70742">
        <ele>2075.88</ele>
        <time>2024-11-02T10:18:19Z</time>
      </trkpt>
      <trkpt lat="42.23341" lon="1.70738">
        <ele>2078.54</ele>
        <time>2024-11-02T10:18:42Z</time>
      </trkpt>
      <trkpt lat="42.23342" lon="1.70733">
        <ele>2080.87</ele>
        <time>2024-11-02T10:19:00Z</time>
      </trkpt>
      <trkpt lat="42.23345" lon="1.70732">
        <ele>2084</ele>
        <time>2024-11-02T10:19:11Z</time>
      </trkpt>
      <trkpt lat="42.23346" lon="1.70727">
        <ele>2085.23</ele>
        <time>2024-11-02T10:19:26Z</time>
      </trkpt>
      <trkpt lat="42.23348" lon="1.70721">
        <ele>2087.48</ele>
        <time>2024-11-02T10:19:44Z</time>
      </trkpt>
      <trkpt lat="42.23352" lon="1.70717">
        <ele>2090.67</ele>
        <time>2024-11-02T10:19:59Z</time>
      </trkpt>
      <trkpt lat="42.23355" lon="1.70709">
        <ele>2090.4</ele>
        <time>2024-11-02T10:20:16Z</time>
      </trkpt>
      <trkpt lat="42.23358" lon="1.70702">
        <ele>2090.93</ele>
        <time>2024-11-02T10:20:39Z</time>
      </trkpt>
      <trkpt lat="42.23361" lon="1.70697">
        <ele>2091.13</ele>
        <time>2024-11-02T10:20:55Z</time>
      </trkpt>
      <trkpt lat="42.23363" lon="1.70693">
        <ele>2094.16</ele>
        <time>2024-11-02T10:21:05Z</time>
      </trkpt>
      <trkpt lat="42.23362" lon="1.70689">
        <ele>2096.11</ele>
        <time>2024-11-02T10:21:24Z</time>
      </trkpt>
      <trkpt lat="42.23362" lon="1.70687">
        <ele>2097.32</ele>
        <time>2024-11-02T10:21:39Z</time>
      </trkpt>
      <trkpt lat="42.23361" lon="1.70684">
        <ele>2099.43</ele>
        <time>2024-11-02T10:21:56Z</time>
      </trkpt>
      <trkpt lat="42.2336" lon="1.7068">
        <ele>2102.83</ele>
        <time>2024-11-02T10:22:14Z</time>
      </trkpt>
      <trkpt lat="42.23357" lon="1.70679">
        <ele>2102.51</ele>
        <time>2024-11-02T10:22:37Z</time>
      </trkpt>
      <trkpt lat="42.23358" lon="1.70675">
        <ele>2103.82</ele>
        <time>2024-11-02T10:23:02Z</time>
      </trkpt>
      <trkpt lat="42.23362" lon="1.7067">
        <ele>2107.37</ele>
        <time>2024-11-02T10:23:24Z</time>
      </trkpt>
      <trkpt lat="42.23362" lon="1.7067">
        <ele>2107.5</ele>
        <time>2024-11-02T10:23:25Z</time>
      </trkpt>
      <trkpt lat="42.23362" lon="1.70668">
        <ele>2107.19</ele>
        <time>2024-11-02T10:23:42Z</time>
      </trkpt>
      <trkpt lat="42.23363" lon="1.70665">
        <ele>2108.77</ele>
        <time>2024-11-02T10:24:04Z</time>
      </trkpt>
      <trkpt lat="42.23364" lon="1.70663">
        <ele>2112.04</ele>
        <time>2024-11-02T10:24:22Z</time>
      </trkpt>
      <trkpt lat="42.23364" lon="1.70662">
        <ele>2114.76</ele>
        <time>2024-11-02T10:24:43Z</time>
      </trkpt>
      <trkpt lat="42.23365" lon="1.70659">
        <ele>2117.03</ele>
        <time>2024-11-02T10:25:07Z</time>
      </trkpt>
      <trkpt lat="42.23366" lon="1.70655">
        <ele>2118.87</ele>
        <time>2024-11-02T10:25:30Z</time>
      </trkpt>
      <trkpt lat="42.23367" lon="1.7065">
        <ele>2119.57</ele>
        <time>2024-11-02T10:25:52Z</time>
      </trkpt>
      <trkpt lat="42.23365" lon="1.70647">
        <ele>2119.28</ele>
        <time>2024-11-02T10:26:16Z</time>
      </trkpt>
      <trkpt lat="42.23367" lon="1.70644">
        <ele>2120.67</ele>
        <time>2024-11-02T10:26:39Z</time>
      </trkpt>
      <trkpt lat="42.23369" lon="1.70648">
        <ele>2120.02</ele>
        <time>2024-11-02T10:27:01Z</time>
      </trkpt>
      <trkpt lat="42.23372" lon="1.70648">
        <ele>2120.37</ele>
        <time>2024-11-02T10:27:26Z</time>
      </trkpt>
      <trkpt lat="42.23371" lon="1.70646">
        <ele>2122.6</ele>
        <time>2024-11-02T10:27:53Z</time>
      </trkpt>
      <trkpt lat="42.2337" lon="1.70646">
        <ele>2123.98</ele>
        <time>2024-11-02T10:27:58Z</time>
      </trkpt>
      <trkpt lat="42.23369" lon="1.70645">
        <ele>2125.22</ele>
        <time>2024-11-02T10:28:07Z</time>
      </trkpt>
      <trkpt lat="42.2337" lon="1.70645">
        <ele>2127.22</ele>
        <time>2024-11-02T10:28:26Z</time>
      </trkpt>
      <trkpt lat="42.23371" lon="1.70645">
        <ele>2127.5</ele>
        <time>2024-11-02T10:28:27Z</time>
      </trkpt>
      <trkpt lat="42.23375" lon="1.70647">
        <ele>2127.34</ele>
        <time>2024-11-02T10:28:47Z</time>
      </trkpt>
      <trkpt lat="42.23376" lon="1.70649">
        <ele>2128.34</ele>
        <time>2024-11-02T10:29:09Z</time>
      </trkpt>
      <trkpt lat="42.23376" lon="1.70646">
        <ele>2131.78</ele>
        <time>2024-11-02T10:29:22Z</time>
      </trkpt>
      <trkpt lat="42.23376" lon="1.70643">
        <ele>2133.44</ele>
        <time>2024-11-02T10:29:41Z</time>
      </trkpt>
      <trkpt lat="42.23376" lon="1.7064">
        <ele>2136.45</ele>
        <time>2024-11-02T10:29:55Z</time>
      </trkpt>
      <trkpt lat="42.23377" lon="1.70635">
        <ele>2137.13</ele>
        <time>2024-11-02T10:30:17Z</time>
      </trkpt>
      <trkpt lat="42.23382" lon="1.70631">
        <ele>2138.35</ele>
        <time>2024-11-02T10:30:40Z</time>
      </trkpt>
      <trkpt lat="42.23382" lon="1.70628">
        <ele>2140.81</ele>
        <time>2024-11-02T10:30:59Z</time>
      </trkpt>
      <trkpt lat="42.23385" lon="1.70622">
        <ele>2143.84</ele>
        <time>2024-11-02T10:31:17Z</time>
      </trkpt>
      <trkpt lat="42.23384" lon="1.70619">
        <ele>2146.85</ele>
        <time>2024-11-02T10:31:35Z</time>
      </trkpt>
      <trkpt lat="42.23387" lon="1.7062">
        <ele>2147.35</ele>
        <time>2024-11-02T10:31:57Z</time>
      </trkpt>
      <trkpt lat="42.23386" lon="1.70615">
        <ele>2149.5</ele>
        <time>2024-11-02T10:32:19Z</time>
      </trkpt>
      <trkpt lat="42.23386" lon="1.70615">
        <ele>2149.91</ele>
        <time>2024-11-02T10:32:38Z</time>
      </trkpt>
      <trkpt lat="42.23386" lon="1.70615">
        <ele>2152.06</ele>
        <time>2024-11-02T10:32:43Z</time>
      </trkpt>
      <trkpt lat="42.23386" lon="1.70617">
        <ele>2150.89</ele>
        <time>2024-11-02T10:33:01Z</time>
      </trkpt>
      <trkpt lat="42.23385" lon="1.70613">
        <ele>2153.04</ele>
        <time>2024-11-02T10:33:26Z</time>
      </trkpt>
      <trkpt lat="42.23385" lon="1.70612">
        <ele>2154.33</ele>
        <time>2024-11-02T10:33:35Z</time>
      </trkpt>
      <trkpt lat="42.23384" lon="1.70613">
        <ele>2154.36</ele>
        <time>2024-11-02T10:33:57Z</time>
      </trkpt>
      <trkpt lat="42.23384" lon="1.70612">
        <ele>2154.1</ele>
        <time>2024-11-02T10:34:16Z</time>
      </trkpt>
      <trkpt lat="42.23384" lon="1.70612">
        <ele>2156.15</ele>
        <time>2024-11-02T10:34:37Z</time>
      </trkpt>
      <trkpt lat="42.23387" lon="1.7061">
        <ele>2159.23</ele>
        <time>2024-11-02T10:34:57Z</time>
      </trkpt>
      <trkpt lat="42.2339" lon="1.7061">
        <ele>2161.94</ele>
        <time>2024-11-02T10:35:20Z</time>
      </trkpt>
      <trkpt lat="42.23391" lon="1.70609">
        <ele>2162.43</ele>
        <time>2024-11-02T10:35:41Z</time>
      </trkpt>
      <trkpt lat="42.23391" lon="1.70608">
        <ele>2165.71</ele>
        <time>2024-11-02T10:35:49Z</time>
      </trkpt>
      <trkpt lat="42.23389" lon="1.70603">
        <ele>2164.92</ele>
        <time>2024-11-02T10:36:12Z</time>
      </trkpt>
      <trkpt lat="42.2339" lon="1.70603">
        <ele>2166.29</ele>
        <time>2024-11-02T10:36:17Z</time>
      </trkpt>
      <trkpt lat="42.23386" lon="1.70604">
        <ele>2167.23</ele>
        <time>2024-11-02T10:36:36Z</time>
      </trkpt>
      <trkpt lat="42.23385" lon="1.70604">
        <ele>2167.05</ele>
        <time>2024-11-02T10:37:01Z</time>
      </trkpt>
      <trkpt lat="42.23385" lon="1.70604">
        <ele>2166.56</ele>
        <time>2024-11-02T10:37:25Z</time>
      </trkpt>
      <trkpt lat="42.23386" lon="1.70602">
        <ele>2165.28</ele>
        <time>2024-11-02T10:37:47Z</time>
      </trkpt>
      <trkpt lat="42.23387" lon="1.70601">
        <ele>2166.21</ele>
        <time>2024-11-02T10:38:11Z</time>
      </trkpt>
      <trkpt lat="42.23384" lon="1.70604">
        <ele>2168.52</ele>
        <time>2024-11-02T10:38:36Z</time>
      </trkpt>
      <trkpt lat="42.23384" lon="1.70603">
        <ele>2169.05</ele>
        <time>2024-11-02T10:38:57Z</time>
      </trkpt>
      <trkpt lat="42.23384" lon="1.70603">
        <ele>2170.11</ele>
        <time>2024-11-02T10:39:22Z</time>
      </trkpt>
      <trkpt lat="42.23383" lon="1.70602">
        <ele>2172.65</ele>
        <time>2024-11-02T10:39:44Z</time>
      </trkpt>
      <trkpt lat="42.23384" lon="1.70601">
        <ele>2173.47</ele>
        <time>2024-11-02T10:39:46Z</time>
      </trkpt>
      <trkpt lat="42.23384" lon="1.706">
        <ele>2174.58</ele>
        <time>2024-11-02T10:39:52Z</time>
      </trkpt>
      <trkpt lat="42.23383" lon="1.70602">
        <ele>2174.55</ele>
        <time>2024-11-02T10:40:08Z</time>
      </trkpt>
      <trkpt lat="42.23383" lon="1.70601">
        <ele>2173.34</ele>
        <time>2024-11-02T10:40:13Z</time>
      </trkpt>
      <trkpt lat="42.23383" lon="1.706">
        <ele>2176.46</ele>
        <time>2024-11-02T10:40:31Z</time>
      </trkpt>
      <trkpt lat="42.23382" lon="1.70599">
        <ele>2175.26</ele>
        <time>2024-11-02T10:40:38Z</time>
      </trkpt>
      <trkpt lat="42.23383" lon="1.70599">
        <ele>2176.78</ele>
        <time>2024-11-02T10:40:44Z</time>
      </trkpt>
      <trkpt lat="42.23383" lon="1.70599">
        <ele>2177.36</ele>
        <time>2024-11-02T10:40:57Z</time>
      </trkpt>
      <trkpt lat="42.23383" lon="1.706">
        <ele>2176.3</ele>
        <time>2024-11-02T10:41:07Z</time>
      </trkpt>
      <trkpt lat="42.23383" lon="1.70599">
        <ele>2174.58</ele>
        <time>2024-11-02T10:41:27Z</time>
      </trkpt>
      <trkpt lat="42.23383" lon="1.70598">
        <ele>2175.75</ele>
        <time>2024-11-02T10:41:48Z</time>
      </trkpt>
      <trkpt lat="42.23382" lon="1.70599">
        <ele>2174.06</ele>
        <time>2024-11-02T10:42:03Z</time>
      </trkpt>
      <trkpt lat="42.23383" lon="1.70601">
        <ele>2176.94</ele>
        <time>2024-11-02T10:42:13Z</time>
      </trkpt>
      <trkpt lat="42.23383" lon="1.70601">
        <ele>2178.99</ele>
        <time>2024-11-02T10:42:16Z</time>
      </trkpt>
      <trkpt lat="42.23384" lon="1.706">
        <ele>2180.64</ele>
        <time>2024-11-02T10:42:23Z</time>
      </trkpt>
      <trkpt lat="42.23385" lon="1.70599">
        <ele>2181.87</ele>
        <time>2024-11-02T10:42:26Z</time>
      </trkpt>
      <trkpt lat="42.23385" lon="1.70599">
        <ele>2183.25</ele>
        <time>2024-11-02T10:42:28Z</time>
      </trkpt>
      <trkpt lat="42.23386" lon="1.70594">
        <ele>2185.53</ele>
        <time>2024-11-02T10:42:48Z</time>
      </trkpt>
      <trkpt lat="42.23386" lon="1.70596">
        <ele>2186.4</ele>
        <time>2024-11-02T10:43:12Z</time>
      </trkpt>
      <trkpt lat="42.23386" lon="1.70596">
        <ele>2183.75</ele>
        <time>2024-11-02T10:43:15Z</time>
      </trkpt>
      <trkpt lat="42.23385" lon="1.70595">
        <ele>2183.96</ele>
        <time>2024-11-02T10:43:37Z</time>
      </trkpt>
      <trkpt lat="42.23386" lon="1.70592">
        <ele>2184.07</ele>
        <time>2024-11-02T10:43:52Z</time>
      </trkpt>
      <trkpt lat="42.23386" lon="1.70591">
        <ele>2185.84</ele>
        <time>2024-11-02T10:43:56Z</time>
      </trkpt>
      <trkpt lat="42.23385" lon="1.7059">
        <ele>2186.74</ele>
        <time>2024-11-02T10:44:02Z</time>
      </trkpt>
      <trkpt lat="42.23385" lon="1.70589">
        <ele>2186.22</ele>
        <time>2024-11-02T10:44:24Z</time>
      </trkpt>
      <trkpt lat="42.23386" lon="1.7059">
        <ele>2188.27</ele>
        <time>2024-11-02T10:44:48Z</time>
      </trkpt>
      <trkpt lat="42.23382" lon="1.70589">
        <ele>2189.41</ele>
        <time>2024-11-02T10:45:12Z</time>
      </trkpt>
      <trkpt lat="42.23383" lon="1.70589">
        <ele>2191.07</ele>
        <time>2024-11-02T10:45:20Z</time>
      </trkpt>
      <trkpt lat="42.23383" lon="1.70589">
        <ele>2189.72</ele>
        <time>2024-11-02T10:45:48Z</time>
      </trkpt>
      <trkpt lat="42.23383" lon="1.70589">
        <ele>2189.64</ele>
        <time>2024-11-02T10:46:14Z</time>
      </trkpt>
      <trkpt lat="42.23383" lon="1.70589">
        <ele>2189.62</ele>
        <time>2024-11-02T10:46:38Z</time>
      </trkpt>
      <trkpt lat="42.23381" lon="1.70589">
        <ele>2192.96</ele>
        <time>2024-11-02T10:46:52Z</time>
      </trkpt>
      <trkpt lat="42.23381" lon="1.70589">
        <ele>2193.7</ele>
        <time>2024-11-02T10:46:54Z</time>
      </trkpt>
      <trkpt lat="42.23381" lon="1.70589">
        <ele>2190.79</ele>
        <time>2024-11-02T10:46:58Z</time>
      </trkpt>
      <trkpt lat="42.23381" lon="1.70589">
        <ele>2193.81</ele>
        <time>2024-11-02T10:47:02Z</time>
      </trkpt>
      <trkpt lat="42.23382" lon="1.7059">
        <ele>2191.68</ele>
        <time>2024-11-02T10:47:10Z</time>
      </trkpt>
      <trkpt lat="42.23383" lon="1.7059">
        <ele>2191.59</ele>
        <time>2024-11-02T10:47:43Z</time>
      </trkpt>
      <trkpt lat="42.23383" lon="1.70588">
        <ele>2191.2</ele>
        <time>2024-11-02T10:48:14Z</time>
      </trkpt>
      <trkpt lat="42.23383" lon="1.70586">
        <ele>2194.56</ele>
        <time>2024-11-02T10:48:26Z</time>
      </trkpt>
      <trkpt lat="42.23384" lon="1.70583">
        <ele>2196.38</ele>
        <time>2024-11-02T10:48:43Z</time>
      </trkpt>
      <trkpt lat="42.23387" lon="1.70583">
        <ele>2199.24</ele>
        <time>2024-11-02T10:48:52Z</time>
      </trkpt>
      <trkpt lat="42.2339" lon="1.70579">
        <ele>2201.35</ele>
        <time>2024-11-02T10:49:11Z</time>
      </trkpt>
      <trkpt lat="42.23391" lon="1.70576">
        <ele>2202.32</ele>
        <time>2024-11-02T10:49:28Z</time>
      </trkpt>
      <trkpt lat="42.23395" lon="1.70576">
        <ele>2205.54</ele>
        <time>2024-11-02T10:49:42Z</time>
      </trkpt>
      <trkpt lat="42.23396" lon="1.70574">
        <ele>2205.83</ele>
        <time>2024-11-02T10:50:01Z</time>
      </trkpt>
      <trkpt lat="42.23398" lon="1.70573">
        <ele>2206.67</ele>
        <time>2024-11-02T10:50:17Z</time>
      </trkpt>
      <trkpt lat="42.23399" lon="1.70572">
        <ele>2208.7</ele>
        <time>2024-11-02T10:50:34Z</time>
      </trkpt>
      <trkpt lat="42.23402" lon="1.7057">
        <ele>2211.13</ele>
        <time>2024-11-02T10:50:52Z</time>
      </trkpt>
      <trkpt lat="42.23404" lon="1.70566">
        <ele>2213.79</ele>
        <time>2024-11-02T10:51:11Z</time>
      </trkpt>
      <trkpt lat="42.23402" lon="1.70559">
        <ele>2215.45</ele>
        <time>2024-11-02T10:51:32Z</time>
      </trkpt>
      <trkpt lat="42.23396" lon="1.70554">
        <ele>2218.71</ele>
        <time>2024-11-02T10:51:46Z</time>
      </trkpt>
      <trkpt lat="42.23394" lon="1.70551">
        <ele>2222.09</ele>
        <time>2024-11-02T10:51:58Z</time>
      </trkpt>
      <trkpt lat="42.23393" lon="1.70547">
        <ele>2221.91</ele>
        <time>2024-11-02T10:52:11Z</time>
      </trkpt>
      <trkpt lat="42.23396" lon="1.70543">
        <ele>2227.19</ele>
        <time>2024-11-02T10:52:24Z</time>
      </trkpt>
      <trkpt lat="42.23396" lon="1.70543">
        <ele>2225.64</ele>
        <time>2024-11-02T10:52:25Z</time>
      </trkpt>
      <trkpt lat="42.23397" lon="1.70543">
        <ele>2224.21</ele>
        <time>2024-11-02T10:52:27Z</time>
      </trkpt>
      <trkpt lat="42.234" lon="1.70542">
        <ele>2224.99</ele>
        <time>2024-11-02T10:52:33Z</time>
      </trkpt>
      <trkpt lat="42.23406" lon="1.70543">
        <ele>2228.67</ele>
        <time>2024-11-02T10:52:51Z</time>
      </trkpt>
      <trkpt lat="42.23411" lon="1.70544">
        <ele>2229.71</ele>
        <time>2024-11-02T10:53:07Z</time>
      </trkpt>
      <trkpt lat="42.23411" lon="1.70545">
        <ele>2230.44</ele>
        <time>2024-11-02T10:53:30Z</time>
      </trkpt>
      <trkpt lat="42.2341" lon="1.70545">
        <ele>2229.74</ele>
        <time>2024-11-02T10:53:59Z</time>
      </trkpt>
      <trkpt lat="42.23409" lon="1.70546">
        <ele>2230.54</ele>
        <time>2024-11-02T10:54:23Z</time>
      </trkpt>
      <trkpt lat="42.23409" lon="1.70545">
        <ele>2231.53</ele>
        <time>2024-11-02T10:54:36Z</time>
      </trkpt>
      <trkpt lat="42.23409" lon="1.70545">
        <ele>2231.35</ele>
        <time>2024-11-02T10:54:53Z</time>
      </trkpt>
      <trkpt lat="42.23409" lon="1.70544">
        <ele>2230.17</ele>
        <time>2024-11-02T10:54:55Z</time>
      </trkpt>
      <trkpt lat="42.23413" lon="1.70542">
        <ele>2230.97</ele>
        <time>2024-11-02T10:55:13Z</time>
      </trkpt>
      <trkpt lat="42.23418" lon="1.70541">
        <ele>2234.1</ele>
        <time>2024-11-02T10:55:32Z</time>
      </trkpt>
      <trkpt lat="42.23419" lon="1.70542">
        <ele>2235.06</ele>
        <time>2024-11-02T10:55:34Z</time>
      </trkpt>
      <trkpt lat="42.23423" lon="1.70538">
        <ele>2237.51</ele>
        <time>2024-11-02T10:55:50Z</time>
      </trkpt>
      <trkpt lat="42.23425" lon="1.70535">
        <ele>2238.84</ele>
        <time>2024-11-02T10:56:01Z</time>
      </trkpt>
      <trkpt lat="42.23424" lon="1.70535">
        <ele>2236.68</ele>
        <time>2024-11-02T10:56:04Z</time>
      </trkpt>
      <trkpt lat="42.23427" lon="1.70533">
        <ele>2237.92</ele>
        <time>2024-11-02T10:56:26Z</time>
      </trkpt>
      <trkpt lat="42.23429" lon="1.70532">
        <ele>2237.35</ele>
        <time>2024-11-02T10:56:54Z</time>
      </trkpt>
      <trkpt lat="42.23431" lon="1.70533">
        <ele>2240.47</ele>
        <time>2024-11-02T10:57:08Z</time>
      </trkpt>
      <trkpt lat="42.23434" lon="1.70535">
        <ele>2242</ele>
        <time>2024-11-02T10:57:29Z</time>
      </trkpt>
      <trkpt lat="42.23434" lon="1.70531">
        <ele>2243.67</ele>
        <time>2024-11-02T10:57:49Z</time>
      </trkpt>
      <trkpt lat="42.23437" lon="1.70528">
        <ele>2243.58</ele>
        <time>2024-11-02T10:58:03Z</time>
      </trkpt>
      <trkpt lat="42.23441" lon="1.70521">
        <ele>2245.79</ele>
        <time>2024-11-02T10:58:22Z</time>
      </trkpt>
      <trkpt lat="42.23442" lon="1.70519">
        <ele>2244.69</ele>
        <time>2024-11-02T10:58:27Z</time>
      </trkpt>
      <trkpt lat="42.23442" lon="1.70515">
        <ele>2246.34</ele>
        <time>2024-11-02T10:58:35Z</time>
      </trkpt>
      <trkpt lat="42.23445" lon="1.70514">
        <ele>2249.82</ele>
        <time>2024-11-02T10:58:48Z</time>
      </trkpt>
      <trkpt lat="42.23449" lon="1.70513">
        <ele>2249.53</ele>
        <time>2024-11-02T10:59:08Z</time>
      </trkpt>
      <trkpt lat="42.23453" lon="1.70515">
        <ele>2251.73</ele>
        <time>2024-11-02T10:59:28Z</time>
      </trkpt>
      <trkpt lat="42.23455" lon="1.70516">
        <ele>2254.87</ele>
        <time>2024-11-02T10:59:38Z</time>
      </trkpt>
      <trkpt lat="42.23457" lon="1.70518">
        <ele>2254.7</ele>
        <time>2024-11-02T10:59:44Z</time>
      </trkpt>
      <trkpt lat="42.23458" lon="1.70517">
        <ele>2253.52</ele>
        <time>2024-11-02T10:59:49Z</time>
      </trkpt>
      <trkpt lat="42.23459" lon="1.70515">
        <ele>2253.89</ele>
        <time>2024-11-02T10:59:56Z</time>
      </trkpt>
      <trkpt lat="42.23462" lon="1.70514">
        <ele>2257.29</ele>
        <time>2024-11-02T11:00:07Z</time>
      </trkpt>
      <trkpt lat="42.23462" lon="1.70509">
        <ele>2257.8</ele>
        <time>2024-11-02T11:00:24Z</time>
      </trkpt>
      <trkpt lat="42.23465" lon="1.70515">
        <ele>2260.89</ele>
        <time>2024-11-02T11:00:44Z</time>
      </trkpt>
      <trkpt lat="42.23467" lon="1.70504">
        <ele>2260.47</ele>
        <time>2024-11-02T11:01:00Z</time>
      </trkpt>
      <trkpt lat="42.23466" lon="1.70501">
        <ele>2263.78</ele>
        <time>2024-11-02T11:01:06Z</time>
      </trkpt>
      <trkpt lat="42.23466" lon="1.70501">
        <ele>2263.93</ele>
        <time>2024-11-02T11:01:07Z</time>
      </trkpt>
      <trkpt lat="42.23469" lon="1.70501">
        <ele>2265.76</ele>
        <time>2024-11-02T11:01:30Z</time>
      </trkpt>
      <trkpt lat="42.23473" lon="1.70507">
        <ele>2267.61</ele>
        <time>2024-11-02T11:01:54Z</time>
      </trkpt>
      <trkpt lat="42.23476" lon="1.70509">
        <ele>2270.28</ele>
        <time>2024-11-02T11:02:15Z</time>
      </trkpt>
      <trkpt lat="42.23479" lon="1.70513">
        <ele>2272.63</ele>
        <time>2024-11-02T11:02:36Z</time>
      </trkpt>
      <trkpt lat="42.23483" lon="1.70515">
        <ele>2273.98</ele>
        <time>2024-11-02T11:02:58Z</time>
      </trkpt>
      <trkpt lat="42.23486" lon="1.70512">
        <ele>2276.19</ele>
        <time>2024-11-02T11:03:21Z</time>
      </trkpt>
      <trkpt lat="42.23488" lon="1.70511">
        <ele>2278.1</ele>
        <time>2024-11-02T11:03:32Z</time>
      </trkpt>
      <trkpt lat="42.23488" lon="1.70511">
        <ele>2279.92</ele>
        <time>2024-11-02T11:03:53Z</time>
      </trkpt>
      <trkpt lat="42.23491" lon="1.70513">
        <ele>2280.38</ele>
        <time>2024-11-02T11:04:16Z</time>
      </trkpt>
      <trkpt lat="42.23494" lon="1.70513">
        <ele>2282.17</ele>
        <time>2024-11-02T11:04:41Z</time>
      </trkpt>
      <trkpt lat="42.23498" lon="1.70515">
        <ele>2285.02</ele>
        <time>2024-11-02T11:05:01Z</time>
      </trkpt>
      <trkpt lat="42.23501" lon="1.70514">
        <ele>2285.67</ele>
        <time>2024-11-02T11:05:21Z</time>
      </trkpt>
      <trkpt lat="42.23504" lon="1.70517">
        <ele>2288.73</ele>
        <time>2024-11-02T11:05:43Z</time>
      </trkpt>
      <trkpt lat="42.23506" lon="1.70519">
        <ele>2290.85</ele>
        <time>2024-11-02T11:06:03Z</time>
      </trkpt>
      <trkpt lat="42.23507" lon="1.7052">
        <ele>2294.69</ele>
        <time>2024-11-02T11:06:21Z</time>
      </trkpt>
      <trkpt lat="42.23508" lon="1.7052">
        <ele>2294.21</ele>
        <time>2024-11-02T11:06:22Z</time>
      </trkpt>
      <trkpt lat="42.2351" lon="1.70522">
        <ele>2296.73</ele>
        <time>2024-11-02T11:06:43Z</time>
      </trkpt>
      <trkpt lat="42.23511" lon="1.70522">
        <ele>2298.04</ele>
        <time>2024-11-02T11:07:05Z</time>
      </trkpt>
      <trkpt lat="42.23514" lon="1.70525">
        <ele>2300.74</ele>
        <time>2024-11-02T11:07:28Z</time>
      </trkpt>
      <trkpt lat="42.23516" lon="1.70522">
        <ele>2301.6</ele>
        <time>2024-11-02T11:07:50Z</time>
      </trkpt>
      <trkpt lat="42.23519" lon="1.70518">
        <ele>2303.58</ele>
        <time>2024-11-02T11:08:16Z</time>
      </trkpt>
      <trkpt lat="42.23522" lon="1.70519">
        <ele>2305.26</ele>
        <time>2024-11-02T11:08:39Z</time>
      </trkpt>
      <trkpt lat="42.23521" lon="1.70524">
        <ele>2307.53</ele>
        <time>2024-11-02T11:09:01Z</time>
      </trkpt>
      <trkpt lat="42.23522" lon="1.70523">
        <ele>2309.25</ele>
        <time>2024-11-02T11:09:23Z</time>
      </trkpt>
      <trkpt lat="42.23522" lon="1.70523">
        <ele>2310.08</ele>
        <time>2024-11-02T11:09:48Z</time>
      </trkpt>
      <trkpt lat="42.23521" lon="1.70524">
        <ele>2311.61</ele>
        <time>2024-11-02T11:10:09Z</time>
      </trkpt>
      <trkpt lat="42.23523" lon="1.70525">
        <ele>2313.76</ele>
        <time>2024-11-02T11:10:29Z</time>
      </trkpt>
      <trkpt lat="42.23523" lon="1.70526">
        <ele>2316.52</ele>
        <time>2024-11-02T11:10:55Z</time>
      </trkpt>
      <trkpt lat="42.23522" lon="1.70526">
        <ele>2316.98</ele>
        <time>2024-11-02T11:11:18Z</time>
      </trkpt>
      <trkpt lat="42.23525" lon="1.70528">
        <ele>2319.38</ele>
        <time>2024-11-02T11:11:38Z</time>
      </trkpt>
      <trkpt lat="42.23522" lon="1.70532">
        <ele>2321.04</ele>
        <time>2024-11-02T11:11:59Z</time>
      </trkpt>
      <trkpt lat="42.2352" lon="1.70535">
        <ele>2323.15</ele>
        <time>2024-11-02T11:12:19Z</time>
      </trkpt>
      <trkpt lat="42.23518" lon="1.70537">
        <ele>2324.03</ele>
        <time>2024-11-02T11:12:37Z</time>
      </trkpt>
      <trkpt lat="42.2352" lon="1.70541">
        <ele>2325.75</ele>
        <time>2024-11-02T11:13:00Z</time>
      </trkpt>
      <trkpt lat="42.2352" lon="1.70543">
        <ele>2327.88</ele>
        <time>2024-11-02T11:13:20Z</time>
      </trkpt>
      <trkpt lat="42.23517" lon="1.70544">
        <ele>2329.66</ele>
        <time>2024-11-02T11:13:42Z</time>
      </trkpt>
      <trkpt lat="42.23516" lon="1.70549">
        <ele>2331.03</ele>
        <time>2024-11-02T11:14:02Z</time>
      </trkpt>
      <trkpt lat="42.23519" lon="1.70551">
        <ele>2333.55</ele>
        <time>2024-11-02T11:14:21Z</time>
      </trkpt>
      <trkpt lat="42.23519" lon="1.70552">
        <ele>2335.4</ele>
        <time>2024-11-02T11:14:46Z</time>
      </trkpt>
      <trkpt lat="42.23519" lon="1.70555">
        <ele>2337.24</ele>
        <time>2024-11-02T11:15:08Z</time>
      </trkpt>
      <trkpt lat="42.23521" lon="1.70558">
        <ele>2340</ele>
        <time>2024-11-02T11:15:33Z</time>
      </trkpt>
      <trkpt lat="42.23524" lon="1.7056">
        <ele>2341.58</ele>
        <time>2024-11-02T11:15:49Z</time>
      </trkpt>
      <trkpt lat="42.23525" lon="1.70569">
        <ele>2342.64</ele>
        <time>2024-11-02T11:16:15Z</time>
      </trkpt>
      <trkpt lat="42.2352" lon="1.70563">
        <ele>2343.61</ele>
        <time>2024-11-02T11:16:47Z</time>
      </trkpt>
      <trkpt lat="42.23524" lon="1.70574">
        <ele>2345.52</ele>
        <time>2024-11-02T11:17:13Z</time>
      </trkpt>
      <trkpt lat="42.23527" lon="1.70581">
        <ele>2345.9</ele>
        <time>2024-11-02T11:17:36Z</time>
      </trkpt>
      <trkpt lat="42.23527" lon="1.7058">
        <ele>2347.59</ele>
        <time>2024-11-02T11:18:03Z</time>
      </trkpt>
      <trkpt lat="42.23527" lon="1.70578">
        <ele>2349.92</ele>
        <time>2024-11-02T11:18:16Z</time>
      </trkpt>
      <trkpt lat="42.23526" lon="1.70577">
        <ele>2346.3</ele>
        <time>2024-11-02T11:18:19Z</time>
      </trkpt>
      <trkpt lat="42.23525" lon="1.70576">
        <ele>2346.71</ele>
        <time>2024-11-02T11:18:20Z</time>
      </trkpt>
      <trkpt lat="42.23526" lon="1.70581">
        <ele>2345.51</ele>
        <time>2024-11-02T11:18:41Z</time>
      </trkpt>
      <trkpt lat="42.23529" lon="1.70582">
        <ele>2346.32</ele>
        <time>2024-11-02T11:18:51Z</time>
      </trkpt>
      <trkpt lat="42.23526" lon="1.70572">
        <ele>2345.9</ele>
        <time>2024-11-02T11:19:23Z</time>
      </trkpt>
      <trkpt lat="42.23524" lon="1.70573">
        <ele>2347.78</ele>
        <time>2024-11-02T11:19:50Z</time>
      </trkpt>
      <trkpt lat="42.23524" lon="1.70574">
        <ele>2348.75</ele>
        <time>2024-11-02T11:20:07Z</time>
      </trkpt>
      <trkpt lat="42.23524" lon="1.70574">
        <ele>2348.34</ele>
        <time>2024-11-02T11:20:22Z</time>
      </trkpt>
      <trkpt lat="42.23526" lon="1.70571">
        <ele>2348.01</ele>
        <time>2024-11-02T11:20:49Z</time>
      </trkpt>
      <trkpt lat="42.23522" lon="1.70571">
        <ele>2347.02</ele>
        <time>2024-11-02T11:21:15Z</time>
      </trkpt>
      <trkpt lat="42.23521" lon="1.70568">
        <ele>2348.21</ele>
        <time>2024-11-02T11:21:38Z</time>
      </trkpt>
      <trkpt lat="42.23526" lon="1.70568">
        <ele>2348.37</ele>
        <time>2024-11-02T11:21:56Z</time>
      </trkpt>
      <trkpt lat="42.23526" lon="1.70571">
        <ele>2348.64</ele>
        <time>2024-11-02T11:22:27Z</time>
      </trkpt>
      <trkpt lat="42.23526" lon="1.70575">
        <ele>2348.98</ele>
        <time>2024-11-02T11:22:51Z</time>
      </trkpt>
      <trkpt lat="42.23523" lon="1.7057">
        <ele>2349.31</ele>
        <time>2024-11-02T11:23:21Z</time>
      </trkpt>
      <trkpt lat="42.23521" lon="1.70568">
        <ele>2349.16</ele>
        <time>2024-11-02T11:23:51Z</time>
      </trkpt>
      <trkpt lat="42.23517" lon="1.70563">
        <ele>2350.02</ele>
        <time>2024-11-02T11:24:17Z</time>
      </trkpt>
      <trkpt lat="42.23517" lon="1.70568">
        <ele>2349.21</ele>
        <time>2024-11-02T11:24:43Z</time>
      </trkpt>
      <trkpt lat="42.23517" lon="1.70568">
        <ele>2349.51</ele>
        <time>2024-11-02T11:24:45Z</time>
      </trkpt>
      <trkpt lat="42.23514" lon="1.70563">
        <ele>2350.37</ele>
        <time>2024-11-02T11:25:10Z</time>
      </trkpt>
      <trkpt lat="42.23515" lon="1.70563">
        <ele>2350.63</ele>
        <time>2024-11-02T11:25:12Z</time>
      </trkpt>
      <trkpt lat="42.23516" lon="1.70563">
        <ele>2350.65</ele>
        <time>2024-11-02T11:25:15Z</time>
      </trkpt>
      <trkpt lat="42.23517" lon="1.70558">
        <ele>2350.9</ele>
        <time>2024-11-02T11:25:38Z</time>
      </trkpt>
      <trkpt lat="42.23516" lon="1.70557">
        <ele>2350.85</ele>
        <time>2024-11-02T11:25:45Z</time>
      </trkpt>
      <trkpt lat="42.23516" lon="1.70559">
        <ele>2350.87</ele>
        <time>2024-11-02T11:26:03Z</time>
      </trkpt>
      <trkpt lat="42.23516" lon="1.70561">
        <ele>2351.75</ele>
        <time>2024-11-02T11:26:19Z</time>
      </trkpt>
      <trkpt lat="42.23511" lon="1.70556">
        <ele>2351.04</ele>
        <time>2024-11-02T11:26:32Z</time>
      </trkpt>
      <trkpt lat="42.23515" lon="1.70568">
        <ele>2351.71</ele>
        <time>2024-11-02T11:27:15Z</time>
      </trkpt>
      <trkpt lat="42.23514" lon="1.70565">
        <ele>2351.03</ele>
        <time>2024-11-02T11:27:52Z</time>
      </trkpt>
      <trkpt lat="42.23514" lon="1.7056">
        <ele>2351.21</ele>
        <time>2024-11-02T11:28:11Z</time>
      </trkpt>
      <trkpt lat="42.23516" lon="1.7056">
        <ele>2352.16</ele>
        <time>2024-11-02T11:28:32Z</time>
      </trkpt>
      <trkpt lat="42.23516" lon="1.70563">
        <ele>2352.47</ele>
        <time>2024-11-02T11:28:56Z</time>
      </trkpt>
      <trkpt lat="42.23518" lon="1.70564">
        <ele>2352</ele>
        <time>2024-11-02T11:29:40Z</time>
      </trkpt>
      <trkpt lat="42.23521" lon="1.70562">
        <ele>2353.65</ele>
        <time>2024-11-02T11:29:51Z</time>
      </trkpt>
      <trkpt lat="42.23522" lon="1.70564">
        <ele>2352.73</ele>
        <time>2024-11-02T11:30:09Z</time>
      </trkpt>
      <trkpt lat="42.23521" lon="1.70566">
        <ele>2352.57</ele>
        <time>2024-11-02T11:30:25Z</time>
      </trkpt>
      <trkpt lat="42.23517" lon="1.7056">
        <ele>2352.41</ele>
        <time>2024-11-02T11:30:42Z</time>
      </trkpt>
      <trkpt lat="42.23516" lon="1.70558">
        <ele>2353.74</ele>
        <time>2024-11-02T11:30:44Z</time>
      </trkpt>
      <trkpt lat="42.23512" lon="1.70553">
        <ele>2354.74</ele>
        <time>2024-11-02T11:31:05Z</time>
      </trkpt>
      <trkpt lat="42.23515" lon="1.70558">
        <ele>2356.17</ele>
        <time>2024-11-02T11:31:13Z</time>
      </trkpt>
      <trkpt lat="42.23515" lon="1.70563">
        <ele>2356.89</ele>
        <time>2024-11-02T11:31:28Z</time>
      </trkpt>
      <trkpt lat="42.23516" lon="1.7056">
        <ele>2356.76</ele>
        <time>2024-11-02T11:31:51Z</time>
      </trkpt>
      <trkpt lat="42.23518" lon="1.70562">
        <ele>2356.76</ele>
        <time>2024-11-02T11:32:11Z</time>
      </trkpt>
      <trkpt lat="42.23514" lon="1.70561">
        <ele>2358.72</ele>
        <time>2024-11-02T11:32:29Z</time>
      </trkpt>
      <trkpt lat="42.23513" lon="1.70555">
        <ele>2359.83</ele>
        <time>2024-11-02T11:32:42Z</time>
      </trkpt>
      <trkpt lat="42.23515" lon="1.70551">
        <ele>2358.76</ele>
        <time>2024-11-02T11:32:58Z</time>
      </trkpt>
      <trkpt lat="42.23513" lon="1.70552">
        <ele>2359.33</ele>
        <time>2024-11-02T11:33:13Z</time>
      </trkpt>
      <trkpt lat="42.23515" lon="1.70556">
        <ele>2359.63</ele>
        <time>2024-11-02T11:33:24Z</time>
      </trkpt>
      <trkpt lat="42.23518" lon="1.70559">
        <ele>2358.69</ele>
        <time>2024-11-02T11:33:33Z</time>
      </trkpt>
      <trkpt lat="42.23516" lon="1.7056">
        <ele>2358.61</ele>
        <time>2024-11-02T11:33:53Z</time>
      </trkpt>
      <trkpt lat="42.23516" lon="1.70559">
        <ele>2360.43</ele>
        <time>2024-11-02T11:33:57Z</time>
      </trkpt>
      <trkpt lat="42.23517" lon="1.70562">
        <ele>2360.85</ele>
        <time>2024-11-02T11:34:12Z</time>
      </trkpt>
      <trkpt lat="42.23521" lon="1.70567">
        <ele>2361.46</ele>
        <time>2024-11-02T11:34:27Z</time>
      </trkpt>
      <trkpt lat="42.23517" lon="1.70564">
        <ele>2361.83</ele>
        <time>2024-11-02T11:34:46Z</time>
      </trkpt>
      <trkpt lat="42.23517" lon="1.7056">
        <ele>2360.23</ele>
        <time>2024-11-02T11:35:00Z</time>
      </trkpt>
      <trkpt lat="42.23517" lon="1.7056">
        <ele>2360.54</ele>
        <time>2024-11-02T11:35:01Z</time>
      </trkpt>
      <trkpt lat="42.2352" lon="1.70561">
        <ele>2361.93</ele>
        <time>2024-11-02T11:35:18Z</time>
      </trkpt>
      <trkpt lat="42.23518" lon="1.70556">
        <ele>2361.83</ele>
        <time>2024-11-02T11:35:40Z</time>
      </trkpt>
      <trkpt lat="42.23518" lon="1.70554">
        <ele>2365.56</ele>
        <time>2024-11-02T11:36:01Z</time>
      </trkpt>
      <trkpt lat="42.23516" lon="1.70554">
        <ele>2364.15</ele>
        <time>2024-11-02T11:36:20Z</time>
      </trkpt>
      <trkpt lat="42.23515" lon="1.70554">
        <ele>2363.95</ele>
        <time>2024-11-02T11:36:42Z</time>
      </trkpt>
      <trkpt lat="42.23515" lon="1.70559">
        <ele>2364.31</ele>
        <time>2024-11-02T11:37:02Z</time>
      </trkpt>
      <trkpt lat="42.23514" lon="1.70558">
        <ele>2365.66</ele>
        <time>2024-11-02T11:37:30Z</time>
      </trkpt>
      <trkpt lat="42.23517" lon="1.70564">
        <ele>2366.54</ele>
        <time>2024-11-02T11:37:50Z</time>
      </trkpt>
      <trkpt lat="42.23518" lon="1.70569">
        <ele>2368.04</ele>
        <time>2024-11-02T11:38:11Z</time>
      </trkpt>
      <trkpt lat="42.23518" lon="1.70569">
        <ele>2367.91</ele>
        <time>2024-11-02T11:38:32Z</time>
      </trkpt>
      <trkpt lat="42.23517" lon="1.7057">
        <ele>2369.61</ele>
        <time>2024-11-02T11:38:52Z</time>
      </trkpt>
      <trkpt lat="42.23517" lon="1.70568">
        <ele>2370.38</ele>
        <time>2024-11-02T11:38:58Z</time>
      </trkpt>
      <trkpt lat="42.23516" lon="1.70575">
        <ele>2371.35</ele>
        <time>2024-11-02T11:39:20Z</time>
      </trkpt>
      <trkpt lat="42.23516" lon="1.70576">
        <ele>2374.57</ele>
        <time>2024-11-02T11:39:31Z</time>
      </trkpt>
      <trkpt lat="42.23517" lon="1.70578">
        <ele>2373.66</ele>
        <time>2024-11-02T11:39:38Z</time>
      </trkpt>
      <trkpt lat="42.23518" lon="1.70579">
        <ele>2374.98</ele>
        <time>2024-11-02T11:39:56Z</time>
      </trkpt>
      <trkpt lat="42.23518" lon="1.7058">
        <ele>2373.77</ele>
        <time>2024-11-02T11:40:15Z</time>
      </trkpt>
      <trkpt lat="42.23519" lon="1.7058">
        <ele>2377.04</ele>
        <time>2024-11-02T11:40:22Z</time>
      </trkpt>
      <trkpt lat="42.23519" lon="1.70581">
        <ele>2373.56</ele>
        <time>2024-11-02T11:40:35Z</time>
      </trkpt>
      <trkpt lat="42.23519" lon="1.7058">
        <ele>2376.1</ele>
        <time>2024-11-02T11:40:38Z</time>
      </trkpt>
      <trkpt lat="42.23519" lon="1.7058">
        <ele>2373.26</ele>
        <time>2024-11-02T11:41:02Z</time>
      </trkpt>
      <trkpt lat="42.23517" lon="1.70578">
        <ele>2373.58</ele>
        <time>2024-11-02T11:41:25Z</time>
      </trkpt>
      <trkpt lat="42.23518" lon="1.70579">
        <ele>2377.84</ele>
        <time>2024-11-02T11:41:36Z</time>
      </trkpt>
      <trkpt lat="42.23518" lon="1.70579">
        <ele>2374.55</ele>
        <time>2024-11-02T11:41:39Z</time>
      </trkpt>
      <trkpt lat="42.23518" lon="1.70579">
        <ele>2374.21</ele>
        <time>2024-11-02T11:41:58Z</time>
      </trkpt>
      <trkpt lat="42.23519" lon="1.70579">
        <ele>2375.17</ele>
        <time>2024-11-02T11:42:00Z</time>
      </trkpt>
      <trkpt lat="42.23518" lon="1.70579">
        <ele>2374.73</ele>
        <time>2024-11-02T11:42:24Z</time>
      </trkpt>
      <trkpt lat="42.23517" lon="1.70578">
        <ele>2374.2</ele>
        <time>2024-11-02T11:42:53Z</time>
      </trkpt>
      <trkpt lat="42.23518" lon="1.70579">
        <ele>2375</ele>
        <time>2024-11-02T11:43:19Z</time>
      </trkpt>
      <trkpt lat="42.23519" lon="1.7058">
        <ele>2375.19</ele>
        <time>2024-11-02T11:43:44Z</time>
      </trkpt>
      <trkpt lat="42.23518" lon="1.70581">
        <ele>2375.88</ele>
        <time>2024-11-02T11:44:07Z</time>
      </trkpt>
      <trkpt lat="42.23517" lon="1.7058">
        <ele>2372</ele>
        <time>2024-11-02T11:44:21Z</time>
      </trkpt>
      <trkpt lat="42.23516" lon="1.70585">
        <ele>2374.98</ele>
        <time>2024-11-02T11:44:33Z</time>
      </trkpt>
      <trkpt lat="42.23517" lon="1.70591">
        <ele>2377.67</ele>
        <time>2024-11-02T11:44:53Z</time>
      </trkpt>
      <trkpt lat="42.23517" lon="1.70591">
        <ele>2376.32</ele>
        <time>2024-11-02T11:45:26Z</time>
      </trkpt>
      <trkpt lat="42.23517" lon="1.70593">
        <ele>2378.19</ele>
        <time>2024-11-02T11:46:05Z</time>
      </trkpt>
      <trkpt lat="42.23519" lon="1.70595">
        <ele>2378.23</ele>
        <time>2024-11-02T11:46:26Z</time>
      </trkpt>
      <trkpt lat="42.23518" lon="1.70595">
        <ele>2379.84</ele>
        <time>2024-11-02T11:46:51Z</time>
      </trkpt>
      <trkpt lat="42.23519" lon="1.70594">
        <ele>2378.19</ele>
        <time>2024-11-02T11:47:15Z</time>
      </trkpt>
      <trkpt lat="42.2352" lon="1.70594">
        <ele>2377.82</ele>
        <time>2024-11-02T11:47:49Z</time>
      </trkpt>
      <trkpt lat="42.23519" lon="1.70593">
        <ele>2376.2</ele>
        <time>2024-11-02T11:48:14Z</time>
      </trkpt>
      <trkpt lat="42.23519" lon="1.70593">
        <ele>2377.85</ele>
        <time>2024-11-02T11:48:18Z</time>
      </trkpt>
      <trkpt lat="42.23519" lon="1.70593">
        <ele>2375.67</ele>
        <time>2024-11-02T11:48:39Z</time>
      </trkpt>
      <trkpt lat="42.23519" lon="1.70593">
        <ele>2377.63</ele>
        <time>2024-11-02T11:48:41Z</time>
      </trkpt>
      <trkpt lat="42.23519" lon="1.70594">
        <ele>2378.1</ele>
        <time>2024-11-02T11:49:17Z</time>
      </trkpt>
      <trkpt lat="42.2352" lon="1.70594">
        <ele>2378.44</ele>
        <time>2024-11-02T11:49:49Z</time>
      </trkpt>
      <trkpt lat="42.23519" lon="1.70593">
        <ele>2377.57</ele>
        <time>2024-11-02T11:50:36Z</time>
      </trkpt>
      <trkpt lat="42.23519" lon="1.70593">
        <ele>2379.73</ele>
        <time>2024-11-02T11:50:47Z</time>
      </trkpt>
      <trkpt lat="42.23519" lon="1.70593">
        <ele>2377.87</ele>
        <time>2024-11-02T11:51:13Z</time>
      </trkpt>
      <trkpt lat="42.2352" lon="1.70593">
        <ele>2378.52</ele>
        <time>2024-11-02T11:51:47Z</time>
      </trkpt>
      <trkpt lat="42.2352" lon="1.70594">
        <ele>2379.8</ele>
        <time>2024-11-02T11:52:15Z</time>
      </trkpt>
      <trkpt lat="42.23519" lon="1.70593">
        <ele>2379.01</ele>
        <time>2024-11-02T11:52:28Z</time>
      </trkpt>
      <trkpt lat="42.23519" lon="1.70593">
        <ele>2378.03</ele>
        <time>2024-11-02T11:52:58Z</time>
      </trkpt>
      <trkpt lat="42.2352" lon="1.70593">
        <ele>2377.56</ele>
        <time>2024-11-02T11:53:25Z</time>
      </trkpt>
      <trkpt lat="42.2352" lon="1.70593">
        <ele>2378.61</ele>
        <time>2024-11-02T11:53:32Z</time>
      </trkpt>
      <trkpt lat="42.2352" lon="1.70593">
        <ele>2377.91</ele>
        <time>2024-11-02T11:53:46Z</time>
      </trkpt>
      <trkpt lat="42.2352" lon="1.70592">
        <ele>2380.01</ele>
        <time>2024-11-02T11:53:56Z</time>
      </trkpt>
      <trkpt lat="42.2352" lon="1.70594">
        <ele>2379.15</ele>
        <time>2024-11-02T11:54:15Z</time>
      </trkpt>
      <trkpt lat="42.2352" lon="1.70594">
        <ele>2380.28</ele>
        <time>2024-11-02T11:54:20Z</time>
      </trkpt>
      <trkpt lat="42.23519" lon="1.70594">
        <ele>2379.34</ele>
        <time>2024-11-02T11:54:22Z</time>
      </trkpt>
      <trkpt lat="42.23518" lon="1.70593">
        <ele>2378.01</ele>
        <time>2024-11-02T11:54:46Z</time>
      </trkpt>
      <trkpt lat="42.23516" lon="1.70594">
        <ele>2378.28</ele>
        <time>2024-11-02T11:55:12Z</time>
      </trkpt>
      <trkpt lat="42.23515" lon="1.70597">
        <ele>2380.31</ele>
        <time>2024-11-02T11:55:35Z</time>
      </trkpt>
      <trkpt lat="42.23515" lon="1.70603">
        <ele>2382.09</ele>
        <time>2024-11-02T11:55:57Z</time>
      </trkpt>
      <trkpt lat="42.23514" lon="1.70605">
        <ele>2382.62</ele>
        <time>2024-11-02T11:56:14Z</time>
      </trkpt>
      <trkpt lat="42.23514" lon="1.70607">
        <ele>2385.52</ele>
        <time>2024-11-02T11:56:41Z</time>
      </trkpt>
      <trkpt lat="42.23514" lon="1.7061">
        <ele>2386.21</ele>
        <time>2024-11-02T11:57:03Z</time>
      </trkpt>
      <trkpt lat="42.23513" lon="1.70611">
        <ele>2388.27</ele>
        <time>2024-11-02T11:57:16Z</time>
      </trkpt>
      <trkpt lat="42.2351" lon="1.70616">
        <ele>2388.8</ele>
        <time>2024-11-02T11:57:32Z</time>
      </trkpt>
      <trkpt lat="42.23509" lon="1.7062">
        <ele>2391.42</ele>
        <time>2024-11-02T11:57:46Z</time>
      </trkpt>
      <trkpt lat="42.23509" lon="1.70622">
        <ele>2392.78</ele>
        <time>2024-11-02T11:57:51Z</time>
      </trkpt>
      <trkpt lat="42.23509" lon="1.70629">
        <ele>2393.41</ele>
        <time>2024-11-02T11:58:09Z</time>
      </trkpt>
      <trkpt lat="42.2351" lon="1.70633">
        <ele>2396.53</ele>
        <time>2024-11-02T11:58:21Z</time>
      </trkpt>
      <trkpt lat="42.2351" lon="1.70633">
        <ele>2396.63</ele>
        <time>2024-11-02T11:58:22Z</time>
      </trkpt>
      <trkpt lat="42.23511" lon="1.70639">
        <ele>2396.67</ele>
        <time>2024-11-02T11:58:45Z</time>
      </trkpt>
      <trkpt lat="42.23512" lon="1.70643">
        <ele>2399.86</ele>
        <time>2024-11-02T11:59:00Z</time>
      </trkpt>
      <trkpt lat="42.23513" lon="1.70646">
        <ele>2401.19</ele>
        <time>2024-11-02T11:59:20Z</time>
      </trkpt>
      <trkpt lat="42.23511" lon="1.7065">
        <ele>2404.53</ele>
        <time>2024-11-02T11:59:38Z</time>
      </trkpt>
      <trkpt lat="42.23509" lon="1.7065">
        <ele>2405</ele>
        <time>2024-11-02T11:59:58Z</time>
      </trkpt>
      <trkpt lat="42.23508" lon="1.70651">
        <ele>2407.33</ele>
        <time>2024-11-02T12:00:13Z</time>
      </trkpt>
      <trkpt lat="42.23508" lon="1.70651">
        <ele>2406.27</ele>
        <time>2024-11-02T12:00:19Z</time>
      </trkpt>
      <trkpt lat="42.23506" lon="1.70654">
        <ele>2408.73</ele>
        <time>2024-11-02T12:00:32Z</time>
      </trkpt>
      <trkpt lat="42.23505" lon="1.70655">
        <ele>2409.84</ele>
        <time>2024-11-02T12:00:38Z</time>
      </trkpt>
      <trkpt lat="42.23507" lon="1.70655">
        <ele>2409.38</ele>
        <time>2024-11-02T12:00:57Z</time>
      </trkpt>
      <trkpt lat="42.23505" lon="1.70657">
        <ele>2412.26</ele>
        <time>2024-11-02T12:01:15Z</time>
      </trkpt>
      <trkpt lat="42.23506" lon="1.70659">
        <ele>2414.67</ele>
        <time>2024-11-02T12:01:31Z</time>
      </trkpt>
      <trkpt lat="42.23507" lon="1.70661">
        <ele>2416.83</ele>
        <time>2024-11-02T12:01:41Z</time>
      </trkpt>
      <trkpt lat="42.23509" lon="1.70661">
        <ele>2415.25</ele>
        <time>2024-11-02T12:01:47Z</time>
      </trkpt>
      <trkpt lat="42.23512" lon="1.70662">
        <ele>2418.5</ele>
        <time>2024-11-02T12:02:08Z</time>
      </trkpt>
      <trkpt lat="42.23515" lon="1.70662">
        <ele>2419.55</ele>
        <time>2024-11-02T12:02:29Z</time>
      </trkpt>
      <trkpt lat="42.23517" lon="1.70663">
        <ele>2421.19</ele>
        <time>2024-11-02T12:02:51Z</time>
      </trkpt>
      <trkpt lat="42.2352" lon="1.70663">
        <ele>2423.47</ele>
        <time>2024-11-02T12:03:09Z</time>
      </trkpt>
      <trkpt lat="42.23522" lon="1.70664">
        <ele>2426.69</ele>
        <time>2024-11-02T12:03:18Z</time>
      </trkpt>
      <trkpt lat="42.23522" lon="1.70664">
        <ele>2426.84</ele>
        <time>2024-11-02T12:03:19Z</time>
      </trkpt>
      <trkpt lat="42.23525" lon="1.70666">
        <ele>2427.69</ele>
        <time>2024-11-02T12:03:30Z</time>
      </trkpt>
      <trkpt lat="42.23526" lon="1.70664">
        <ele>2428.24</ele>
        <time>2024-11-02T12:03:44Z</time>
      </trkpt>
      <trkpt lat="42.2353" lon="1.70667">
        <ele>2427.35</ele>
        <time>2024-11-02T12:03:58Z</time>
      </trkpt>
      <trkpt lat="42.2353" lon="1.70668">
        <ele>2429.3</ele>
        <time>2024-11-02T12:04:00Z</time>
      </trkpt>
      <trkpt lat="42.23534" lon="1.7067">
        <ele>2432.5</ele>
        <time>2024-11-02T12:04:09Z</time>
      </trkpt>
      <trkpt lat="42.23534" lon="1.7067">
        <ele>2432.48</ele>
        <time>2024-11-02T12:04:10Z</time>
      </trkpt>
      <trkpt lat="42.23536" lon="1.70668">
        <ele>2428.18</ele>
        <time>2024-11-02T12:04:22Z</time>
      </trkpt>
      <trkpt lat="42.23536" lon="1.70668">
        <ele>2430.85</ele>
        <time>2024-11-02T12:04:23Z</time>
      </trkpt>
      <trkpt lat="42.23538" lon="1.70669">
        <ele>2433.5</ele>
        <time>2024-11-02T12:04:28Z</time>
      </trkpt>
      <trkpt lat="42.23538" lon="1.70669">
        <ele>2428.4</ele>
        <time>2024-11-02T12:04:31Z</time>
      </trkpt>
      <trkpt lat="42.23539" lon="1.7067">
        <ele>2430.78</ele>
        <time>2024-11-02T12:04:32Z</time>
      </trkpt>
      <trkpt lat="42.23539" lon="1.7067">
        <ele>2434.01</ele>
        <time>2024-11-02T12:04:35Z</time>
      </trkpt>
      <trkpt lat="42.2354" lon="1.7067">
        <ele>2433.9</ele>
        <time>2024-11-02T12:04:36Z</time>
      </trkpt>
      <trkpt lat="42.23541" lon="1.70671">
        <ele>2438.42</ele>
        <time>2024-11-02T12:04:45Z</time>
      </trkpt>
      <trkpt lat="42.23541" lon="1.70672">
        <ele>2437.46</ele>
        <time>2024-11-02T12:04:46Z</time>
      </trkpt>
      <trkpt lat="42.23542" lon="1.70673">
        <ele>2434.31</ele>
        <time>2024-11-02T12:04:49Z</time>
      </trkpt>
      <trkpt lat="42.23543" lon="1.70674">
        <ele>2433.58</ele>
        <time>2024-11-02T12:04:57Z</time>
      </trkpt>
      <trkpt lat="42.23543" lon="1.70674">
        <ele>2435.65</ele>
        <time>2024-11-02T12:04:59Z</time>
      </trkpt>
      <trkpt lat="42.23543" lon="1.70675">
        <ele>2439.46</ele>
        <time>2024-11-02T12:05:01Z</time>
      </trkpt>
      <trkpt lat="42.23543" lon="1.70675">
        <ele>2436.06</ele>
        <time>2024-11-02T12:05:03Z</time>
      </trkpt>
      <trkpt lat="42.23544" lon="1.70679">
        <ele>2438.55</ele>
        <time>2024-11-02T12:05:09Z</time>
      </trkpt>
      <trkpt lat="42.23545" lon="1.70682">
        <ele>2439.03</ele>
        <time>2024-11-02T12:05:15Z</time>
      </trkpt>
      <trkpt lat="42.23547" lon="1.70681">
        <ele>2441.22</ele>
        <time>2024-11-02T12:05:23Z</time>
      </trkpt>
      <trkpt lat="42.23548" lon="1.70681">
        <ele>2438.05</ele>
        <time>2024-11-02T12:05:26Z</time>
      </trkpt>
      <trkpt lat="42.23548" lon="1.70682">
        <ele>2439.84</ele>
        <time>2024-11-02T12:05:31Z</time>
      </trkpt>
      <trkpt lat="42.23551" lon="1.70685">
        <ele>2440.07</ele>
        <time>2024-11-02T12:05:47Z</time>
      </trkpt>
      <trkpt lat="42.23551" lon="1.70685">
        <ele>2440.4</ele>
        <time>2024-11-02T12:05:48Z</time>
      </trkpt>
      <trkpt lat="42.23552" lon="1.70685">
        <ele>2442.05</ele>
        <time>2024-11-02T12:05:50Z</time>
      </trkpt>
      <trkpt lat="42.23552" lon="1.70686">
        <ele>2441.93</ele>
        <time>2024-11-02T12:06:07Z</time>
      </trkpt>
      <trkpt lat="42.23553" lon="1.70686">
        <ele>2443.43</ele>
        <time>2024-11-02T12:06:10Z</time>
      </trkpt>
      <trkpt lat="42.23553" lon="1.70686">
        <ele>2440.09</ele>
        <time>2024-11-02T12:06:12Z</time>
      </trkpt>
      <trkpt lat="42.23553" lon="1.70686">
        <ele>2443.51</ele>
        <time>2024-11-02T12:06:13Z</time>
      </trkpt>
      <trkpt lat="42.23553" lon="1.70687">
        <ele>2444.61</ele>
        <time>2024-11-02T12:06:18Z</time>
      </trkpt>
      <trkpt lat="42.23553" lon="1.70687">
        <ele>2445.02</ele>
        <time>2024-11-02T12:06:28Z</time>
      </trkpt>
      <trkpt lat="42.23553" lon="1.70687">
        <ele>2441.12</ele>
        <time>2024-11-02T12:06:30Z</time>
      </trkpt>
      <trkpt lat="42.23553" lon="1.70687">
        <ele>2445.75</ele>
        <time>2024-11-02T12:06:32Z</time>
      </trkpt>
      <trkpt lat="42.23553" lon="1.70687">
        <ele>2441.78</ele>
        <time>2024-11-02T12:06:36Z</time>
      </trkpt>
      <trkpt lat="42.23553" lon="1.70687">
        <ele>2441.95</ele>
        <time>2024-11-02T12:06:37Z</time>
      </trkpt>
      <trkpt lat="42.23553" lon="1.70688">
        <ele>2446.53</ele>
        <time>2024-11-02T12:06:59Z</time>
      </trkpt>
      <trkpt lat="42.23553" lon="1.70688">
        <ele>2444.71</ele>
        <time>2024-11-02T12:07:00Z</time>
      </trkpt>
      <trkpt lat="42.23553" lon="1.70688">
        <ele>2446.1</ele>
        <time>2024-11-02T12:07:06Z</time>
      </trkpt>
      <trkpt lat="42.23553" lon="1.70688">
        <ele>2443.26</ele>
        <time>2024-11-02T12:07:10Z</time>
      </trkpt>
      <trkpt lat="42.23553" lon="1.70688">
        <ele>2443.93</ele>
        <time>2024-11-02T12:07:20Z</time>
      </trkpt>
      <trkpt lat="42.23554" lon="1.70688">
        <ele>2438.58</ele>
        <time>2024-11-02T12:07:27Z</time>
      </trkpt>
      <trkpt lat="42.23554" lon="1.70688">
        <ele>2440.41</ele>
        <time>2024-11-02T12:07:28Z</time>
      </trkpt>
      <trkpt lat="42.23555" lon="1.70688">
        <ele>2444</ele>
        <time>2024-11-02T12:07:31Z</time>
      </trkpt>
      <trkpt lat="42.23555" lon="1.70688">
        <ele>2443.2</ele>
        <time>2024-11-02T12:07:32Z</time>
      </trkpt>
      <trkpt lat="42.23555" lon="1.70688">
        <ele>2441.98</ele>
        <time>2024-11-02T12:07:34Z</time>
      </trkpt>
      <trkpt lat="42.23555" lon="1.70688">
        <ele>2443.15</ele>
        <time>2024-11-02T12:07:36Z</time>
      </trkpt>
      <trkpt lat="42.23555" lon="1.70688">
        <ele>2442.03</ele>
        <time>2024-11-02T12:07:38Z</time>
      </trkpt>
      <trkpt lat="42.23555" lon="1.70688">
        <ele>2442.91</ele>
        <time>2024-11-02T12:07:40Z</time>
      </trkpt>
      <trkpt lat="42.23556" lon="1.70688">
        <ele>2441.52</ele>
        <time>2024-11-02T12:07:55Z</time>
      </trkpt>
      <trkpt lat="42.23556" lon="1.70688">
        <ele>2444.56</ele>
        <time>2024-11-02T12:07:58Z</time>
      </trkpt>
      <trkpt lat="42.23556" lon="1.70688">
        <ele>2443.88</ele>
        <time>2024-11-02T12:07:59Z</time>
      </trkpt>
      <trkpt lat="42.23556" lon="1.70688">
        <ele>2442.44</ele>
        <time>2024-11-02T12:08:05Z</time>
      </trkpt>
      <trkpt lat="42.23556" lon="1.70689">
        <ele>2440.44</ele>
        <time>2024-11-02T12:08:07Z</time>
      </trkpt>
      <trkpt lat="42.23556" lon="1.7069">
        <ele>2443.87</ele>
        <time>2024-11-02T12:08:16Z</time>
      </trkpt>
      <trkpt lat="42.23556" lon="1.70691">
        <ele>2442.24</ele>
        <time>2024-11-02T12:08:19Z</time>
      </trkpt>
      <trkpt lat="42.23556" lon="1.70691">
        <ele>2441.19</ele>
        <time>2024-11-02T12:08:21Z</time>
      </trkpt>
      <trkpt lat="42.23556" lon="1.70691">
        <ele>2442.33</ele>
        <time>2024-11-02T12:08:42Z</time>
      </trkpt>
      <trkpt lat="42.23556" lon="1.7069">
        <ele>2444.32</ele>
        <time>2024-11-02T12:08:44Z</time>
      </trkpt>
      <trkpt lat="42.23556" lon="1.7069">
        <ele>2443.23</ele>
        <time>2024-11-02T12:08:46Z</time>
      </trkpt>
      <trkpt lat="42.23556" lon="1.7069">
        <ele>2443.21</ele>
        <time>2024-11-02T12:09:10Z</time>
      </trkpt>
      <trkpt lat="42.23556" lon="1.7069">
        <ele>2444.43</ele>
        <time>2024-11-02T12:09:18Z</time>
      </trkpt>
      <trkpt lat="42.23556" lon="1.7069">
        <ele>2441.11</ele>
        <time>2024-11-02T12:09:29Z</time>
      </trkpt>
      <trkpt lat="42.23556" lon="1.7069">
        <ele>2445.02</ele>
        <time>2024-11-02T12:09:32Z</time>
      </trkpt>
      <trkpt lat="42.23556" lon="1.7069">
        <ele>2444.09</ele>
        <time>2024-11-02T12:09:33Z</time>
      </trkpt>
      <trkpt lat="42.23556" lon="1.7069">
        <ele>2443.14</ele>
        <time>2024-11-02T12:09:48Z</time>
      </trkpt>
      <trkpt lat="42.23556" lon="1.7069">
        <ele>2442.93</ele>
        <time>2024-11-02T12:10:12Z</time>
      </trkpt>
      <trkpt lat="42.23556" lon="1.70691">
        <ele>2442.63</ele>
        <time>2024-11-02T12:10:44Z</time>
      </trkpt>
      <trkpt lat="42.23556" lon="1.70691">
        <ele>2442.08</ele>
        <time>2024-11-02T12:10:51Z</time>
      </trkpt>
      <trkpt lat="42.23556" lon="1.70691">
        <ele>2439.27</ele>
        <time>2024-11-02T12:10:55Z</time>
      </trkpt>
      <trkpt lat="42.23555" lon="1.70692">
        <ele>2442.38</ele>
        <time>2024-11-02T12:11:25Z</time>
      </trkpt>
      <trkpt lat="42.23556" lon="1.70691">
        <ele>2440.23</ele>
        <time>2024-11-02T12:11:38Z</time>
      </trkpt>
      <trkpt lat="42.23555" lon="1.70693">
        <ele>2442.17</ele>
        <time>2024-11-02T12:12:19Z</time>
      </trkpt>
      <trkpt lat="42.23555" lon="1.70693">
        <ele>2440.61</ele>
        <time>2024-11-02T12:12:28Z</time>
      </trkpt>
      <trkpt lat="42.23555" lon="1.70693">
        <ele>2442.44</ele>
        <time>2024-11-02T12:13:01Z</time>
      </trkpt>
      <trkpt lat="42.23555" lon="1.70693">
        <ele>2442.64</ele>
        <time>2024-11-02T12:13:06Z</time>
      </trkpt>
      <trkpt lat="42.23556" lon="1.70693">
        <ele>2440.81</ele>
        <time>2024-11-02T12:13:09Z</time>
      </trkpt>
      <trkpt lat="42.23554" lon="1.70695">
        <ele>2439.85</ele>
        <time>2024-11-02T12:13:11Z</time>
      </trkpt>
      <trkpt lat="42.23554" lon="1.70695">
        <ele>2440.77</ele>
        <time>2024-11-02T12:13:15Z</time>
      </trkpt>
      <trkpt lat="42.23554" lon="1.70694">
        <ele>2437.16</ele>
        <time>2024-11-02T12:13:16Z</time>
      </trkpt>
      <trkpt lat="42.23554" lon="1.70694">
        <ele>2438.18</ele>
        <time>2024-11-02T12:13:17Z</time>
      </trkpt>
      <trkpt lat="42.23554" lon="1.70694">
        <ele>2439.25</ele>
        <time>2024-11-02T12:13:19Z</time>
      </trkpt>
      <trkpt lat="42.23554" lon="1.70694">
        <ele>2442.8</ele>
        <time>2024-11-02T12:13:21Z</time>
      </trkpt>
      <trkpt lat="42.23554" lon="1.70694">
        <ele>2442.82</ele>
        <time>2024-11-02T12:13:22Z</time>
      </trkpt>
      <trkpt lat="42.23554" lon="1.70694">
        <ele>2441.05</ele>
        <time>2024-11-02T12:13:25Z</time>
      </trkpt>
      <trkpt lat="42.23555" lon="1.70693">
        <ele>2442.72</ele>
        <time>2024-11-02T12:13:29Z</time>
      </trkpt>
      <trkpt lat="42.23555" lon="1.70693">
        <ele>2445.93</ele>
        <time>2024-11-02T12:13:46Z</time>
      </trkpt>
      <trkpt lat="42.23554" lon="1.70692">
        <ele>2442.52</ele>
        <time>2024-11-02T12:13:48Z</time>
      </trkpt>
      <trkpt lat="42.23554" lon="1.70691">
        <ele>2442.41</ele>
        <time>2024-11-02T12:13:49Z</time>
      </trkpt>
      <trkpt lat="42.23555" lon="1.70696">
        <ele>2442.92</ele>
        <time>2024-11-02T12:14:13Z</time>
      </trkpt>
      <trkpt lat="42.23555" lon="1.70695">
        <ele>2445.49</ele>
        <time>2024-11-02T12:14:20Z</time>
      </trkpt>
      <trkpt lat="42.23556" lon="1.70695">
        <ele>2444.75</ele>
        <time>2024-11-02T12:14:41Z</time>
      </trkpt>
      <trkpt lat="42.23557" lon="1.70695">
        <ele>2441.29</ele>
        <time>2024-11-02T12:14:44Z</time>
      </trkpt>
      <trkpt lat="42.23556" lon="1.70695">
        <ele>2442.34</ele>
        <time>2024-11-02T12:14:45Z</time>
      </trkpt>
      <trkpt lat="42.23556" lon="1.70695">
        <ele>2444.64</ele>
        <time>2024-11-02T12:14:49Z</time>
      </trkpt>
      <trkpt lat="42.23556" lon="1.70695">
        <ele>2443.57</ele>
        <time>2024-11-02T12:15:11Z</time>
      </trkpt>
      <trkpt lat="42.23556" lon="1.70695">
        <ele>2445.08</ele>
        <time>2024-11-02T12:15:14Z</time>
      </trkpt>
      <trkpt lat="42.23556" lon="1.70695">
        <ele>2443.5</ele>
        <time>2024-11-02T12:15:28Z</time>
      </trkpt>
      <trkpt lat="42.23557" lon="1.70696">
        <ele>2443.3</ele>
        <time>2024-11-02T12:15:56Z</time>
      </trkpt>
      <trkpt lat="42.23558" lon="1.70702">
        <ele>2443.35</ele>
        <time>2024-11-02T12:16:08Z</time>
      </trkpt>
      <trkpt lat="42.23558" lon="1.70704">
        <ele>2445.65</ele>
        <time>2024-11-02T12:16:28Z</time>
      </trkpt>
      <trkpt lat="42.23556" lon="1.70706">
        <ele>2441.14</ele>
        <time>2024-11-02T12:16:42Z</time>
      </trkpt>
      <trkpt lat="42.23556" lon="1.70711">
        <ele>2442.6</ele>
        <time>2024-11-02T12:16:54Z</time>
      </trkpt>
      <trkpt lat="42.23553" lon="1.70713">
        <ele>2445.44</ele>
        <time>2024-11-02T12:17:07Z</time>
      </trkpt>
      <trkpt lat="42.23553" lon="1.70713">
        <ele>2440.42</ele>
        <time>2024-11-02T12:17:12Z</time>
      </trkpt>
      <trkpt lat="42.23552" lon="1.70713">
        <ele>2442.63</ele>
        <time>2024-11-02T12:17:13Z</time>
      </trkpt>
      <trkpt lat="42.23551" lon="1.70713">
        <ele>2439.5</ele>
        <time>2024-11-02T12:17:19Z</time>
      </trkpt>
      <trkpt lat="42.23547" lon="1.70714">
        <ele>2435.88</ele>
        <time>2024-11-02T12:17:39Z</time>
      </trkpt>
      <trkpt lat="42.23546" lon="1.70718">
        <ele>2435.16</ele>
        <time>2024-11-02T12:17:49Z</time>
      </trkpt>
      <trkpt lat="42.23546" lon="1.70719">
        <ele>2436.76</ele>
        <time>2024-11-02T12:17:53Z</time>
      </trkpt>
      <trkpt lat="42.23546" lon="1.70719">
        <ele>2433.29</ele>
        <time>2024-11-02T12:17:55Z</time>
      </trkpt>
      <trkpt lat="42.23546" lon="1.70719">
        <ele>2433.44</ele>
        <time>2024-11-02T12:17:56Z</time>
      </trkpt>
      <trkpt lat="42.23545" lon="1.70719">
        <ele>2436.63</ele>
        <time>2024-11-02T12:18:01Z</time>
      </trkpt>
      <trkpt lat="42.23544" lon="1.70718">
        <ele>2436.58</ele>
        <time>2024-11-02T12:18:02Z</time>
      </trkpt>
      <trkpt lat="42.23544" lon="1.70719">
        <ele>2433.3</ele>
        <time>2024-11-02T12:18:09Z</time>
      </trkpt>
      <trkpt lat="42.23544" lon="1.7072">
        <ele>2436.77</ele>
        <time>2024-11-02T12:18:15Z</time>
      </trkpt>
      <trkpt lat="42.23543" lon="1.7072">
        <ele>2435.97</ele>
        <time>2024-11-02T12:18:16Z</time>
      </trkpt>
      <trkpt lat="42.23543" lon="1.7072">
        <ele>2434.97</ele>
        <time>2024-11-02T12:18:18Z</time>
      </trkpt>
      <trkpt lat="42.2354" lon="1.7072">
        <ele>2431.93</ele>
        <time>2024-11-02T12:18:26Z</time>
      </trkpt>
      <trkpt lat="42.2354" lon="1.70724">
        <ele>2429.58</ele>
        <time>2024-11-02T12:18:40Z</time>
      </trkpt>
      <trkpt lat="42.2354" lon="1.70724">
        <ele>2427.56</ele>
        <time>2024-11-02T12:18:42Z</time>
      </trkpt>
      <trkpt lat="42.23539" lon="1.70725">
        <ele>2426.63</ele>
        <time>2024-11-02T12:18:47Z</time>
      </trkpt>
      <trkpt lat="42.23539" lon="1.70726">
        <ele>2431.45</ele>
        <time>2024-11-02T12:18:48Z</time>
      </trkpt>
      <trkpt lat="42.23539" lon="1.70726">
        <ele>2431.7</ele>
        <time>2024-11-02T12:18:49Z</time>
      </trkpt>
      <trkpt lat="42.23539" lon="1.70726">
        <ele>2426.27</ele>
        <time>2024-11-02T12:18:50Z</time>
      </trkpt>
      <trkpt lat="42.23538" lon="1.70726">
        <ele>2430.78</ele>
        <time>2024-11-02T12:18:51Z</time>
      </trkpt>
      <trkpt lat="42.23538" lon="1.70727">
        <ele>2423.39</ele>
        <time>2024-11-02T12:18:53Z</time>
      </trkpt>
      <trkpt lat="42.23538" lon="1.70727">
        <ele>2425.82</ele>
        <time>2024-11-02T12:18:54Z</time>
      </trkpt>
      <trkpt lat="42.23538" lon="1.70729">
        <ele>2422.75</ele>
        <time>2024-11-02T12:18:58Z</time>
      </trkpt>
      <trkpt lat="42.23537" lon="1.70731">
        <ele>2424.61</ele>
        <time>2024-11-02T12:19:05Z</time>
      </trkpt>
      <trkpt lat="42.23537" lon="1.70731">
        <ele>2427.23</ele>
        <time>2024-11-02T12:19:08Z</time>
      </trkpt>
      <trkpt lat="42.23537" lon="1.70731">
        <ele>2424.18</ele>
        <time>2024-11-02T12:19:22Z</time>
      </trkpt>
      <trkpt lat="42.23537" lon="1.70731">
        <ele>2425.08</ele>
        <time>2024-11-02T12:19:44Z</time>
      </trkpt>
      <trkpt lat="42.23535" lon="1.70732">
        <ele>2422.46</ele>
        <time>2024-11-02T12:19:56Z</time>
      </trkpt>
      <trkpt lat="42.23534" lon="1.70735">
        <ele>2418.56</ele>
        <time>2024-11-02T12:20:07Z</time>
      </trkpt>
      <trkpt lat="42.23534" lon="1.70736">
        <ele>2421.87</ele>
        <time>2024-11-02T12:20:09Z</time>
      </trkpt>
      <trkpt lat="42.23535" lon="1.70736">
        <ele>2418.59</ele>
        <time>2024-11-02T12:20:11Z</time>
      </trkpt>
      <trkpt lat="42.23535" lon="1.70737">
        <ele>2421.58</ele>
        <time>2024-11-02T12:20:28Z</time>
      </trkpt>
      <trkpt lat="42.23535" lon="1.70738">
        <ele>2417.17</ele>
        <time>2024-11-02T12:20:32Z</time>
      </trkpt>
      <trkpt lat="42.23535" lon="1.70738">
        <ele>2418.55</ele>
        <time>2024-11-02T12:20:33Z</time>
      </trkpt>
      <trkpt lat="42.23535" lon="1.7074">
        <ele>2417.81</ele>
        <time>2024-11-02T12:20:41Z</time>
      </trkpt>
      <trkpt lat="42.23535" lon="1.7074">
        <ele>2421.28</ele>
        <time>2024-11-02T12:20:44Z</time>
      </trkpt>
      <trkpt lat="42.23535" lon="1.7074">
        <ele>2420.58</ele>
        <time>2024-11-02T12:20:45Z</time>
      </trkpt>
      <trkpt lat="42.23536" lon="1.70742">
        <ele>2416.8</ele>
        <time>2024-11-02T12:20:50Z</time>
      </trkpt>
      <trkpt lat="42.23537" lon="1.70744">
        <ele>2419.99</ele>
        <time>2024-11-02T12:20:59Z</time>
      </trkpt>
      <trkpt lat="42.23537" lon="1.70743">
        <ele>2421.43</ele>
        <time>2024-11-02T12:21:01Z</time>
      </trkpt>
      <trkpt lat="42.23535" lon="1.70743">
        <ele>2418.33</ele>
        <time>2024-11-02T12:21:12Z</time>
      </trkpt>
      <trkpt lat="42.23532" lon="1.70745">
        <ele>2417.21</ele>
        <time>2024-11-02T12:21:29Z</time>
      </trkpt>
      <trkpt lat="42.2353" lon="1.70743">
        <ele>2414.31</ele>
        <time>2024-11-02T12:21:49Z</time>
      </trkpt>
      <trkpt lat="42.23528" lon="1.70744">
        <ele>2412.93</ele>
        <time>2024-11-02T12:22:08Z</time>
      </trkpt>
      <trkpt lat="42.23524" lon="1.70746">
        <ele>2411.13</ele>
        <time>2024-11-02T12:22:36Z</time>
      </trkpt>
      <trkpt lat="42.23522" lon="1.70748">
        <ele>2408.07</ele>
        <time>2024-11-02T12:22:54Z</time>
      </trkpt>
      <trkpt lat="42.23519" lon="1.70749">
        <ele>2406.95</ele>
        <time>2024-11-02T12:23:13Z</time>
      </trkpt>
      <trkpt lat="42.2352" lon="1.70748">
        <ele>2406.34</ele>
        <time>2024-11-02T12:23:35Z</time>
      </trkpt>
      <trkpt lat="42.23519" lon="1.70749">
        <ele>2407.5</ele>
        <time>2024-11-02T12:23:57Z</time>
      </trkpt>
      <trkpt lat="42.23519" lon="1.70749">
        <ele>2406.35</ele>
        <time>2024-11-02T12:23:59Z</time>
      </trkpt>
      <trkpt lat="42.2352" lon="1.70749">
        <ele>2407.52</ele>
        <time>2024-11-02T12:24:24Z</time>
      </trkpt>
      <trkpt lat="42.2352" lon="1.70747">
        <ele>2407.9</ele>
        <time>2024-11-02T12:24:51Z</time>
      </trkpt>
      <trkpt lat="42.2352" lon="1.70747">
        <ele>2406.71</ele>
        <time>2024-11-02T12:25:24Z</time>
      </trkpt>
      <trkpt lat="42.2352" lon="1.70747">
        <ele>2407.52</ele>
        <time>2024-11-02T12:25:57Z</time>
      </trkpt>
      <trkpt lat="42.23519" lon="1.70747">
        <ele>2406.55</ele>
        <time>2024-11-02T12:26:20Z</time>
      </trkpt>
      <trkpt lat="42.2352" lon="1.70746">
        <ele>2406.86</ele>
        <time>2024-11-02T12:26:46Z</time>
      </trkpt>
      <trkpt lat="42.23519" lon="1.70746">
        <ele>2408.37</ele>
        <time>2024-11-02T12:27:12Z</time>
      </trkpt>
      <trkpt lat="42.23518" lon="1.70748">
        <ele>2404.84</ele>
        <time>2024-11-02T12:27:31Z</time>
      </trkpt>
      <trkpt lat="42.23518" lon="1.70748">
        <ele>2404.76</ele>
        <time>2024-11-02T12:27:32Z</time>
      </trkpt>
      <trkpt lat="42.23516" lon="1.70746">
        <ele>2401.13</ele>
        <time>2024-11-02T12:27:52Z</time>
      </trkpt>
      <trkpt lat="42.23515" lon="1.70745">
        <ele>2401.12</ele>
        <time>2024-11-02T12:27:53Z</time>
      </trkpt>
      <trkpt lat="42.23512" lon="1.70745">
        <ele>2399.56</ele>
        <time>2024-11-02T12:28:12Z</time>
      </trkpt>
      <trkpt lat="42.23511" lon="1.70743">
        <ele>2398.36</ele>
        <time>2024-11-02T12:28:31Z</time>
      </trkpt>
      <trkpt lat="42.23511" lon="1.70745">
        <ele>2398.02</ele>
        <time>2024-11-02T12:28:52Z</time>
      </trkpt>
      <trkpt lat="42.23511" lon="1.70746">
        <ele>2397.79</ele>
        <time>2024-11-02T12:28:53Z</time>
      </trkpt>
      <trkpt lat="42.2351" lon="1.70746">
        <ele>2397.34</ele>
        <time>2024-11-02T12:29:17Z</time>
      </trkpt>
      <trkpt lat="42.23509" lon="1.7075">
        <ele>2395.25</ele>
        <time>2024-11-02T12:29:37Z</time>
      </trkpt>
      <trkpt lat="42.23509" lon="1.70752">
        <ele>2394.23</ele>
        <time>2024-11-02T12:29:58Z</time>
      </trkpt>
      <trkpt lat="42.23508" lon="1.70756">
        <ele>2392.71</ele>
        <time>2024-11-02T12:30:21Z</time>
      </trkpt>
      <trkpt lat="42.23506" lon="1.70754">
        <ele>2392.46</ele>
        <time>2024-11-02T12:30:44Z</time>
      </trkpt>
      <trkpt lat="42.23505" lon="1.70757">
        <ele>2391.86</ele>
        <time>2024-11-02T12:31:07Z</time>
      </trkpt>
      <trkpt lat="42.23505" lon="1.70758">
        <ele>2390.29</ele>
        <time>2024-11-02T12:31:27Z</time>
      </trkpt>
      <trkpt lat="42.23504" lon="1.70759">
        <ele>2387.5</ele>
        <time>2024-11-02T12:31:48Z</time>
      </trkpt>
      <trkpt lat="42.23503" lon="1.70768">
        <ele>2384.54</ele>
        <time>2024-11-02T12:32:05Z</time>
      </trkpt>
      <trkpt lat="42.23505" lon="1.70775">
        <ele>2384.64</ele>
        <time>2024-11-02T12:32:20Z</time>
      </trkpt>
      <trkpt lat="42.23505" lon="1.70778">
        <ele>2381.45</ele>
        <time>2024-11-02T12:32:26Z</time>
      </trkpt>
      <trkpt lat="42.23505" lon="1.70778">
        <ele>2381.2</ele>
        <time>2024-11-02T12:32:27Z</time>
      </trkpt>
      <trkpt lat="42.23505" lon="1.70784">
        <ele>2378.15</ele>
        <time>2024-11-02T12:32:46Z</time>
      </trkpt>
      <trkpt lat="42.23506" lon="1.70787">
        <ele>2377.57</ele>
        <time>2024-11-02T12:32:58Z</time>
      </trkpt>
      <trkpt lat="42.23506" lon="1.70789">
        <ele>2374.04</ele>
        <time>2024-11-02T12:33:02Z</time>
      </trkpt>
      <trkpt lat="42.23505" lon="1.70789">
        <ele>2377.62</ele>
        <time>2024-11-02T12:33:03Z</time>
      </trkpt>
      <trkpt lat="42.23501" lon="1.70788">
        <ele>2374.5</ele>
        <time>2024-11-02T12:33:15Z</time>
      </trkpt>
      <trkpt lat="42.23498" lon="1.7079">
        <ele>2371.46</ele>
        <time>2024-11-02T12:33:28Z</time>
      </trkpt>
      <trkpt lat="42.23499" lon="1.70789">
        <ele>2369.52</ele>
        <time>2024-11-02T12:33:30Z</time>
      </trkpt>
      <trkpt lat="42.23499" lon="1.70789">
        <ele>2374.42</ele>
        <time>2024-11-02T12:33:32Z</time>
      </trkpt>
      <trkpt lat="42.23501" lon="1.70789">
        <ele>2371.02</ele>
        <time>2024-11-02T12:33:38Z</time>
      </trkpt>
      <trkpt lat="42.23501" lon="1.70789">
        <ele>2370.83</ele>
        <time>2024-11-02T12:33:39Z</time>
      </trkpt>
      <trkpt lat="42.235" lon="1.70791">
        <ele>2371.11</ele>
        <time>2024-11-02T12:33:45Z</time>
      </trkpt>
      <trkpt lat="42.23499" lon="1.70792">
        <ele>2369.33</ele>
        <time>2024-11-02T12:33:50Z</time>
      </trkpt>
      <trkpt lat="42.23492" lon="1.70792">
        <ele>2367.55</ele>
        <time>2024-11-02T12:34:08Z</time>
      </trkpt>
      <trkpt lat="42.2349" lon="1.70792">
        <ele>2361.34</ele>
        <time>2024-11-02T12:34:16Z</time>
      </trkpt>
      <trkpt lat="42.2349" lon="1.70792">
        <ele>2362.46</ele>
        <time>2024-11-02T12:34:17Z</time>
      </trkpt>
      <trkpt lat="42.2349" lon="1.70795">
        <ele>2365.54</ele>
        <time>2024-11-02T12:34:24Z</time>
      </trkpt>
      <trkpt lat="42.23489" lon="1.70795">
        <ele>2365.51</ele>
        <time>2024-11-02T12:34:25Z</time>
      </trkpt>
      <trkpt lat="42.23487" lon="1.70795">
        <ele>2361.39</ele>
        <time>2024-11-02T12:34:34Z</time>
      </trkpt>
      <trkpt lat="42.23487" lon="1.70796">
        <ele>2357.9</ele>
        <time>2024-11-02T12:34:35Z</time>
      </trkpt>
      <trkpt lat="42.23487" lon="1.70796">
        <ele>2360.57</ele>
        <time>2024-11-02T12:34:36Z</time>
      </trkpt>
      <trkpt lat="42.23488" lon="1.70798">
        <ele>2358.35</ele>
        <time>2024-11-02T12:34:41Z</time>
      </trkpt>
      <trkpt lat="42.23488" lon="1.70799">
        <ele>2361.99</ele>
        <time>2024-11-02T12:34:45Z</time>
      </trkpt>
      <trkpt lat="42.23488" lon="1.70799">
        <ele>2361.79</ele>
        <time>2024-11-02T12:34:46Z</time>
      </trkpt>
      <trkpt lat="42.23485" lon="1.708">
        <ele>2359.73</ele>
        <time>2024-11-02T12:34:52Z</time>
      </trkpt>
      <trkpt lat="42.23483" lon="1.70801">
        <ele>2359.09</ele>
        <time>2024-11-02T12:35:01Z</time>
      </trkpt>
      <trkpt lat="42.23481" lon="1.70805">
        <ele>2355.79</ele>
        <time>2024-11-02T12:35:12Z</time>
      </trkpt>
      <trkpt lat="42.23481" lon="1.70806">
        <ele>2359.63</ele>
        <time>2024-11-02T12:35:15Z</time>
      </trkpt>
      <trkpt lat="42.23481" lon="1.70806">
        <ele>2359.49</ele>
        <time>2024-11-02T12:35:16Z</time>
      </trkpt>
      <trkpt lat="42.2348" lon="1.70808">
        <ele>2355.2</ele>
        <time>2024-11-02T12:35:22Z</time>
      </trkpt>
      <trkpt lat="42.2348" lon="1.70808">
        <ele>2358.99</ele>
        <time>2024-11-02T12:35:24Z</time>
      </trkpt>
      <trkpt lat="42.23478" lon="1.70808">
        <ele>2355.71</ele>
        <time>2024-11-02T12:35:28Z</time>
      </trkpt>
      <trkpt lat="42.23477" lon="1.70808">
        <ele>2354.27</ele>
        <time>2024-11-02T12:35:33Z</time>
      </trkpt>
      <trkpt lat="42.23476" lon="1.7081">
        <ele>2351.6</ele>
        <time>2024-11-02T12:35:40Z</time>
      </trkpt>
      <trkpt lat="42.23468" lon="1.70813">
        <ele>2351.92</ele>
        <time>2024-11-02T12:35:56Z</time>
      </trkpt>
      <trkpt lat="42.23467" lon="1.70813">
        <ele>2346.85</ele>
        <time>2024-11-02T12:35:58Z</time>
      </trkpt>
      <trkpt lat="42.23467" lon="1.70814">
        <ele>2347.63</ele>
        <time>2024-11-02T12:35:59Z</time>
      </trkpt>
      <trkpt lat="42.23469" lon="1.70818">
        <ele>2345.54</ele>
        <time>2024-11-02T12:36:11Z</time>
      </trkpt>
      <trkpt lat="42.23468" lon="1.70818">
        <ele>2347.6</ele>
        <time>2024-11-02T12:36:14Z</time>
      </trkpt>
      <trkpt lat="42.23463" lon="1.70821">
        <ele>2344.37</ele>
        <time>2024-11-02T12:36:31Z</time>
      </trkpt>
      <trkpt lat="42.23458" lon="1.70823">
        <ele>2342.06</ele>
        <time>2024-11-02T12:36:46Z</time>
      </trkpt>
      <trkpt lat="42.2346" lon="1.70826">
        <ele>2338.84</ele>
        <time>2024-11-02T12:36:55Z</time>
      </trkpt>
      <trkpt lat="42.2346" lon="1.70826">
        <ele>2341.88</ele>
        <time>2024-11-02T12:36:58Z</time>
      </trkpt>
      <trkpt lat="42.23459" lon="1.70826">
        <ele>2338.68</ele>
        <time>2024-11-02T12:37:05Z</time>
      </trkpt>
      <trkpt lat="42.2346" lon="1.70829">
        <ele>2340.46</ele>
        <time>2024-11-02T12:37:12Z</time>
      </trkpt>
      <trkpt lat="42.23458" lon="1.70829">
        <ele>2338.2</ele>
        <time>2024-11-02T12:37:16Z</time>
      </trkpt>
      <trkpt lat="42.23454" lon="1.70832">
        <ele>2336.03</ele>
        <time>2024-11-02T12:37:33Z</time>
      </trkpt>
      <trkpt lat="42.23454" lon="1.70832">
        <ele>2331.77</ele>
        <time>2024-11-02T12:37:37Z</time>
      </trkpt>
      <trkpt lat="42.23454" lon="1.70833">
        <ele>2330.86</ele>
        <time>2024-11-02T12:37:39Z</time>
      </trkpt>
      <trkpt lat="42.23455" lon="1.70834">
        <ele>2333.46</ele>
        <time>2024-11-02T12:37:49Z</time>
      </trkpt>
      <trkpt lat="42.23454" lon="1.70834">
        <ele>2337.18</ele>
        <time>2024-11-02T12:37:52Z</time>
      </trkpt>
      <trkpt lat="42.23454" lon="1.70834">
        <ele>2336.59</ele>
        <time>2024-11-02T12:37:53Z</time>
      </trkpt>
      <trkpt lat="42.23451" lon="1.70836">
        <ele>2332.56</ele>
        <time>2024-11-02T12:38:03Z</time>
      </trkpt>
      <trkpt lat="42.23451" lon="1.70838">
        <ele>2328.31</ele>
        <time>2024-11-02T12:38:10Z</time>
      </trkpt>
      <trkpt lat="42.23452" lon="1.70839">
        <ele>2328.75</ele>
        <time>2024-11-02T12:38:11Z</time>
      </trkpt>
      <trkpt lat="42.2345" lon="1.7084">
        <ele>2330.49</ele>
        <time>2024-11-02T12:38:14Z</time>
      </trkpt>
      <trkpt lat="42.2345" lon="1.7084">
        <ele>2327.04</ele>
        <time>2024-11-02T12:38:17Z</time>
      </trkpt>
      <trkpt lat="42.2345" lon="1.7084">
        <ele>2328.22</ele>
        <time>2024-11-02T12:38:18Z</time>
      </trkpt>
      <trkpt lat="42.2345" lon="1.70841">
        <ele>2324.84</ele>
        <time>2024-11-02T12:38:20Z</time>
      </trkpt>
      <trkpt lat="42.23451" lon="1.70842">
        <ele>2328.93</ele>
        <time>2024-11-02T12:38:23Z</time>
      </trkpt>
      <trkpt lat="42.23452" lon="1.70842">
        <ele>2325.28</ele>
        <time>2024-11-02T12:38:25Z</time>
      </trkpt>
      <trkpt lat="42.23452" lon="1.70843">
        <ele>2328.57</ele>
        <time>2024-11-02T12:38:30Z</time>
      </trkpt>
      <trkpt lat="42.23453" lon="1.70844">
        <ele>2325.47</ele>
        <time>2024-11-02T12:38:33Z</time>
      </trkpt>
      <trkpt lat="42.23453" lon="1.70844">
        <ele>2324.49</ele>
        <time>2024-11-02T12:38:35Z</time>
      </trkpt>
      <trkpt lat="42.23453" lon="1.70845">
        <ele>2326.9</ele>
        <time>2024-11-02T12:38:37Z</time>
      </trkpt>
      <trkpt lat="42.23453" lon="1.70846">
        <ele>2323.74</ele>
        <time>2024-11-02T12:38:40Z</time>
      </trkpt>
      <trkpt lat="42.23452" lon="1.70847">
        <ele>2325.13</ele>
        <time>2024-11-02T12:38:45Z</time>
      </trkpt>
      <trkpt lat="42.23451" lon="1.70848">
        <ele>2321.72</ele>
        <time>2024-11-02T12:38:51Z</time>
      </trkpt>
      <trkpt lat="42.23451" lon="1.70851">
        <ele>2322.05</ele>
        <time>2024-11-02T12:39:07Z</time>
      </trkpt>
      <trkpt lat="42.23453" lon="1.70854">
        <ele>2319.28</ele>
        <time>2024-11-02T12:39:17Z</time>
      </trkpt>
      <trkpt lat="42.23455" lon="1.70858">
        <ele>2318.86</ele>
        <time>2024-11-02T12:39:33Z</time>
      </trkpt>
      <trkpt lat="42.23452" lon="1.70859">
        <ele>2317.23</ele>
        <time>2024-11-02T12:39:52Z</time>
      </trkpt>
      <trkpt lat="42.23452" lon="1.70862">
        <ele>2314.11</ele>
        <time>2024-11-02T12:40:09Z</time>
      </trkpt>
      <trkpt lat="42.23452" lon="1.70863">
        <ele>2312.9</ele>
        <time>2024-11-02T12:40:14Z</time>
      </trkpt>
      <trkpt lat="42.23452" lon="1.70864">
        <ele>2312.17</ele>
        <time>2024-11-02T12:40:19Z</time>
      </trkpt>
      <trkpt lat="42.23452" lon="1.70871">
        <ele>2309.29</ele>
        <time>2024-11-02T12:40:45Z</time>
      </trkpt>
      <trkpt lat="42.23453" lon="1.70873">
        <ele>2306.37</ele>
        <time>2024-11-02T12:41:07Z</time>
      </trkpt>
      <trkpt lat="42.23452" lon="1.70877">
        <ele>2304.38</ele>
        <time>2024-11-02T12:41:29Z</time>
      </trkpt>
      <trkpt lat="42.23452" lon="1.70878">
        <ele>2302.1</ele>
        <time>2024-11-02T12:41:48Z</time>
      </trkpt>
      <trkpt lat="42.23451" lon="1.70884">
        <ele>2299.09</ele>
        <time>2024-11-02T12:42:10Z</time>
      </trkpt>
      <trkpt lat="42.23448" lon="1.70887">
        <ele>2295.45</ele>
        <time>2024-11-02T12:42:24Z</time>
      </trkpt>
      <trkpt lat="42.23449" lon="1.7089">
        <ele>2295.58</ele>
        <time>2024-11-02T12:42:34Z</time>
      </trkpt>
      <trkpt lat="42.23447" lon="1.7089">
        <ele>2295.46</ele>
        <time>2024-11-02T12:43:00Z</time>
      </trkpt>
      <trkpt lat="42.23444" lon="1.70893">
        <ele>2294.58</ele>
        <time>2024-11-02T12:43:14Z</time>
      </trkpt>
      <trkpt lat="42.23443" lon="1.70894">
        <ele>2293.28</ele>
        <time>2024-11-02T12:43:17Z</time>
      </trkpt>
      <trkpt lat="42.23441" lon="1.70896">
        <ele>2290.11</ele>
        <time>2024-11-02T12:43:26Z</time>
      </trkpt>
      <trkpt lat="42.23441" lon="1.70896">
        <ele>2289.89</ele>
        <time>2024-11-02T12:43:27Z</time>
      </trkpt>
      <trkpt lat="42.23441" lon="1.70898">
        <ele>2290.41</ele>
        <time>2024-11-02T12:43:31Z</time>
      </trkpt>
      <trkpt lat="42.23432" lon="1.70903">
        <ele>2290.61</ele>
        <time>2024-11-02T12:43:48Z</time>
      </trkpt>
      <trkpt lat="42.23432" lon="1.70903">
        <ele>2287.32</ele>
        <time>2024-11-02T12:43:50Z</time>
      </trkpt>
      <trkpt lat="42.23434" lon="1.70906">
        <ele>2283.67</ele>
        <time>2024-11-02T12:44:02Z</time>
      </trkpt>
      <trkpt lat="42.23436" lon="1.70909">
        <ele>2281.82</ele>
        <time>2024-11-02T12:44:09Z</time>
      </trkpt>
      <trkpt lat="42.23437" lon="1.70911">
        <ele>2285.2</ele>
        <time>2024-11-02T12:44:14Z</time>
      </trkpt>
      <trkpt lat="42.23436" lon="1.70911">
        <ele>2285.3</ele>
        <time>2024-11-02T12:44:15Z</time>
      </trkpt>
      <trkpt lat="42.23434" lon="1.70915">
        <ele>2281.92</ele>
        <time>2024-11-02T12:44:26Z</time>
      </trkpt>
      <trkpt lat="42.23433" lon="1.70915">
        <ele>2281.7</ele>
        <time>2024-11-02T12:44:27Z</time>
      </trkpt>
      <trkpt lat="42.23434" lon="1.70916">
        <ele>2279.15</ele>
        <time>2024-11-02T12:44:29Z</time>
      </trkpt>
      <trkpt lat="42.23433" lon="1.70917">
        <ele>2282.35</ele>
        <time>2024-11-02T12:44:32Z</time>
      </trkpt>
      <trkpt lat="42.23433" lon="1.70918">
        <ele>2277.54</ele>
        <time>2024-11-02T12:44:36Z</time>
      </trkpt>
      <trkpt lat="42.23433" lon="1.70919">
        <ele>2278.36</ele>
        <time>2024-11-02T12:44:37Z</time>
      </trkpt>
      <trkpt lat="42.23434" lon="1.7092">
        <ele>2276.75</ele>
        <time>2024-11-02T12:44:40Z</time>
      </trkpt>
      <trkpt lat="42.23434" lon="1.70923">
        <ele>2278.62</ele>
        <time>2024-11-02T12:44:46Z</time>
      </trkpt>
      <trkpt lat="42.23433" lon="1.70924">
        <ele>2275.6</ele>
        <time>2024-11-02T12:44:50Z</time>
      </trkpt>
      <trkpt lat="42.23433" lon="1.70927">
        <ele>2277.61</ele>
        <time>2024-11-02T12:44:56Z</time>
      </trkpt>
      <trkpt lat="42.23431" lon="1.70928">
        <ele>2274.5</ele>
        <time>2024-11-02T12:45:00Z</time>
      </trkpt>
      <trkpt lat="42.23431" lon="1.70929">
        <ele>2272.43</ele>
        <time>2024-11-02T12:45:02Z</time>
      </trkpt>
      <trkpt lat="42.23431" lon="1.70932">
        <ele>2274.39</ele>
        <time>2024-11-02T12:45:08Z</time>
      </trkpt>
      <trkpt lat="42.23424" lon="1.70938">
        <ele>2267.42</ele>
        <time>2024-11-02T12:45:23Z</time>
      </trkpt>
      <trkpt lat="42.23425" lon="1.70939">
        <ele>2269.71</ele>
        <time>2024-11-02T12:45:27Z</time>
      </trkpt>
      <trkpt lat="42.23425" lon="1.70941">
        <ele>2272.11</ele>
        <time>2024-11-02T12:45:31Z</time>
      </trkpt>
      <trkpt lat="42.23425" lon="1.70941">
        <ele>2265.44</ele>
        <time>2024-11-02T12:45:32Z</time>
      </trkpt>
      <trkpt lat="42.23425" lon="1.70941">
        <ele>2266.73</ele>
        <time>2024-11-02T12:45:33Z</time>
      </trkpt>
      <trkpt lat="42.23427" lon="1.70944">
        <ele>2264.06</ele>
        <time>2024-11-02T12:45:40Z</time>
      </trkpt>
      <trkpt lat="42.23427" lon="1.70946">
        <ele>2269.36</ele>
        <time>2024-11-02T12:45:42Z</time>
      </trkpt>
      <trkpt lat="42.23426" lon="1.70946">
        <ele>2269.17</ele>
        <time>2024-11-02T12:45:43Z</time>
      </trkpt>
      <trkpt lat="42.23421" lon="1.7095">
        <ele>2261.39</ele>
        <time>2024-11-02T12:45:58Z</time>
      </trkpt>
      <trkpt lat="42.23421" lon="1.70951">
        <ele>2259.79</ele>
        <time>2024-11-02T12:46:00Z</time>
      </trkpt>
      <trkpt lat="42.23423" lon="1.70953">
        <ele>2262.89</ele>
        <time>2024-11-02T12:46:04Z</time>
      </trkpt>
      <trkpt lat="42.23424" lon="1.70954">
        <ele>2258.68</ele>
        <time>2024-11-02T12:46:06Z</time>
      </trkpt>
      <trkpt lat="42.23425" lon="1.70954">
        <ele>2259.67</ele>
        <time>2024-11-02T12:46:07Z</time>
      </trkpt>
      <trkpt lat="42.23427" lon="1.70958">
        <ele>2258.73</ele>
        <time>2024-11-02T12:46:19Z</time>
      </trkpt>
      <trkpt lat="42.23428" lon="1.70961">
        <ele>2259.86</ele>
        <time>2024-11-02T12:46:26Z</time>
      </trkpt>
      <trkpt lat="42.23425" lon="1.70965">
        <ele>2256.19</ele>
        <time>2024-11-02T12:46:39Z</time>
      </trkpt>
      <trkpt lat="42.23424" lon="1.7097">
        <ele>2253.28</ele>
        <time>2024-11-02T12:46:49Z</time>
      </trkpt>
      <trkpt lat="42.23416" lon="1.70975">
        <ele>2253.17</ele>
        <time>2024-11-02T12:47:08Z</time>
      </trkpt>
      <trkpt lat="42.23414" lon="1.70978">
        <ele>2249.81</ele>
        <time>2024-11-02T12:47:19Z</time>
      </trkpt>
      <trkpt lat="42.23414" lon="1.7098">
        <ele>2245.5</ele>
        <time>2024-11-02T12:47:24Z</time>
      </trkpt>
      <trkpt lat="42.23414" lon="1.70981">
        <ele>2245.39</ele>
        <time>2024-11-02T12:47:25Z</time>
      </trkpt>
      <trkpt lat="42.23414" lon="1.70985">
        <ele>2247.92</ele>
        <time>2024-11-02T12:47:32Z</time>
      </trkpt>
      <trkpt lat="42.23414" lon="1.70986">
        <ele>2249.77</ele>
        <time>2024-11-02T12:47:34Z</time>
      </trkpt>
      <trkpt lat="42.23414" lon="1.70986">
        <ele>2244.43</ele>
        <time>2024-11-02T12:47:36Z</time>
      </trkpt>
      <trkpt lat="42.23414" lon="1.7099">
        <ele>2247.9</ele>
        <time>2024-11-02T12:47:44Z</time>
      </trkpt>
      <trkpt lat="42.23414" lon="1.70991">
        <ele>2247.75</ele>
        <time>2024-11-02T12:47:45Z</time>
      </trkpt>
      <trkpt lat="42.23414" lon="1.70992">
        <ele>2241.49</ele>
        <time>2024-11-02T12:47:48Z</time>
      </trkpt>
      <trkpt lat="42.23414" lon="1.70993">
        <ele>2241.25</ele>
        <time>2024-11-02T12:47:49Z</time>
      </trkpt>
      <trkpt lat="42.23414" lon="1.70994">
        <ele>2246.38</ele>
        <time>2024-11-02T12:47:51Z</time>
      </trkpt>
      <trkpt lat="42.23414" lon="1.70996">
        <ele>2240.55</ele>
        <time>2024-11-02T12:47:55Z</time>
      </trkpt>
      <trkpt lat="42.23414" lon="1.70998">
        <ele>2244.07</ele>
        <time>2024-11-02T12:48:00Z</time>
      </trkpt>
      <trkpt lat="42.23414" lon="1.70999">
        <ele>2243.89</ele>
        <time>2024-11-02T12:48:01Z</time>
      </trkpt>
      <trkpt lat="42.23414" lon="1.71">
        <ele>2240.12</ele>
        <time>2024-11-02T12:48:03Z</time>
      </trkpt>
      <trkpt lat="42.23415" lon="1.71002">
        <ele>2238.2</ele>
        <time>2024-11-02T12:48:09Z</time>
      </trkpt>
      <trkpt lat="42.23415" lon="1.71004">
        <ele>2241.48</ele>
        <time>2024-11-02T12:48:12Z</time>
      </trkpt>
      <trkpt lat="42.23415" lon="1.71006">
        <ele>2236.31</ele>
        <time>2024-11-02T12:48:18Z</time>
      </trkpt>
      <trkpt lat="42.23415" lon="1.71006">
        <ele>2237.16</ele>
        <time>2024-11-02T12:48:19Z</time>
      </trkpt>
      <trkpt lat="42.23414" lon="1.71009">
        <ele>2239.38</ele>
        <time>2024-11-02T12:48:25Z</time>
      </trkpt>
      <trkpt lat="42.23411" lon="1.71015">
        <ele>2237.7</ele>
        <time>2024-11-02T12:48:39Z</time>
      </trkpt>
      <trkpt lat="42.23411" lon="1.71016">
        <ele>2234.09</ele>
        <time>2024-11-02T12:48:41Z</time>
      </trkpt>
      <trkpt lat="42.23411" lon="1.71017">
        <ele>2232.89</ele>
        <time>2024-11-02T12:48:43Z</time>
      </trkpt>
      <trkpt lat="42.23412" lon="1.7102">
        <ele>2234.03</ele>
        <time>2024-11-02T12:48:53Z</time>
      </trkpt>
      <trkpt lat="42.23412" lon="1.71021">
        <ele>2230.95</ele>
        <time>2024-11-02T12:48:56Z</time>
      </trkpt>
      <trkpt lat="42.23412" lon="1.71022">
        <ele>2232.48</ele>
        <time>2024-11-02T12:48:57Z</time>
      </trkpt>
      <trkpt lat="42.23411" lon="1.71026">
        <ele>2232.64</ele>
        <time>2024-11-02T12:49:16Z</time>
      </trkpt>
      <trkpt lat="42.23411" lon="1.71026">
        <ele>2228.46</ele>
        <time>2024-11-02T12:49:18Z</time>
      </trkpt>
      <trkpt lat="42.23411" lon="1.71027">
        <ele>2228.51</ele>
        <time>2024-11-02T12:49:19Z</time>
      </trkpt>
      <trkpt lat="42.23411" lon="1.7103">
        <ele>2231.9</ele>
        <time>2024-11-02T12:49:25Z</time>
      </trkpt>
      <trkpt lat="42.23411" lon="1.7103">
        <ele>2227.26</ele>
        <time>2024-11-02T12:49:26Z</time>
      </trkpt>
      <trkpt lat="42.23414" lon="1.71038">
        <ele>2225.02</ele>
        <time>2024-11-02T12:49:45Z</time>
      </trkpt>
      <trkpt lat="42.23413" lon="1.71042">
        <ele>2221.91</ele>
        <time>2024-11-02T12:49:56Z</time>
      </trkpt>
      <trkpt lat="42.23414" lon="1.71043">
        <ele>2218.26</ele>
        <time>2024-11-02T12:49:58Z</time>
      </trkpt>
      <trkpt lat="42.23414" lon="1.71043">
        <ele>2218.82</ele>
        <time>2024-11-02T12:49:59Z</time>
      </trkpt>
      <trkpt lat="42.23416" lon="1.71045">
        <ele>2217.92</ele>
        <time>2024-11-02T12:50:05Z</time>
      </trkpt>
      <trkpt lat="42.23418" lon="1.71051">
        <ele>2218.7</ele>
        <time>2024-11-02T12:50:23Z</time>
      </trkpt>
      <trkpt lat="42.23418" lon="1.71051">
        <ele>2215.27</ele>
        <time>2024-11-02T12:50:25Z</time>
      </trkpt>
      <trkpt lat="42.23418" lon="1.71052">
        <ele>2215.57</ele>
        <time>2024-11-02T12:50:26Z</time>
      </trkpt>
      <trkpt lat="42.23418" lon="1.71052">
        <ele>2218.72</ele>
        <time>2024-11-02T12:50:27Z</time>
      </trkpt>
      <trkpt lat="42.23418" lon="1.71053">
        <ele>2218.66</ele>
        <time>2024-11-02T12:50:28Z</time>
      </trkpt>
      <trkpt lat="42.23417" lon="1.71054">
        <ele>2217.34</ele>
        <time>2024-11-02T12:50:30Z</time>
      </trkpt>
      <trkpt lat="42.23416" lon="1.71058">
        <ele>2213.75</ele>
        <time>2024-11-02T12:50:37Z</time>
      </trkpt>
      <trkpt lat="42.23418" lon="1.71059">
        <ele>2212.55</ele>
        <time>2024-11-02T12:50:43Z</time>
      </trkpt>
      <trkpt lat="42.23416" lon="1.71069">
        <ele>2211.9</ele>
        <time>2024-11-02T12:51:01Z</time>
      </trkpt>
      <trkpt lat="42.23415" lon="1.71071">
        <ele>2210.25</ele>
        <time>2024-11-02T12:51:06Z</time>
      </trkpt>
      <trkpt lat="42.23415" lon="1.71076">
        <ele>2206.44</ele>
        <time>2024-11-02T12:51:17Z</time>
      </trkpt>
      <trkpt lat="42.23415" lon="1.71078">
        <ele>2207.99</ele>
        <time>2024-11-02T12:51:21Z</time>
      </trkpt>
      <trkpt lat="42.23415" lon="1.71079">
        <ele>2204.61</ele>
        <time>2024-11-02T12:51:24Z</time>
      </trkpt>
      <trkpt lat="42.23415" lon="1.71079">
        <ele>2204.43</ele>
        <time>2024-11-02T12:51:25Z</time>
      </trkpt>
      <trkpt lat="42.23415" lon="1.7108">
        <ele>2208.05</ele>
        <time>2024-11-02T12:51:27Z</time>
      </trkpt>
      <trkpt lat="42.23415" lon="1.71081">
        <ele>2208.14</ele>
        <time>2024-11-02T12:51:28Z</time>
      </trkpt>
      <trkpt lat="42.23414" lon="1.71084">
        <ele>2204.9</ele>
        <time>2024-11-02T12:51:34Z</time>
      </trkpt>
      <trkpt lat="42.23417" lon="1.71088">
        <ele>2201.76</ele>
        <time>2024-11-02T12:51:51Z</time>
      </trkpt>
      <trkpt lat="42.2342" lon="1.71088">
        <ele>2200.33</ele>
        <time>2024-11-02T12:51:58Z</time>
      </trkpt>
      <trkpt lat="42.23421" lon="1.71088">
        <ele>2199.08</ele>
        <time>2024-11-02T12:52:01Z</time>
      </trkpt>
      <trkpt lat="42.23423" lon="1.71089">
        <ele>2197.18</ele>
        <time>2024-11-02T12:52:07Z</time>
      </trkpt>
      <trkpt lat="42.23428" lon="1.7109">
        <ele>2195.2</ele>
        <time>2024-11-02T12:52:21Z</time>
      </trkpt>
      <trkpt lat="42.23429" lon="1.71094">
        <ele>2193.49</ele>
        <time>2024-11-02T12:52:37Z</time>
      </trkpt>
      <trkpt lat="42.23427" lon="1.71098">
        <ele>2191.33</ele>
        <time>2024-11-02T12:52:57Z</time>
      </trkpt>
      <trkpt lat="42.23425" lon="1.71103">
        <ele>2189.36</ele>
        <time>2024-11-02T12:53:19Z</time>
      </trkpt>
      <trkpt lat="42.23428" lon="1.71105">
        <ele>2187.4</ele>
        <time>2024-11-02T12:53:32Z</time>
      </trkpt>
      <trkpt lat="42.23426" lon="1.71109">
        <ele>2185.63</ele>
        <time>2024-11-02T12:53:49Z</time>
      </trkpt>
      <trkpt lat="42.23426" lon="1.71109">
        <ele>2186.3</ele>
        <time>2024-11-02T12:53:50Z</time>
      </trkpt>
      <trkpt lat="42.23429" lon="1.7111">
        <ele>2184</ele>
        <time>2024-11-02T12:54:09Z</time>
      </trkpt>
      <trkpt lat="42.23427" lon="1.71111">
        <ele>2183.76</ele>
        <time>2024-11-02T12:54:31Z</time>
      </trkpt>
      <trkpt lat="42.23427" lon="1.7111">
        <ele>2184.09</ele>
        <time>2024-11-02T12:54:52Z</time>
      </trkpt>
      <trkpt lat="42.23428" lon="1.7111">
        <ele>2182.77</ele>
        <time>2024-11-02T12:55:08Z</time>
      </trkpt>
      <trkpt lat="42.23429" lon="1.71109">
        <ele>2183.33</ele>
        <time>2024-11-02T12:55:35Z</time>
      </trkpt>
      <trkpt lat="42.23429" lon="1.71108">
        <ele>2184.47</ele>
        <time>2024-11-02T12:56:08Z</time>
      </trkpt>
      <trkpt lat="42.23429" lon="1.71107">
        <ele>2184.23</ele>
        <time>2024-11-02T12:56:21Z</time>
      </trkpt>
      <trkpt lat="42.23426" lon="1.71104">
        <ele>2183.95</ele>
        <time>2024-11-02T13:16:48Z</time>
      </trkpt>
      <trkpt lat="42.23429" lon="1.71104">
        <ele>2183.71</ele>
        <time>2024-11-02T13:17:13Z</time>
      </trkpt>
      <trkpt lat="42.23429" lon="1.71106">
        <ele>2182.97</ele>
        <time>2024-11-02T13:18:14Z</time>
      </trkpt>
      <trkpt lat="42.23429" lon="1.71106">
        <ele>2182.93</ele>
        <time>2024-11-02T13:19:17Z</time>
      </trkpt>
      <trkpt lat="42.23433" lon="1.71111">
        <ele>2182.31</ele>
        <time>2024-11-02T13:22:27Z</time>
      </trkpt>
      <trkpt lat="42.23426" lon="1.71114">
        <ele>2181.86</ele>
        <time>2024-11-02T13:22:57Z</time>
      </trkpt>
      <trkpt lat="42.23425" lon="1.71113">
        <ele>2182.01</ele>
        <time>2024-11-02T13:23:22Z</time>
      </trkpt>
      <trkpt lat="42.23424" lon="1.71115">
        <ele>2182.32</ele>
        <time>2024-11-02T13:23:46Z</time>
      </trkpt>
      <trkpt lat="42.23426" lon="1.71116">
        <ele>2182.82</ele>
        <time>2024-11-02T13:24:02Z</time>
      </trkpt>
      <trkpt lat="42.2342" lon="1.71117">
        <ele>2181.94</ele>
        <time>2024-11-02T13:24:18Z</time>
      </trkpt>
      <trkpt lat="42.23419" lon="1.7112">
        <ele>2180.61</ele>
        <time>2024-11-02T13:24:33Z</time>
      </trkpt>
      <trkpt lat="42.23417" lon="1.71125">
        <ele>2178.95</ele>
        <time>2024-11-02T13:24:49Z</time>
      </trkpt>
      <trkpt lat="42.23418" lon="1.71128">
        <ele>2177.15</ele>
        <time>2024-11-02T13:24:53Z</time>
      </trkpt>
      <trkpt lat="42.23419" lon="1.7113">
        <ele>2174.39</ele>
        <time>2024-11-02T13:25:09Z</time>
      </trkpt>
      <trkpt lat="42.23422" lon="1.71131">
        <ele>2173.48</ele>
        <time>2024-11-02T13:25:25Z</time>
      </trkpt>
      <trkpt lat="42.23425" lon="1.7113">
        <ele>2171.49</ele>
        <time>2024-11-02T13:25:47Z</time>
      </trkpt>
      <trkpt lat="42.23426" lon="1.71133">
        <ele>2170.41</ele>
        <time>2024-11-02T13:26:02Z</time>
      </trkpt>
      <trkpt lat="42.23426" lon="1.71136">
        <ele>2169.13</ele>
        <time>2024-11-02T13:26:16Z</time>
      </trkpt>
      <trkpt lat="42.23426" lon="1.7114">
        <ele>2167.26</ele>
        <time>2024-11-02T13:26:32Z</time>
      </trkpt>
      <trkpt lat="42.2343" lon="1.71141">
        <ele>2164.13</ele>
        <time>2024-11-02T13:26:49Z</time>
      </trkpt>
      <trkpt lat="42.2343" lon="1.71142">
        <ele>2163.33</ele>
        <time>2024-11-02T13:26:51Z</time>
      </trkpt>
      <trkpt lat="42.2343" lon="1.71146">
        <ele>2161.57</ele>
        <time>2024-11-02T13:27:08Z</time>
      </trkpt>
      <trkpt lat="42.23432" lon="1.71148">
        <ele>2159.94</ele>
        <time>2024-11-02T13:27:25Z</time>
      </trkpt>
      <trkpt lat="42.23434" lon="1.71153">
        <ele>2156.79</ele>
        <time>2024-11-02T13:27:43Z</time>
      </trkpt>
      <trkpt lat="42.23431" lon="1.71157">
        <ele>2155.4</ele>
        <time>2024-11-02T13:27:58Z</time>
      </trkpt>
      <trkpt lat="42.23428" lon="1.71162">
        <ele>2154.04</ele>
        <time>2024-11-02T13:28:17Z</time>
      </trkpt>
      <trkpt lat="42.23426" lon="1.71165">
        <ele>2153.41</ele>
        <time>2024-11-02T13:28:33Z</time>
      </trkpt>
      <trkpt lat="42.23421" lon="1.71167">
        <ele>2154.33</ele>
        <time>2024-11-02T13:28:46Z</time>
      </trkpt>
      <trkpt lat="42.23418" lon="1.71168">
        <ele>2154.59</ele>
        <time>2024-11-02T13:28:59Z</time>
      </trkpt>
      <trkpt lat="42.23416" lon="1.71171">
        <ele>2155.17</ele>
        <time>2024-11-02T13:29:20Z</time>
      </trkpt>
      <trkpt lat="42.23413" lon="1.71176">
        <ele>2154.94</ele>
        <time>2024-11-02T13:29:36Z</time>
      </trkpt>
      <trkpt lat="42.23413" lon="1.7118">
        <ele>2151.88</ele>
        <time>2024-11-02T13:29:47Z</time>
      </trkpt>
      <trkpt lat="42.23411" lon="1.71182">
        <ele>2153.01</ele>
        <time>2024-11-02T13:30:04Z</time>
      </trkpt>
      <trkpt lat="42.23411" lon="1.71182">
        <ele>2149.9</ele>
        <time>2024-11-02T13:30:08Z</time>
      </trkpt>
      <trkpt lat="42.23412" lon="1.71184">
        <ele>2151.47</ele>
        <time>2024-11-02T13:30:30Z</time>
      </trkpt>
      <trkpt lat="42.23412" lon="1.71185">
        <ele>2148.51</ele>
        <time>2024-11-02T13:30:46Z</time>
      </trkpt>
      <trkpt lat="42.23413" lon="1.71186">
        <ele>2147.8</ele>
        <time>2024-11-02T13:31:02Z</time>
      </trkpt>
      <trkpt lat="42.23412" lon="1.71187">
        <ele>2147.33</ele>
        <time>2024-11-02T13:31:30Z</time>
      </trkpt>
      <trkpt lat="42.23413" lon="1.71186">
        <ele>2148.48</ele>
        <time>2024-11-02T13:32:07Z</time>
      </trkpt>
      <trkpt lat="42.23413" lon="1.71187">
        <ele>2146.89</ele>
        <time>2024-11-02T13:32:12Z</time>
      </trkpt>
      <trkpt lat="42.2341" lon="1.71191">
        <ele>2144.62</ele>
        <time>2024-11-02T13:32:29Z</time>
      </trkpt>
      <trkpt lat="42.2341" lon="1.71191">
        <ele>2144.72</ele>
        <time>2024-11-02T13:32:30Z</time>
      </trkpt>
      <trkpt lat="42.2341" lon="1.71192">
        <ele>2146.55</ele>
        <time>2024-11-02T13:32:34Z</time>
      </trkpt>
      <trkpt lat="42.23406" lon="1.71196">
        <ele>2144.16</ele>
        <time>2024-11-02T13:32:51Z</time>
      </trkpt>
      <trkpt lat="42.23404" lon="1.712">
        <ele>2141.27</ele>
        <time>2024-11-02T13:33:09Z</time>
      </trkpt>
      <trkpt lat="42.23404" lon="1.71201">
        <ele>2140.11</ele>
        <time>2024-11-02T13:33:19Z</time>
      </trkpt>
      <trkpt lat="42.23403" lon="1.71203">
        <ele>2140.75</ele>
        <time>2024-11-02T13:33:39Z</time>
      </trkpt>
      <trkpt lat="42.23401" lon="1.71205">
        <ele>2139.1</ele>
        <time>2024-11-02T13:33:52Z</time>
      </trkpt>
      <trkpt lat="42.23401" lon="1.71205">
        <ele>2139.65</ele>
        <time>2024-11-02T13:34:13Z</time>
      </trkpt>
      <trkpt lat="42.234" lon="1.71206">
        <ele>2138.76</ele>
        <time>2024-11-02T13:34:51Z</time>
      </trkpt>
      <trkpt lat="42.23399" lon="1.71206">
        <ele>2139.5</ele>
        <time>2024-11-02T13:35:20Z</time>
      </trkpt>
      <trkpt lat="42.23398" lon="1.71208">
        <ele>2137.55</ele>
        <time>2024-11-02T13:35:35Z</time>
      </trkpt>
      <trkpt lat="42.23398" lon="1.71207">
        <ele>2137.37</ele>
        <time>2024-11-02T13:35:56Z</time>
      </trkpt>
      <trkpt lat="42.23397" lon="1.71208">
        <ele>2137.99</ele>
        <time>2024-11-02T13:36:18Z</time>
      </trkpt>
      <trkpt lat="42.23397" lon="1.71208">
        <ele>2137.47</ele>
        <time>2024-11-02T13:36:42Z</time>
      </trkpt>
      <trkpt lat="42.23398" lon="1.71207">
        <ele>2137.25</ele>
        <time>2024-11-02T13:37:01Z</time>
      </trkpt>
      <trkpt lat="42.23397" lon="1.7121">
        <ele>2135.79</ele>
        <time>2024-11-02T13:37:28Z</time>
      </trkpt>
      <trkpt lat="42.23393" lon="1.71212">
        <ele>2134.49</ele>
        <time>2024-11-02T13:37:46Z</time>
      </trkpt>
      <trkpt lat="42.23393" lon="1.71214">
        <ele>2133.49</ele>
        <time>2024-11-02T13:38:07Z</time>
      </trkpt>
      <trkpt lat="42.23392" lon="1.71214">
        <ele>2130.83</ele>
        <time>2024-11-02T13:38:33Z</time>
      </trkpt>
      <trkpt lat="42.23392" lon="1.71217">
        <ele>2129.98</ele>
        <time>2024-11-02T13:38:52Z</time>
      </trkpt>
      <trkpt lat="42.23392" lon="1.71218">
        <ele>2128.4</ele>
        <time>2024-11-02T13:38:54Z</time>
      </trkpt>
      <trkpt lat="42.2339" lon="1.7122">
        <ele>2129.86</ele>
        <time>2024-11-02T13:39:11Z</time>
      </trkpt>
      <trkpt lat="42.23386" lon="1.71226">
        <ele>2127.35</ele>
        <time>2024-11-02T13:39:39Z</time>
      </trkpt>
      <trkpt lat="42.23383" lon="1.71234">
        <ele>2125.21</ele>
        <time>2024-11-02T13:39:59Z</time>
      </trkpt>
      <trkpt lat="42.23382" lon="1.71236">
        <ele>2122.73</ele>
        <time>2024-11-02T13:40:17Z</time>
      </trkpt>
      <trkpt lat="42.23383" lon="1.71239">
        <ele>2121.32</ele>
        <time>2024-11-02T13:40:35Z</time>
      </trkpt>
      <trkpt lat="42.23381" lon="1.7124">
        <ele>2119.08</ele>
        <time>2024-11-02T13:40:43Z</time>
      </trkpt>
      <trkpt lat="42.2338" lon="1.71243">
        <ele>2118.45</ele>
        <time>2024-11-02T13:40:52Z</time>
      </trkpt>
      <trkpt lat="42.23377" lon="1.71248">
        <ele>2116.62</ele>
        <time>2024-11-02T13:41:04Z</time>
      </trkpt>
      <trkpt lat="42.23376" lon="1.7125">
        <ele>2115.56</ele>
        <time>2024-11-02T13:41:27Z</time>
      </trkpt>
      <trkpt lat="42.23376" lon="1.71249">
        <ele>2116.96</ele>
        <time>2024-11-02T13:41:49Z</time>
      </trkpt>
      <trkpt lat="42.23376" lon="1.71249">
        <ele>2116.42</ele>
        <time>2024-11-02T13:42:09Z</time>
      </trkpt>
      <trkpt lat="42.23375" lon="1.7125">
        <ele>2115.29</ele>
        <time>2024-11-02T13:42:31Z</time>
      </trkpt>
      <trkpt lat="42.23376" lon="1.71249">
        <ele>2115.3</ele>
        <time>2024-11-02T13:43:03Z</time>
      </trkpt>
      <trkpt lat="42.23376" lon="1.71249">
        <ele>2115.76</ele>
        <time>2024-11-02T13:43:29Z</time>
      </trkpt>
      <trkpt lat="42.23375" lon="1.71252">
        <ele>2115.93</ele>
        <time>2024-11-02T13:43:49Z</time>
      </trkpt>
      <trkpt lat="42.23372" lon="1.71256">
        <ele>2114.3</ele>
        <time>2024-11-02T13:44:07Z</time>
      </trkpt>
      <trkpt lat="42.23369" lon="1.71262">
        <ele>2113.96</ele>
        <time>2024-11-02T13:44:24Z</time>
      </trkpt>
      <trkpt lat="42.23367" lon="1.71269">
        <ele>2112.99</ele>
        <time>2024-11-02T13:44:38Z</time>
      </trkpt>
      <trkpt lat="42.23363" lon="1.71277">
        <ele>2110.47</ele>
        <time>2024-11-02T13:44:57Z</time>
      </trkpt>
      <trkpt lat="42.23362" lon="1.71281">
        <ele>2108.27</ele>
        <time>2024-11-02T13:45:14Z</time>
      </trkpt>
      <trkpt lat="42.23367" lon="1.7128">
        <ele>2105.26</ele>
        <time>2024-11-02T13:45:31Z</time>
      </trkpt>
      <trkpt lat="42.23373" lon="1.71278">
        <ele>2102.84</ele>
        <time>2024-11-02T13:45:53Z</time>
      </trkpt>
      <trkpt lat="42.23376" lon="1.71275">
        <ele>2101.18</ele>
        <time>2024-11-02T13:46:15Z</time>
      </trkpt>
      <trkpt lat="42.23381" lon="1.71274">
        <ele>2098.52</ele>
        <time>2024-11-02T13:46:35Z</time>
      </trkpt>
      <trkpt lat="42.23378" lon="1.71282">
        <ele>2095.38</ele>
        <time>2024-11-02T13:46:53Z</time>
      </trkpt>
      <trkpt lat="42.23374" lon="1.71292">
        <ele>2093.21</ele>
        <time>2024-11-02T13:47:13Z</time>
      </trkpt>
      <trkpt lat="42.23373" lon="1.71294">
        <ele>2091.35</ele>
        <time>2024-11-02T13:47:19Z</time>
      </trkpt>
      <trkpt lat="42.23371" lon="1.713">
        <ele>2088.18</ele>
        <time>2024-11-02T13:47:37Z</time>
      </trkpt>
      <trkpt lat="42.23371" lon="1.71303">
        <ele>2085.84</ele>
        <time>2024-11-02T13:47:54Z</time>
      </trkpt>
      <trkpt lat="42.23368" lon="1.71309">
        <ele>2083.98</ele>
        <time>2024-11-02T13:48:06Z</time>
      </trkpt>
      <trkpt lat="42.23367" lon="1.71312">
        <ele>2082.29</ele>
        <time>2024-11-02T13:48:10Z</time>
      </trkpt>
      <trkpt lat="42.23367" lon="1.71319">
        <ele>2080.49</ele>
        <time>2024-11-02T13:48:27Z</time>
      </trkpt>
      <trkpt lat="42.23367" lon="1.71324">
        <ele>2078.73</ele>
        <time>2024-11-02T13:48:43Z</time>
      </trkpt>
      <trkpt lat="42.23368" lon="1.71329">
        <ele>2076.51</ele>
        <time>2024-11-02T13:48:59Z</time>
      </trkpt>
      <trkpt lat="42.23367" lon="1.71332">
        <ele>2074.46</ele>
        <time>2024-11-02T13:49:12Z</time>
      </trkpt>
      <trkpt lat="42.23367" lon="1.71337">
        <ele>2072.57</ele>
        <time>2024-11-02T13:49:24Z</time>
      </trkpt>
      <trkpt lat="42.23365" lon="1.71346">
        <ele>2071.12</ele>
        <time>2024-11-02T13:49:40Z</time>
      </trkpt>
      <trkpt lat="42.23369" lon="1.71347">
        <ele>2068.07</ele>
        <time>2024-11-02T13:49:56Z</time>
      </trkpt>
      <trkpt lat="42.23372" lon="1.71349">
        <ele>2064.99</ele>
        <time>2024-11-02T13:50:09Z</time>
      </trkpt>
      <trkpt lat="42.23375" lon="1.71354">
        <ele>2062.81</ele>
        <time>2024-11-02T13:50:28Z</time>
      </trkpt>
      <trkpt lat="42.23378" lon="1.71358">
        <ele>2060.23</ele>
        <time>2024-11-02T13:50:41Z</time>
      </trkpt>
      <trkpt lat="42.23381" lon="1.71363">
        <ele>2058.84</ele>
        <time>2024-11-02T13:50:57Z</time>
      </trkpt>
      <trkpt lat="42.23386" lon="1.7136">
        <ele>2055.31</ele>
        <time>2024-11-02T13:51:12Z</time>
      </trkpt>
      <trkpt lat="42.23388" lon="1.71359">
        <ele>2052.12</ele>
        <time>2024-11-02T13:51:30Z</time>
      </trkpt>
      <trkpt lat="42.23394" lon="1.71357">
        <ele>2048.9</ele>
        <time>2024-11-02T13:51:47Z</time>
      </trkpt>
      <trkpt lat="42.23396" lon="1.71356">
        <ele>2048.06</ele>
        <time>2024-11-02T13:51:49Z</time>
      </trkpt>
      <trkpt lat="42.23399" lon="1.71363">
        <ele>2044.47</ele>
        <time>2024-11-02T13:52:05Z</time>
      </trkpt>
      <trkpt lat="42.23405" lon="1.71361">
        <ele>2041.44</ele>
        <time>2024-11-02T13:52:21Z</time>
      </trkpt>
      <trkpt lat="42.23407" lon="1.7136">
        <ele>2039.95</ele>
        <time>2024-11-02T13:52:28Z</time>
      </trkpt>
      <trkpt lat="42.23414" lon="1.71355">
        <ele>2037.39</ele>
        <time>2024-11-02T13:52:47Z</time>
      </trkpt>
      <trkpt lat="42.23422" lon="1.71351">
        <ele>2034.31</ele>
        <time>2024-11-02T13:52:59Z</time>
      </trkpt>
      <trkpt lat="42.23428" lon="1.71347">
        <ele>2031.12</ele>
        <time>2024-11-02T13:53:16Z</time>
      </trkpt>
      <trkpt lat="42.23433" lon="1.71346">
        <ele>2027.82</ele>
        <time>2024-11-02T13:53:32Z</time>
      </trkpt>
      <trkpt lat="42.23438" lon="1.71346">
        <ele>2025.78</ele>
        <time>2024-11-02T13:53:50Z</time>
      </trkpt>
      <trkpt lat="42.23437" lon="1.71347">
        <ele>2024.73</ele>
        <time>2024-11-02T13:54:11Z</time>
      </trkpt>
      <trkpt lat="42.23435" lon="1.71349">
        <ele>2025.45</ele>
        <time>2024-11-02T13:54:35Z</time>
      </trkpt>
      <trkpt lat="42.23434" lon="1.71347">
        <ele>2025.25</ele>
        <time>2024-11-02T13:54:57Z</time>
      </trkpt>
      <trkpt lat="42.23435" lon="1.71347">
        <ele>2025.13</ele>
        <time>2024-11-02T13:55:20Z</time>
      </trkpt>
      <trkpt lat="42.23434" lon="1.71353">
        <ele>2022.94</ele>
        <time>2024-11-02T13:55:42Z</time>
      </trkpt>
      <trkpt lat="42.23435" lon="1.71358">
        <ele>2020.08</ele>
        <time>2024-11-02T13:55:59Z</time>
      </trkpt>
      <trkpt lat="42.23438" lon="1.71362">
        <ele>2016.92</ele>
        <time>2024-11-02T13:56:14Z</time>
      </trkpt>
      <trkpt lat="42.23439" lon="1.71367">
        <ele>2014.44</ele>
        <time>2024-11-02T13:56:26Z</time>
      </trkpt>
      <trkpt lat="42.23437" lon="1.7137">
        <ele>2013.22</ele>
        <time>2024-11-02T13:56:29Z</time>
      </trkpt>
      <trkpt lat="42.23435" lon="1.71377">
        <ele>2009.82</ele>
        <time>2024-11-02T13:56:48Z</time>
      </trkpt>
      <trkpt lat="42.23437" lon="1.71382">
        <ele>2006.6</ele>
        <time>2024-11-02T13:57:03Z</time>
      </trkpt>
      <trkpt lat="42.23437" lon="1.71382">
        <ele>2006.31</ele>
        <time>2024-11-02T13:57:04Z</time>
      </trkpt>
      <trkpt lat="42.23431" lon="1.71392">
        <ele>2002.9</ele>
        <time>2024-11-02T13:57:22Z</time>
      </trkpt>
      <trkpt lat="42.2343" lon="1.71399">
        <ele>2001.44</ele>
        <time>2024-11-02T13:57:37Z</time>
      </trkpt>
      <trkpt lat="42.23427" lon="1.71407">
        <ele>1998.09</ele>
        <time>2024-11-02T13:57:54Z</time>
      </trkpt>
      <trkpt lat="42.23422" lon="1.71414">
        <ele>1994.37</ele>
        <time>2024-11-02T13:58:12Z</time>
      </trkpt>
      <trkpt lat="42.2342" lon="1.71417">
        <ele>1994.09</ele>
        <time>2024-11-02T13:58:31Z</time>
      </trkpt>
      <trkpt lat="42.23418" lon="1.7142">
        <ele>1993.42</ele>
        <time>2024-11-02T13:58:55Z</time>
      </trkpt>
      <trkpt lat="42.23417" lon="1.71419">
        <ele>1992.87</ele>
        <time>2024-11-02T13:59:27Z</time>
      </trkpt>
      <trkpt lat="42.23416" lon="1.7142">
        <ele>1992.72</ele>
        <time>2024-11-02T13:59:44Z</time>
      </trkpt>
      <trkpt lat="42.23416" lon="1.7142">
        <ele>1993.08</ele>
        <time>2024-11-02T14:00:09Z</time>
      </trkpt>
      <trkpt lat="42.23416" lon="1.71419">
        <ele>1991.99</ele>
        <time>2024-11-02T14:00:32Z</time>
      </trkpt>
      <trkpt lat="42.23417" lon="1.71419">
        <ele>1992.25</ele>
        <time>2024-11-02T14:00:55Z</time>
      </trkpt>
      <trkpt lat="42.23415" lon="1.7142">
        <ele>1991.35</ele>
        <time>2024-11-02T14:01:16Z</time>
      </trkpt>
      <trkpt lat="42.23415" lon="1.71417">
        <ele>1991.33</ele>
        <time>2024-11-02T14:01:34Z</time>
      </trkpt>
      <trkpt lat="42.23413" lon="1.71418">
        <ele>1988.29</ele>
        <time>2024-11-02T14:01:54Z</time>
      </trkpt>
      <trkpt lat="42.23413" lon="1.71424">
        <ele>1986.58</ele>
        <time>2024-11-02T14:02:13Z</time>
      </trkpt>
      <trkpt lat="42.23415" lon="1.71425">
        <ele>1986.68</ele>
        <time>2024-11-02T14:02:27Z</time>
      </trkpt>
      <trkpt lat="42.23417" lon="1.71426">
        <ele>1984.34</ele>
        <time>2024-11-02T14:02:47Z</time>
      </trkpt>
      <trkpt lat="42.23419" lon="1.71428">
        <ele>1982.38</ele>
        <time>2024-11-02T14:02:56Z</time>
      </trkpt>
      <trkpt lat="42.23416" lon="1.71434">
        <ele>1979.26</ele>
        <time>2024-11-02T14:03:15Z</time>
      </trkpt>
      <trkpt lat="42.23412" lon="1.71437">
        <ele>1977.21</ele>
        <time>2024-11-02T14:03:38Z</time>
      </trkpt>
      <trkpt lat="42.23411" lon="1.71436">
        <ele>1975.84</ele>
        <time>2024-11-02T14:04:04Z</time>
      </trkpt>
      <trkpt lat="42.2341" lon="1.71438">
        <ele>1974.75</ele>
        <time>2024-11-02T14:04:30Z</time>
      </trkpt>
      <trkpt lat="42.2341" lon="1.71438">
        <ele>1973.53</ele>
        <time>2024-11-02T14:05:02Z</time>
      </trkpt>
      <trkpt lat="42.23409" lon="1.71439">
        <ele>1974.22</ele>
        <time>2024-11-02T14:05:27Z</time>
      </trkpt>
      <trkpt lat="42.23409" lon="1.71438">
        <ele>1973.03</ele>
        <time>2024-11-02T14:05:58Z</time>
      </trkpt>
      <trkpt lat="42.23409" lon="1.71438">
        <ele>1972.94</ele>
        <time>2024-11-02T14:06:24Z</time>
      </trkpt>
      <trkpt lat="42.23406" lon="1.71436">
        <ele>1971.84</ele>
        <time>2024-11-02T14:06:54Z</time>
      </trkpt>
      <trkpt lat="42.23407" lon="1.71437">
        <ele>1970.34</ele>
        <time>2024-11-02T14:06:57Z</time>
      </trkpt>
      <trkpt lat="42.23406" lon="1.71439">
        <ele>1969.24</ele>
        <time>2024-11-02T14:07:19Z</time>
      </trkpt>
      <trkpt lat="42.23404" lon="1.71443">
        <ele>1967.47</ele>
        <time>2024-11-02T14:07:38Z</time>
      </trkpt>
      <trkpt lat="42.23401" lon="1.71444">
        <ele>1967.76</ele>
        <time>2024-11-02T14:08:05Z</time>
      </trkpt>
      <trkpt lat="42.23402" lon="1.71445">
        <ele>1966.14</ele>
        <time>2024-11-02T14:08:25Z</time>
      </trkpt>
      <trkpt lat="42.234" lon="1.71449">
        <ele>1965.48</ele>
        <time>2024-11-02T14:08:49Z</time>
      </trkpt>
      <trkpt lat="42.23397" lon="1.71444">
        <ele>1964.63</ele>
        <time>2024-11-02T14:09:17Z</time>
      </trkpt>
      <trkpt lat="42.23396" lon="1.71445">
        <ele>1965.58</ele>
        <time>2024-11-02T14:09:43Z</time>
      </trkpt>
      <trkpt lat="42.23396" lon="1.71447">
        <ele>1965.91</ele>
        <time>2024-11-02T14:10:08Z</time>
      </trkpt>
      <trkpt lat="42.23396" lon="1.7145">
        <ele>1963.89</ele>
        <time>2024-11-02T14:10:26Z</time>
      </trkpt>
      <trkpt lat="42.2339" lon="1.71455">
        <ele>1963.82</ele>
        <time>2024-11-02T14:10:42Z</time>
      </trkpt>
      <trkpt lat="42.2339" lon="1.71457">
        <ele>1962.39</ele>
        <time>2024-11-02T14:10:46Z</time>
      </trkpt>
      <trkpt lat="42.2339" lon="1.71466">
        <ele>1959.38</ele>
        <time>2024-11-02T14:11:05Z</time>
      </trkpt>
      <trkpt lat="42.23391" lon="1.7147">
        <ele>1957.48</ele>
        <time>2024-11-02T14:11:24Z</time>
      </trkpt>
      <trkpt lat="42.23391" lon="1.7147">
        <ele>1957.65</ele>
        <time>2024-11-02T14:11:45Z</time>
      </trkpt>
      <trkpt lat="42.23392" lon="1.7147">
        <ele>1957.5</ele>
        <time>2024-11-02T14:12:30Z</time>
      </trkpt>
      <trkpt lat="42.23391" lon="1.71469">
        <ele>1956.64</ele>
        <time>2024-11-02T14:12:55Z</time>
      </trkpt>
      <trkpt lat="42.2339" lon="1.71468">
        <ele>1956.96</ele>
        <time>2024-11-02T14:13:17Z</time>
      </trkpt>
      <trkpt lat="42.23389" lon="1.71474">
        <ele>1955.55</ele>
        <time>2024-11-02T14:13:33Z</time>
      </trkpt>
      <trkpt lat="42.23388" lon="1.71489">
        <ele>1952.4</ele>
        <time>2024-11-02T14:13:52Z</time>
      </trkpt>
      <trkpt lat="42.23387" lon="1.71498">
        <ele>1949.26</ele>
        <time>2024-11-02T14:14:07Z</time>
      </trkpt>
      <trkpt lat="42.23387" lon="1.715">
        <ele>1949.78</ele>
        <time>2024-11-02T14:14:32Z</time>
      </trkpt>
      <trkpt lat="42.2339" lon="1.71504">
        <ele>1946.58</ele>
        <time>2024-11-02T14:14:47Z</time>
      </trkpt>
      <trkpt lat="42.23393" lon="1.71508">
        <ele>1944.62</ele>
        <time>2024-11-02T14:15:02Z</time>
      </trkpt>
      <trkpt lat="42.23398" lon="1.71509">
        <ele>1940.83</ele>
        <time>2024-11-02T14:15:17Z</time>
      </trkpt>
      <trkpt lat="42.234" lon="1.71513">
        <ele>1939.57</ele>
        <time>2024-11-02T14:15:34Z</time>
      </trkpt>
      <trkpt lat="42.23402" lon="1.71517">
        <ele>1936.36</ele>
        <time>2024-11-02T14:15:52Z</time>
      </trkpt>
      <trkpt lat="42.23405" lon="1.71514">
        <ele>1934.67</ele>
        <time>2024-11-02T14:16:11Z</time>
      </trkpt>
      <trkpt lat="42.23409" lon="1.71514">
        <ele>1931.26</ele>
        <time>2024-11-02T14:16:28Z</time>
      </trkpt>
      <trkpt lat="42.23417" lon="1.7151">
        <ele>1928.46</ele>
        <time>2024-11-02T14:16:45Z</time>
      </trkpt>
      <trkpt lat="42.23424" lon="1.71509">
        <ele>1925.27</ele>
        <time>2024-11-02T14:17:03Z</time>
      </trkpt>
      <trkpt lat="42.23428" lon="1.71519">
        <ele>1921.89</ele>
        <time>2024-11-02T14:17:23Z</time>
      </trkpt>
      <trkpt lat="42.23432" lon="1.71532">
        <ele>1918.68</ele>
        <time>2024-11-02T14:17:44Z</time>
      </trkpt>
      <trkpt lat="42.23435" lon="1.71531">
        <ele>1915.63</ele>
        <time>2024-11-02T14:18:00Z</time>
      </trkpt>
      <trkpt lat="42.23439" lon="1.7153">
        <ele>1912.45</ele>
        <time>2024-11-02T14:18:16Z</time>
      </trkpt>
      <trkpt lat="42.23444" lon="1.71525">
        <ele>1909.64</ele>
        <time>2024-11-02T14:18:36Z</time>
      </trkpt>
      <trkpt lat="42.23441" lon="1.71519">
        <ele>1909.5</ele>
        <time>2024-11-02T14:18:56Z</time>
      </trkpt>
      <trkpt lat="42.23444" lon="1.71517">
        <ele>1907.31</ele>
        <time>2024-11-02T14:19:16Z</time>
      </trkpt>
      <trkpt lat="42.23449" lon="1.71517">
        <ele>1906</ele>
        <time>2024-11-02T14:19:37Z</time>
      </trkpt>
      <trkpt lat="42.2345" lon="1.71518">
        <ele>1904.9</ele>
        <time>2024-11-02T14:19:43Z</time>
      </trkpt>
      <trkpt lat="42.23456" lon="1.71516">
        <ele>1901.64</ele>
        <time>2024-11-02T14:20:00Z</time>
      </trkpt>
      <trkpt lat="42.23461" lon="1.71513">
        <ele>1900.25</ele>
        <time>2024-11-02T14:20:18Z</time>
      </trkpt>
      <trkpt lat="42.23461" lon="1.71521">
        <ele>1897.23</ele>
        <time>2024-11-02T14:20:33Z</time>
      </trkpt>
      <trkpt lat="42.23461" lon="1.71522">
        <ele>1895.53</ele>
        <time>2024-11-02T14:20:48Z</time>
      </trkpt>
      <trkpt lat="42.23464" lon="1.71527">
        <ele>1893.18</ele>
        <time>2024-11-02T14:21:06Z</time>
      </trkpt>
      <trkpt lat="42.23465" lon="1.71531">
        <ele>1891.61</ele>
        <time>2024-11-02T14:21:23Z</time>
      </trkpt>
      <trkpt lat="42.2347" lon="1.71531">
        <ele>1888.62</ele>
        <time>2024-11-02T14:21:44Z</time>
      </trkpt>
      <trkpt lat="42.23475" lon="1.71528">
        <ele>1886.55</ele>
        <time>2024-11-02T14:22:03Z</time>
      </trkpt>
      <trkpt lat="42.23476" lon="1.71532">
        <ele>1883.75</ele>
        <time>2024-11-02T14:22:17Z</time>
      </trkpt>
      <trkpt lat="42.2348" lon="1.71534">
        <ele>1880.41</ele>
        <time>2024-11-02T14:22:32Z</time>
      </trkpt>
      <trkpt lat="42.23485" lon="1.71533">
        <ele>1877.47</ele>
        <time>2024-11-02T14:22:48Z</time>
      </trkpt>
      <trkpt lat="42.23487" lon="1.71534">
        <ele>1875.57</ele>
        <time>2024-11-02T14:22:53Z</time>
      </trkpt>
      <trkpt lat="42.23488" lon="1.71538">
        <ele>1873.89</ele>
        <time>2024-11-02T14:22:59Z</time>
      </trkpt>
      <trkpt lat="42.23491" lon="1.7154">
        <ele>1871.59</ele>
        <time>2024-11-02T14:23:15Z</time>
      </trkpt>
      <trkpt lat="42.23492" lon="1.71544">
        <ele>1869.58</ele>
        <time>2024-11-02T14:23:29Z</time>
      </trkpt>
      <trkpt lat="42.23494" lon="1.71544">
        <ele>1867.67</ele>
        <time>2024-11-02T14:23:44Z</time>
      </trkpt>
      <trkpt lat="42.23495" lon="1.71549">
        <ele>1865.15</ele>
        <time>2024-11-02T14:23:58Z</time>
      </trkpt>
      <trkpt lat="42.23499" lon="1.71547">
        <ele>1864.2</ele>
        <time>2024-11-02T14:24:12Z</time>
      </trkpt>
      <trkpt lat="42.23496" lon="1.71547">
        <ele>1863.52</ele>
        <time>2024-11-02T14:24:30Z</time>
      </trkpt>
      <trkpt lat="42.23497" lon="1.71548">
        <ele>1864.15</ele>
        <time>2024-11-02T14:25:14Z</time>
      </trkpt>
      <trkpt lat="42.23496" lon="1.71547">
        <ele>1864.39</ele>
        <time>2024-11-02T14:26:00Z</time>
      </trkpt>
      <trkpt lat="42.23495" lon="1.71555">
        <ele>1861.72</ele>
        <time>2024-11-02T14:26:21Z</time>
      </trkpt>
      <trkpt lat="42.23496" lon="1.71564">
        <ele>1858.64</ele>
        <time>2024-11-02T14:26:39Z</time>
      </trkpt>
      <trkpt lat="42.23496" lon="1.71565">
        <ele>1857.51</ele>
        <time>2024-11-02T14:26:41Z</time>
      </trkpt>
      <trkpt lat="42.23495" lon="1.71576">
        <ele>1854.28</ele>
        <time>2024-11-02T14:26:56Z</time>
      </trkpt>
      <trkpt lat="42.23494" lon="1.7158">
        <ele>1853.54</ele>
        <time>2024-11-02T14:27:01Z</time>
      </trkpt>
      <trkpt lat="42.23493" lon="1.71587">
        <ele>1850.68</ele>
        <time>2024-11-02T14:27:15Z</time>
      </trkpt>
      <trkpt lat="42.23494" lon="1.71595">
        <ele>1847.59</ele>
        <time>2024-11-02T14:27:28Z</time>
      </trkpt>
      <trkpt lat="42.23495" lon="1.71603">
        <ele>1844.45</ele>
        <time>2024-11-02T14:27:44Z</time>
      </trkpt>
      <trkpt lat="42.23496" lon="1.71608">
        <ele>1842.14</ele>
        <time>2024-11-02T14:27:52Z</time>
      </trkpt>
      <trkpt lat="42.23496" lon="1.71611">
        <ele>1841.24</ele>
        <time>2024-11-02T14:27:56Z</time>
      </trkpt>
      <trkpt lat="42.23498" lon="1.71617">
        <ele>1838.98</ele>
        <time>2024-11-02T14:28:11Z</time>
      </trkpt>
      <trkpt lat="42.235" lon="1.71623">
        <ele>1835.75</ele>
        <time>2024-11-02T14:28:22Z</time>
      </trkpt>
      <trkpt lat="42.23504" lon="1.71627">
        <ele>1832.66</ele>
        <time>2024-11-02T14:28:33Z</time>
      </trkpt>
      <trkpt lat="42.2351" lon="1.71629">
        <ele>1829.54</ele>
        <time>2024-11-02T14:28:47Z</time>
      </trkpt>
      <trkpt lat="42.23513" lon="1.71627">
        <ele>1827.78</ele>
        <time>2024-11-02T14:29:01Z</time>
      </trkpt>
      <trkpt lat="42.23517" lon="1.71627">
        <ele>1824.74</ele>
        <time>2024-11-02T14:29:15Z</time>
      </trkpt>
      <trkpt lat="42.23524" lon="1.71629">
        <ele>1823.5</ele>
        <time>2024-11-02T14:29:29Z</time>
      </trkpt>
      <trkpt lat="42.2353" lon="1.71638">
        <ele>1820.62</ele>
        <time>2024-11-02T14:29:44Z</time>
      </trkpt>
      <trkpt lat="42.23537" lon="1.71644">
        <ele>1817.59</ele>
        <time>2024-11-02T14:29:58Z</time>
      </trkpt>
      <trkpt lat="42.2354" lon="1.7165">
        <ele>1814.85</ele>
        <time>2024-11-02T14:30:09Z</time>
      </trkpt>
      <trkpt lat="42.23541" lon="1.7165">
        <ele>1814.84</ele>
        <time>2024-11-02T14:30:10Z</time>
      </trkpt>
      <trkpt lat="42.23546" lon="1.71649">
        <ele>1813.66</ele>
        <time>2024-11-02T14:30:15Z</time>
      </trkpt>
      <trkpt lat="42.23553" lon="1.71647">
        <ele>1810.58</ele>
        <time>2024-11-02T14:30:30Z</time>
      </trkpt>
      <trkpt lat="42.23561" lon="1.7165">
        <ele>1807.4</ele>
        <time>2024-11-02T14:30:47Z</time>
      </trkpt>
      <trkpt lat="42.23565" lon="1.71658">
        <ele>1804.27</ele>
        <time>2024-11-02T14:30:59Z</time>
      </trkpt>
      <trkpt lat="42.23569" lon="1.71665">
        <ele>1801.32</ele>
        <time>2024-11-02T14:31:14Z</time>
      </trkpt>
      <trkpt lat="42.23572" lon="1.71671">
        <ele>1799.32</ele>
        <time>2024-11-02T14:31:28Z</time>
      </trkpt>
      <trkpt lat="42.23576" lon="1.71678">
        <ele>1796.8</ele>
        <time>2024-11-02T14:31:44Z</time>
      </trkpt>
      <trkpt lat="42.23575" lon="1.7168">
        <ele>1795.19</ele>
        <time>2024-11-02T14:31:58Z</time>
      </trkpt>
      <trkpt lat="42.23572" lon="1.71682">
        <ele>1795.73</ele>
        <time>2024-11-02T14:32:23Z</time>
      </trkpt>
      <trkpt lat="42.23571" lon="1.71684">
        <ele>1794.94</ele>
        <time>2024-11-02T14:32:54Z</time>
      </trkpt>
      <trkpt lat="42.23575" lon="1.71685">
        <ele>1795.16</ele>
        <time>2024-11-02T14:33:23Z</time>
      </trkpt>
      <trkpt lat="42.23574" lon="1.71685">
        <ele>1795.1</ele>
        <time>2024-11-02T14:33:54Z</time>
      </trkpt>
      <trkpt lat="42.23573" lon="1.71684">
        <ele>1795.14</ele>
        <time>2024-11-02T14:34:31Z</time>
      </trkpt>
      <trkpt lat="42.23572" lon="1.71686">
        <ele>1795.25</ele>
        <time>2024-11-02T14:34:58Z</time>
      </trkpt>
      <trkpt lat="42.23573" lon="1.71685">
        <ele>1794.18</ele>
        <time>2024-11-02T14:35:23Z</time>
      </trkpt>
      <trkpt lat="42.23574" lon="1.71684">
        <ele>1794.31</ele>
        <time>2024-11-02T14:35:47Z</time>
      </trkpt>
      <trkpt lat="42.23574" lon="1.71686">
        <ele>1794.24</ele>
        <time>2024-11-02T14:36:21Z</time>
      </trkpt>
      <trkpt lat="42.23574" lon="1.71685">
        <ele>1792.98</ele>
        <time>2024-11-02T14:36:48Z</time>
      </trkpt>
      <trkpt lat="42.23574" lon="1.71684">
        <ele>1793.29</ele>
        <time>2024-11-02T14:37:23Z</time>
      </trkpt>
      <trkpt lat="42.23571" lon="1.71685">
        <ele>1792.62</ele>
        <time>2024-11-02T14:37:48Z</time>
      </trkpt>
      <trkpt lat="42.23572" lon="1.71686">
        <ele>1792.72</ele>
        <time>2024-11-02T14:38:18Z</time>
      </trkpt>
      <trkpt lat="42.23573" lon="1.71685">
        <ele>1792.75</ele>
        <time>2024-11-02T14:38:38Z</time>
      </trkpt>
      <trkpt lat="42.23574" lon="1.71686">
        <ele>1792.43</ele>
        <time>2024-11-02T14:39:06Z</time>
      </trkpt>
      <trkpt lat="42.23573" lon="1.71695">
        <ele>1789.9</ele>
        <time>2024-11-02T14:39:27Z</time>
      </trkpt>
      <trkpt lat="42.23573" lon="1.71701">
        <ele>1786.89</ele>
        <time>2024-11-02T14:39:40Z</time>
      </trkpt>
      <trkpt lat="42.23573" lon="1.71706">
        <ele>1784.42</ele>
        <time>2024-11-02T14:39:49Z</time>
      </trkpt>
      <trkpt lat="42.23575" lon="1.71715">
        <ele>1781.63</ele>
        <time>2024-11-02T14:40:06Z</time>
      </trkpt>
      <trkpt lat="42.23576" lon="1.71723">
        <ele>1778.63</ele>
        <time>2024-11-02T14:40:21Z</time>
      </trkpt>
      <trkpt lat="42.23575" lon="1.71732">
        <ele>1775.76</ele>
        <time>2024-11-02T14:40:36Z</time>
      </trkpt>
      <trkpt lat="42.23574" lon="1.71739">
        <ele>1772.62</ele>
        <time>2024-11-02T14:40:49Z</time>
      </trkpt>
      <trkpt lat="42.23571" lon="1.71745">
        <ele>1769.58</ele>
        <time>2024-11-02T14:41:00Z</time>
      </trkpt>
      <trkpt lat="42.23568" lon="1.71754">
        <ele>1766.4</ele>
        <time>2024-11-02T14:41:14Z</time>
      </trkpt>
      <trkpt lat="42.23568" lon="1.71764">
        <ele>1763.18</ele>
        <time>2024-11-02T14:41:27Z</time>
      </trkpt>
      <trkpt lat="42.23567" lon="1.7177">
        <ele>1760.36</ele>
        <time>2024-11-02T14:41:36Z</time>
      </trkpt>
      <trkpt lat="42.23567" lon="1.71778">
        <ele>1757.15</ele>
        <time>2024-11-02T14:41:47Z</time>
      </trkpt>
      <trkpt lat="42.23567" lon="1.71778">
        <ele>1756.88</ele>
        <time>2024-11-02T14:41:48Z</time>
      </trkpt>
      <trkpt lat="42.23567" lon="1.71786">
        <ele>1755.01</ele>
        <time>2024-11-02T14:42:01Z</time>
      </trkpt>
      <trkpt lat="42.23568" lon="1.71795">
        <ele>1752</ele>
        <time>2024-11-02T14:42:16Z</time>
      </trkpt>
      <trkpt lat="42.23568" lon="1.71805">
        <ele>1748.89</ele>
        <time>2024-11-02T14:42:30Z</time>
      </trkpt>
      <trkpt lat="42.23567" lon="1.71815">
        <ele>1745.69</ele>
        <time>2024-11-02T14:42:43Z</time>
      </trkpt>
      <trkpt lat="42.23563" lon="1.71829">
        <ele>1742.58</ele>
        <time>2024-11-02T14:42:58Z</time>
      </trkpt>
      <trkpt lat="42.23565" lon="1.71834">
        <ele>1739.57</ele>
        <time>2024-11-02T14:43:09Z</time>
      </trkpt>
      <trkpt lat="42.23567" lon="1.71845">
        <ele>1736.28</ele>
        <time>2024-11-02T14:43:24Z</time>
      </trkpt>
      <trkpt lat="42.23567" lon="1.71853">
        <ele>1733.16</ele>
        <time>2024-11-02T14:43:36Z</time>
      </trkpt>
      <trkpt lat="42.23572" lon="1.71864">
        <ele>1729.37</ele>
        <time>2024-11-02T14:43:53Z</time>
      </trkpt>
      <trkpt lat="42.23576" lon="1.71873">
        <ele>1726.34</ele>
        <time>2024-11-02T14:44:06Z</time>
      </trkpt>
      <trkpt lat="42.2358" lon="1.71883">
        <ele>1723.67</ele>
        <time>2024-11-02T14:44:23Z</time>
      </trkpt>
      <trkpt lat="42.23582" lon="1.7189">
        <ele>1720.64</ele>
        <time>2024-11-02T14:44:34Z</time>
      </trkpt>
      <trkpt lat="42.23584" lon="1.71899">
        <ele>1717.45</ele>
        <time>2024-11-02T14:44:49Z</time>
      </trkpt>
      <trkpt lat="42.23584" lon="1.71903">
        <ele>1716.57</ele>
        <time>2024-11-02T14:44:55Z</time>
      </trkpt>
      <trkpt lat="42.23583" lon="1.71906">
        <ele>1716.17</ele>
        <time>2024-11-02T14:44:58Z</time>
      </trkpt>
      <trkpt lat="42.23581" lon="1.71917">
        <ele>1713.24</ele>
        <time>2024-11-02T14:45:15Z</time>
      </trkpt>
      <trkpt lat="42.23582" lon="1.71919">
        <ele>1710.83</ele>
        <time>2024-11-02T14:45:23Z</time>
      </trkpt>
      <trkpt lat="42.23583" lon="1.71922">
        <ele>1709.95</ele>
        <time>2024-11-02T14:45:42Z</time>
      </trkpt>
      <trkpt lat="42.23582" lon="1.71925">
        <ele>1710.41</ele>
        <time>2024-11-02T14:46:35Z</time>
      </trkpt>
      <trkpt lat="42.23584" lon="1.71927">
        <ele>1710.52</ele>
        <time>2024-11-02T14:47:28Z</time>
      </trkpt>
      <trkpt lat="42.23584" lon="1.71925">
        <ele>1710.34</ele>
        <time>2024-11-02T14:48:08Z</time>
      </trkpt>
      <trkpt lat="42.23585" lon="1.71925">
        <ele>1711.34</ele>
        <time>2024-11-02T14:48:31Z</time>
      </trkpt>
      <trkpt lat="42.23584" lon="1.71926">
        <ele>1710.94</ele>
        <time>2024-11-02T14:48:51Z</time>
      </trkpt>
      <trkpt lat="42.23585" lon="1.71927">
        <ele>1709.82</ele>
        <time>2024-11-02T14:49:14Z</time>
      </trkpt>
      <trkpt lat="42.23587" lon="1.71934">
        <ele>1706.7</ele>
        <time>2024-11-02T14:49:27Z</time>
      </trkpt>
      <trkpt lat="42.23588" lon="1.71947">
        <ele>1703.52</ele>
        <time>2024-11-02T14:49:45Z</time>
      </trkpt>
      <trkpt lat="42.23588" lon="1.71954">
        <ele>1700.92</ele>
        <time>2024-11-02T14:49:58Z</time>
      </trkpt>
      <trkpt lat="42.23589" lon="1.71959">
        <ele>1698.78</ele>
        <time>2024-11-02T14:50:07Z</time>
      </trkpt>
      <trkpt lat="42.23587" lon="1.71967">
        <ele>1695.77</ele>
        <time>2024-11-02T14:50:22Z</time>
      </trkpt>
      <trkpt lat="42.23587" lon="1.71977">
        <ele>1692.75</ele>
        <time>2024-11-02T14:50:36Z</time>
      </trkpt>
      <trkpt lat="42.23587" lon="1.71984">
        <ele>1690.09</ele>
        <time>2024-11-02T14:50:54Z</time>
      </trkpt>
      <trkpt lat="42.23588" lon="1.71988">
        <ele>1689.14</ele>
        <time>2024-11-02T14:51:18Z</time>
      </trkpt>
      <trkpt lat="42.23587" lon="1.71999">
        <ele>1685.7</ele>
        <time>2024-11-02T14:51:32Z</time>
      </trkpt>
      <trkpt lat="42.23586" lon="1.72007">
        <ele>1682.67</ele>
        <time>2024-11-02T14:51:41Z</time>
      </trkpt>
      <trkpt lat="42.23587" lon="1.72017">
        <ele>1679.64</ele>
        <time>2024-11-02T14:51:54Z</time>
      </trkpt>
      <trkpt lat="42.23585" lon="1.72028">
        <ele>1676.45</ele>
        <time>2024-11-02T14:52:08Z</time>
      </trkpt>
      <trkpt lat="42.23589" lon="1.72041">
        <ele>1673.22</ele>
        <time>2024-11-02T14:52:21Z</time>
      </trkpt>
      <trkpt lat="42.23589" lon="1.72042">
        <ele>1673.01</ele>
        <time>2024-11-02T14:52:22Z</time>
      </trkpt>
      <trkpt lat="42.23591" lon="1.72053">
        <ele>1670.2</ele>
        <time>2024-11-02T14:52:34Z</time>
      </trkpt>
      <trkpt lat="42.23592" lon="1.7207">
        <ele>1668.1</ele>
        <time>2024-11-02T14:52:49Z</time>
      </trkpt>
      <trkpt lat="42.23593" lon="1.72087">
        <ele>1665.87</ele>
        <time>2024-11-02T14:53:04Z</time>
      </trkpt>
      <trkpt lat="42.2359" lon="1.72098">
        <ele>1662.63</ele>
        <time>2024-11-02T14:53:18Z</time>
      </trkpt>
      <trkpt lat="42.23588" lon="1.72121">
        <ele>1659.98</ele>
        <time>2024-11-02T14:53:33Z</time>
      </trkpt>
      <trkpt lat="42.23588" lon="1.72125">
        <ele>1658.36</ele>
        <time>2024-11-02T14:53:36Z</time>
      </trkpt>
      <trkpt lat="42.23585" lon="1.72145">
        <ele>1655.11</ele>
        <time>2024-11-02T14:53:53Z</time>
      </trkpt>
      <trkpt lat="42.23583" lon="1.72162">
        <ele>1651.96</ele>
        <time>2024-11-02T14:54:08Z</time>
      </trkpt>
      <trkpt lat="42.23581" lon="1.72173">
        <ele>1648.86</ele>
        <time>2024-11-02T14:54:18Z</time>
      </trkpt>
      <trkpt lat="42.23575" lon="1.72183">
        <ele>1645.79</ele>
        <time>2024-11-02T14:54:30Z</time>
      </trkpt>
      <trkpt lat="42.23569" lon="1.72197">
        <ele>1642.74</ele>
        <time>2024-11-02T14:54:42Z</time>
      </trkpt>
      <trkpt lat="42.23566" lon="1.72206">
        <ele>1640.5</ele>
        <time>2024-11-02T14:54:57Z</time>
      </trkpt>
      <trkpt lat="42.23561" lon="1.72209">
        <ele>1638.1</ele>
        <time>2024-11-02T14:55:13Z</time>
      </trkpt>
      <trkpt lat="42.23559" lon="1.72212">
        <ele>1638.31</ele>
        <time>2024-11-02T14:55:22Z</time>
      </trkpt>
      <trkpt lat="42.23559" lon="1.72209">
        <ele>1637.64</ele>
        <time>2024-11-02T14:55:30Z</time>
      </trkpt>
      <trkpt lat="42.23559" lon="1.7221">
        <ele>1637.86</ele>
        <time>2024-11-02T14:55:40Z</time>
      </trkpt>
      <trkpt lat="42.23557" lon="1.72209">
        <ele>1638.19</ele>
        <time>2024-11-02T14:55:53Z</time>
      </trkpt>
      <trkpt lat="42.23554" lon="1.72207">
        <ele>1637.61</ele>
        <time>2024-11-02T14:56:07Z</time>
      </trkpt>
      <trkpt lat="42.23554" lon="1.72208">
        <ele>1637.16</ele>
        <time>2024-11-02T14:56:39Z</time>
      </trkpt>
      <trkpt lat="42.23554" lon="1.72207">
        <ele>1637.15</ele>
        <time>2024-11-02T14:56:58Z</time>
      </trkpt>
      <trkpt lat="42.23554" lon="1.7221">
        <ele>1637.33</ele>
        <time>2024-11-02T14:57:21Z</time>
      </trkpt>
      <trkpt lat="42.23554" lon="1.7221">
        <ele>1637.2</ele>
        <time>2024-11-02T14:57:46Z</time>
      </trkpt>
      <trkpt lat="42.23553" lon="1.72206">
        <ele>1637.3</ele>
        <time>2024-11-02T14:58:15Z</time>
      </trkpt>
      <trkpt lat="42.23546" lon="1.72204">
        <ele>1635.78</ele>
        <time>2024-11-02T14:58:38Z</time>
      </trkpt>
      <trkpt lat="42.23545" lon="1.72204">
        <ele>1634.51</ele>
        <time>2024-11-02T14:58:40Z</time>
      </trkpt>
      <trkpt lat="42.23541" lon="1.72211">
        <ele>1631.68</ele>
        <time>2024-11-02T14:58:54Z</time>
      </trkpt>
      <trkpt lat="42.23536" lon="1.72214">
        <ele>1628.4</ele>
        <time>2024-11-02T14:59:07Z</time>
      </trkpt>
      <trkpt lat="42.23529" lon="1.72224">
        <ele>1625.16</ele>
        <time>2024-11-02T14:59:23Z</time>
      </trkpt>
      <trkpt lat="42.23521" lon="1.72229">
        <ele>1621.83</ele>
        <time>2024-11-02T14:59:37Z</time>
      </trkpt>
      <trkpt lat="42.23516" lon="1.72238">
        <ele>1619.07</ele>
        <time>2024-11-02T14:59:48Z</time>
      </trkpt>
      <trkpt lat="42.23509" lon="1.72241">
        <ele>1615.99</ele>
        <time>2024-11-02T15:00:04Z</time>
      </trkpt>
      <trkpt lat="42.23502" lon="1.72247">
        <ele>1612.83</ele>
        <time>2024-11-02T15:00:18Z</time>
      </trkpt>
      <trkpt lat="42.23497" lon="1.72251">
        <ele>1609.79</ele>
        <time>2024-11-02T15:00:30Z</time>
      </trkpt>
      <trkpt lat="42.23495" lon="1.72264">
        <ele>1607.43</ele>
        <time>2024-11-02T15:00:43Z</time>
      </trkpt>
      <trkpt lat="42.23489" lon="1.72278">
        <ele>1604.19</ele>
        <time>2024-11-02T15:01:01Z</time>
      </trkpt>
      <trkpt lat="42.23482" lon="1.72279">
        <ele>1602.51</ele>
        <time>2024-11-02T15:01:20Z</time>
      </trkpt>
      <trkpt lat="42.23475" lon="1.72283">
        <ele>1599.18</ele>
        <time>2024-11-02T15:01:33Z</time>
      </trkpt>
      <trkpt lat="42.23469" lon="1.72287">
        <ele>1596.11</ele>
        <time>2024-11-02T15:01:45Z</time>
      </trkpt>
      <trkpt lat="42.23459" lon="1.72283">
        <ele>1593.25</ele>
        <time>2024-11-02T15:02:03Z</time>
      </trkpt>
      <trkpt lat="42.23455" lon="1.72281">
        <ele>1592.51</ele>
        <time>2024-11-02T15:02:09Z</time>
      </trkpt>
      <trkpt lat="42.23447" lon="1.72282">
        <ele>1589.43</ele>
        <time>2024-11-02T15:02:23Z</time>
      </trkpt>
      <trkpt lat="42.23441" lon="1.7229">
        <ele>1587.04</ele>
        <time>2024-11-02T15:02:35Z</time>
      </trkpt>
      <trkpt lat="42.23437" lon="1.72295">
        <ele>1585.77</ele>
        <time>2024-11-02T15:02:42Z</time>
      </trkpt>
      <trkpt lat="42.23436" lon="1.723">
        <ele>1584.91</ele>
        <time>2024-11-02T15:02:45Z</time>
      </trkpt>
      <trkpt lat="42.23427" lon="1.72302">
        <ele>1581.95</ele>
        <time>2024-11-02T15:02:58Z</time>
      </trkpt>
      <trkpt lat="42.23418" lon="1.72295">
        <ele>1578.87</ele>
        <time>2024-11-02T15:03:14Z</time>
      </trkpt>
      <trkpt lat="42.23412" lon="1.72303">
        <ele>1575.43</ele>
        <time>2024-11-02T15:03:29Z</time>
      </trkpt>
      <trkpt lat="42.23405" lon="1.72311">
        <ele>1572.36</ele>
        <time>2024-11-02T15:03:43Z</time>
      </trkpt>
      <trkpt lat="42.23397" lon="1.72323">
        <ele>1568.62</ele>
        <time>2024-11-02T15:04:01Z</time>
      </trkpt>
      <trkpt lat="42.23388" lon="1.72327">
        <ele>1565.47</ele>
        <time>2024-11-02T15:04:15Z</time>
      </trkpt>
      <trkpt lat="42.23381" lon="1.72323">
        <ele>1562.74</ele>
        <time>2024-11-02T15:04:33Z</time>
      </trkpt>
      <trkpt lat="42.23381" lon="1.72323">
        <ele>1562.48</ele>
        <time>2024-11-02T15:04:34Z</time>
      </trkpt>
      <trkpt lat="42.23376" lon="1.72324">
        <ele>1561.34</ele>
        <time>2024-11-02T15:04:54Z</time>
      </trkpt>
      <trkpt lat="42.23367" lon="1.72327">
        <ele>1557.93</ele>
        <time>2024-11-02T15:05:12Z</time>
      </trkpt>
      <trkpt lat="42.23361" lon="1.7233">
        <ele>1554.96</ele>
        <time>2024-11-02T15:05:27Z</time>
      </trkpt>
      <trkpt lat="42.23356" lon="1.72331">
        <ele>1554.77</ele>
        <time>2024-11-02T15:05:34Z</time>
      </trkpt>
      <trkpt lat="42.23344" lon="1.72338">
        <ele>1550.37</ele>
        <time>2024-11-02T15:05:51Z</time>
      </trkpt>
      <trkpt lat="42.23336" lon="1.7234">
        <ele>1547.27</ele>
        <time>2024-11-02T15:06:02Z</time>
      </trkpt>
      <trkpt lat="42.23328" lon="1.72341">
        <ele>1544.21</ele>
        <time>2024-11-02T15:06:17Z</time>
      </trkpt>
      <trkpt lat="42.23319" lon="1.72342">
        <ele>1542.13</ele>
        <time>2024-11-02T15:06:42Z</time>
      </trkpt>
      <trkpt lat="42.23313" lon="1.72346">
        <ele>1539.1</ele>
        <time>2024-11-02T15:06:52Z</time>
      </trkpt>
      <trkpt lat="42.23309" lon="1.72349">
        <ele>1537</ele>
        <time>2024-11-02T15:06:59Z</time>
      </trkpt>
      <trkpt lat="42.23306" lon="1.72351">
        <ele>1535.44</ele>
        <time>2024-11-02T15:07:04Z</time>
      </trkpt>
      <trkpt lat="42.233" lon="1.72357">
        <ele>1532.86</ele>
        <time>2024-11-02T15:07:14Z</time>
      </trkpt>
      <trkpt lat="42.23295" lon="1.72361">
        <ele>1529.83</ele>
        <time>2024-11-02T15:07:24Z</time>
      </trkpt>
      <trkpt lat="42.23286" lon="1.72367">
        <ele>1526.77</ele>
        <time>2024-11-02T15:07:40Z</time>
      </trkpt>
      <trkpt lat="42.23277" lon="1.72367">
        <ele>1523.62</ele>
        <time>2024-11-02T15:07:53Z</time>
      </trkpt>
      <trkpt lat="42.23269" lon="1.72369">
        <ele>1520.06</ele>
        <time>2024-11-02T15:08:07Z</time>
      </trkpt>
      <trkpt lat="42.2326" lon="1.72371">
        <ele>1516.68</ele>
        <time>2024-11-02T15:08:23Z</time>
      </trkpt>
      <trkpt lat="42.23256" lon="1.72371">
        <ele>1515.05</ele>
        <time>2024-11-02T15:08:29Z</time>
      </trkpt>
      <trkpt lat="42.23249" lon="1.72378">
        <ele>1511.55</ele>
        <time>2024-11-02T15:08:43Z</time>
      </trkpt>
      <trkpt lat="42.23244" lon="1.72385">
        <ele>1508.25</ele>
        <time>2024-11-02T15:08:54Z</time>
      </trkpt>
      <trkpt lat="42.23236" lon="1.72388">
        <ele>1505.25</ele>
        <time>2024-11-02T15:09:09Z</time>
      </trkpt>
      <trkpt lat="42.23226" lon="1.72391">
        <ele>1501.71</ele>
        <time>2024-11-02T15:09:23Z</time>
      </trkpt>
      <trkpt lat="42.23218" lon="1.72387">
        <ele>1498.31</ele>
        <time>2024-11-02T15:09:39Z</time>
      </trkpt>
      <trkpt lat="42.23212" lon="1.7239">
        <ele>1495.36</ele>
        <time>2024-11-02T15:09:47Z</time>
      </trkpt>
      <trkpt lat="42.23201" lon="1.72394">
        <ele>1492.36</ele>
        <time>2024-11-02T15:10:02Z</time>
      </trkpt>
      <trkpt lat="42.23196" lon="1.72396">
        <ele>1490.01</ele>
        <time>2024-11-02T15:10:10Z</time>
      </trkpt>
      <trkpt lat="42.23189" lon="1.72397">
        <ele>1486.8</ele>
        <time>2024-11-02T15:10:22Z</time>
      </trkpt>
      <trkpt lat="42.23183" lon="1.72401">
        <ele>1484.4</ele>
        <time>2024-11-02T15:10:39Z</time>
      </trkpt>
      <trkpt lat="42.23177" lon="1.72406">
        <ele>1481.09</ele>
        <time>2024-11-02T15:10:53Z</time>
      </trkpt>
      <trkpt lat="42.23172" lon="1.72411">
        <ele>1478.98</ele>
        <time>2024-11-02T15:11:12Z</time>
      </trkpt>
      <trkpt lat="42.23172" lon="1.72411">
        <ele>1478.47</ele>
        <time>2024-11-02T15:11:47Z</time>
      </trkpt>
      <trkpt lat="42.2317" lon="1.72412">
        <ele>1478.24</ele>
        <time>2024-11-02T15:12:33Z</time>
      </trkpt>
      <trkpt lat="42.2317" lon="1.72414">
        <ele>1478.18</ele>
        <time>2024-11-02T15:12:58Z</time>
      </trkpt>
      <trkpt lat="42.2317" lon="1.72411">
        <ele>1478.09</ele>
        <time>2024-11-02T15:13:18Z</time>
      </trkpt>
      <trkpt lat="42.23166" lon="1.72414">
        <ele>1475</ele>
        <time>2024-11-02T15:13:35Z</time>
      </trkpt>
      <trkpt lat="42.23159" lon="1.72421">
        <ele>1471.86</ele>
        <time>2024-11-02T15:13:50Z</time>
      </trkpt>
      <trkpt lat="42.23152" lon="1.72427">
        <ele>1468.67</ele>
        <time>2024-11-02T15:14:04Z</time>
      </trkpt>
      <trkpt lat="42.23146" lon="1.72433">
        <ele>1465.67</ele>
        <time>2024-11-02T15:14:14Z</time>
      </trkpt>
      <trkpt lat="42.23139" lon="1.72441">
        <ele>1461.95</ele>
        <time>2024-11-02T15:14:28Z</time>
      </trkpt>
      <trkpt lat="42.23132" lon="1.72445">
        <ele>1458.55</ele>
        <time>2024-11-02T15:14:39Z</time>
      </trkpt>
      <trkpt lat="42.23126" lon="1.72451">
        <ele>1455.25</ele>
        <time>2024-11-02T15:14:51Z</time>
      </trkpt>
      <trkpt lat="42.23121" lon="1.72458">
        <ele>1452.22</ele>
        <time>2024-11-02T15:15:04Z</time>
      </trkpt>
      <trkpt lat="42.23117" lon="1.72466">
        <ele>1449.73</ele>
        <time>2024-11-02T15:15:15Z</time>
      </trkpt>
      <trkpt lat="42.23114" lon="1.72474">
        <ele>1447.43</ele>
        <time>2024-11-02T15:15:25Z</time>
      </trkpt>
      <trkpt lat="42.23108" lon="1.72484">
        <ele>1444.42</ele>
        <time>2024-11-02T15:15:40Z</time>
      </trkpt>
      <trkpt lat="42.23104" lon="1.72487">
        <ele>1442.83</ele>
        <time>2024-11-02T15:15:57Z</time>
      </trkpt>
      <trkpt lat="42.23104" lon="1.72493">
        <ele>1440.81</ele>
        <time>2024-11-02T15:16:15Z</time>
      </trkpt>
      <trkpt lat="42.23097" lon="1.72504">
        <ele>1437.78</ele>
        <time>2024-11-02T15:16:29Z</time>
      </trkpt>
      <trkpt lat="42.23093" lon="1.72513">
        <ele>1434.47</ele>
        <time>2024-11-02T15:16:41Z</time>
      </trkpt>
      <trkpt lat="42.23087" lon="1.72521">
        <ele>1431.04</ele>
        <time>2024-11-02T15:16:54Z</time>
      </trkpt>
      <trkpt lat="42.23083" lon="1.72533">
        <ele>1427.84</ele>
        <time>2024-11-02T15:17:08Z</time>
      </trkpt>
      <trkpt lat="42.23078" lon="1.72535">
        <ele>1424.69</ele>
        <time>2024-11-02T15:17:21Z</time>
      </trkpt>
      <trkpt lat="42.23074" lon="1.72539">
        <ele>1421.65</ele>
        <time>2024-11-02T15:17:31Z</time>
      </trkpt>
      <trkpt lat="42.23068" lon="1.72543">
        <ele>1418.43</ele>
        <time>2024-11-02T15:17:47Z</time>
      </trkpt>
      <trkpt lat="42.23063" lon="1.72546">
        <ele>1415.93</ele>
        <time>2024-11-02T15:17:57Z</time>
      </trkpt>
      <trkpt lat="42.2306" lon="1.72553">
        <ele>1413.63</ele>
        <time>2024-11-02T15:18:10Z</time>
      </trkpt>
      <trkpt lat="42.23056" lon="1.72558">
        <ele>1410.42</ele>
        <time>2024-11-02T15:18:25Z</time>
      </trkpt>
      <trkpt lat="42.23051" lon="1.72563">
        <ele>1407.04</ele>
        <time>2024-11-02T15:18:37Z</time>
      </trkpt>
      <trkpt lat="42.23043" lon="1.72567">
        <ele>1405.56</ele>
        <time>2024-11-02T15:18:45Z</time>
      </trkpt>
      <trkpt lat="42.23039" lon="1.72571">
        <ele>1406.27</ele>
        <time>2024-11-02T15:18:52Z</time>
      </trkpt>
      <trkpt lat="42.23037" lon="1.72572">
        <ele>1406.06</ele>
        <time>2024-11-02T15:18:54Z</time>
      </trkpt>
      <trkpt lat="42.23015" lon="1.72561">
        <ele>1404.05</ele>
        <time>2024-11-02T15:19:14Z</time>
      </trkpt>
      <trkpt lat="42.22992" lon="1.72526">
        <ele>1401.29</ele>
        <time>2024-11-02T15:19:40Z</time>
      </trkpt>
      <trkpt lat="42.22982" lon="1.72502">
        <ele>1399.29</ele>
        <time>2024-11-02T15:20:03Z</time>
      </trkpt>
      <trkpt lat="42.22981" lon="1.72497">
        <ele>1398.25</ele>
        <time>2024-11-02T15:20:34Z</time>
      </trkpt>
      <trkpt lat="42.2298" lon="1.72496">
        <ele>1398.4</ele>
        <time>2024-11-02T15:20:52Z</time>
      </trkpt>
      <trkpt lat="42.22979" lon="1.72493">
        <ele>1398.46</ele>
        <time>2024-11-02T15:20:55Z</time>
      </trkpt>
      <trkpt lat="42.22976" lon="1.72482">
        <ele>1397.6</ele>
        <time>2024-11-02T15:21:04Z</time>
      </trkpt>
      <trkpt lat="42.22976" lon="1.72477">
        <ele>1397.3</ele>
        <time>2024-11-02T15:21:20Z</time>
      </trkpt>
    </trkseg>
  </trk>
</gpx>